[[{"header":{"parameterUnit":"m.s-1","parameterCategory":1,"la1":31.0,"la2":29.5877,"lo1":-88.7671,"lo2":-86.6584,"dy":0.0162,"dx":0.0185,"nx":115,"ny":88,"refTime":"2023-06-06T18:00:00:Z","depth":0,"parameterNumber":2,"parameterNumberName":"U-component_of_WINDS"},"data":[0.0,0.0,0.0,0.0,0.0,0.0,0.0,0.0,0.0,0.0,0.0,0.0,0.0,0.0,0.0,0.0,0.0,0.0,0.0,0.0,0.0,0.0,0.0,0.0,0.0,0.0,0.0,0.0,0.0,0.0,0.0,0.0,0.0,0.0,0.0,0.0,0.0,0.0,0.0,0.0,0.0,0.0,0.0,0.0,0.0,0.0,0.0,0.0,0.0,0.0,0.0,0.0,0.0,0.0,0.0,0.0,0.0,0.0,0.0,0.0,0.0,0.0,0.0,0.0,0.0,0.0,0.0,0.0,0.0,0.0,0.0,0.0,0.0,0.0,0.0,0.0,0.0,0.0,0.0,0.0,0.0,0.0,0.0,0.0,0.0,0.0,0.0,0.0,0.0,0.0,0.0,0.0,0.0,0.0,0.0,0.0,0.0,0.0,0.0,0.0,0.0,0.0,0.0,0.0,0.0,0.0,0.0,0.0,0.0,0.0,0.0,0.0,0.0,0.0,0.0,0.0,0.0,0.0,0.0,0.0,0.0,0.0,0.0,0.0,0.0,0.0,0.0,0.0,0.0,0.0,0.0,0.0,0.0,0.0,0.0,0.0,0.0,0.0,0.0,0.0,0.0,0.0,0.0,0.0,0.0,0.0,0.0,0.0,0.0,0.0,0.0,0.0,0.0,0.0,0.0,0.0,0.0,0.0,0.0,0.0,0.0,0.0,0.0,0.0,0.0,0.0,0.0,0.0,0.0,0.0,0.0,0.0,0.0,0.0,0.0,0.0,0.0,0.0,0.0,0.0,0.0,0.0,0.0,0.0,0.0,0.0,0.0,0.0,0.0,0.0,0.0,0.0,0.0,0.0,0.0,0.0,0.0,0.0,0.0,0.0,0.0,0.0,0.0,0.0,0.0,0.0,0.0,0.0,0.0,0.0,0.0,0.0,0.0,0.0,0.0,0.0,0.0,0.0,0.0,0.0,0.0,0.0,0.0,0.0,0.0,0.0,0.0,0.0,0.0,0.0,0.0,0.0,0.0,0.0,0.0,0.0,0.0,0.0,0.0,0.0,0.0,0.0,0.0,0.0,0.0,0.0,0.0,0.0,0.0,0.0,0.0,0.0,0.0,0.0,0.0,0.0,0.0,0.0,0.0,0.0,0.0,0.0,0.0,0.0,0.0,0.0,0.0,0.0,0.0,0.0,0.0,0.0,0.0,0.0,0.0,0.0,0.0,0.0,0.0,0.0,0.0,0.0,0.0,0.0,0.0,0.0,0.0,0.0,0.0,0.0,0.0,0.0,0.0,0.0,0.0,0.0,0.0,0.0,0.0,0.0,0.0,0.0,0.0,0.0,0.0,0.0,0.0,0.0,0.0,0.0,0.0,0.0,0.0,0.0,0.0,0.0,0.0,0.0,0.0,0.0,0.0,0.0,0.0,0.0,0.0,0.0,0.0,0.0,0.0,0.0,0.0,0.0,0.0,0.0,0.0,0.0,0.0,0.0,0.0,0.0,0.0,0.0,0.0,0.0,0.0,0.0,0.0,0.0,0.0,0.0,0.0,0.0,0.0,0.0,0.0,0.0,0.0,0.0,0.0,0.0,0.0,0.0,0.0,0.0,0.0,0.0,0.0,0.0,0.0,0.0,0.0,0.0,0.0,0.0,0.0,0.0,0.0,0.0,0.0,0.0,0.0,0.0,0.0,0.0,0.0,0.0,0.0,0.0,0.0,0.0,0.0,0.0,0.0,0.0,0.0,0.0,0.0,0.0,0.0,0.0,0.0,0.0,0.0,0.0,0.0,0.0,0.0,0.0,0.0,0.0,0.0,0.0,0.0,0.0,0.0,0.0,0.0,0.0,0.0,0.0,0.0,0.0,0.0,0.0,0.0,0.0,0.0,0.0,0.0,0.0,0.0,0.0,0.0,0.0,0.0,0.0,0.0,0.0,0.0,0.0,0.0,0.0,0.0,0.0,0.0,0.0,0.0,0.0,0.0,0.0,0.0,0.0,0.0,0.0,0.0,0.0,0.0,0.0,0.0,0.0,0.0,0.0,0.0,0.0,0.0,0.0,0.0,0.0,0.0,0.0,0.0,0.0,0.0,0.0,0.0,0.0,0.0,0.0,0.0,0.0,0.0,0.0,0.0,0.0,0.0,0.0,0.0,0.0,0.0,0.0,0.0,0.0,0.0,0.0,0.0,0.0,0.0,0.0,0.0,0.0,0.0,0.0,0.0,0.0,0.0,0.0,0.0,0.0,0.0,0.0,0.0,0.0,0.0,0.0,0.0,0.0,0.0,0.0,0.0,0.0,0.0,0.0,0.0,0.0,0.0,0.0,0.0,0.0,0.0,0.0,0.0,0.0,0.0,0.0,0.0,0.0,0.0,0.0,0.0,0.0,0.0,0.0,0.0,0.0,0.0,0.0,0.0,0.0,0.0,0.0,0.0,0.0,0.0,0.0,0.0,0.0,0.0,0.0,0.0,0.0,0.0,0.0,0.0,0.0,0.0,0.0,0.0,0.0,0.0,0.0,0.0,0.0,0.0,0.0,0.0,0.0,0.0,0.0,0.0,0.0,0.0,0.0,0.0,0.0,0.0,0.0,0.0,0.0,0.0,0.0,0.0,0.0,0.0,0.0,0.0,0.0,0.0,0.0,0.0,0.0,0.0,0.0,0.0,0.0,0.0,0.0,0.0,0.0,0.0,0.0,0.0,0.0,0.0,0.0,0.0,0.0,0.0,0.0,0.0,0.0,0.0,0.0,0.0,0.0,0.0,0.0,0.0,0.0,0.0,0.0,0.0,0.0,0.0,0.0,0.0,0.0,0.0,0.0,0.0,0.0,0.0,0.0,0.0,0.0,0.0,0.0,0.0,0.0,0.0,0.0,0.0,0.0,0.0,0.0,0.0,0.0,0.0,0.0,0.0,0.0,0.0,0.0,0.0,0.0,0.0,0.0,0.0,0.0,0.0,0.0,0.0,0.0,0.0,0.0,0.0,0.0,0.0,0.0,0.0,0.0,0.0,0.0,0.0,0.0,0.0,0.0,0.0,0.0,0.0,0.0,0.0,0.0,0.0,0.0,0.0,0.0,0.0,0.0,0.0,0.0,0.0,0.0,0.0,0.0,0.0,0.0,0.0,0.0,0.0,0.0,0.0,0.0,0.0,0.0,0.0,0.0,0.0,0.0,0.0,0.0,0.0,0.0,0.0,0.0,0.0,0.0,0.0,0.0,0.0,0.0,0.0,0.0,0.0,0.0,0.0,0.0,0.0,0.0,0.0,0.0,0.0,0.0,0.0,0.0,0.0,0.0,0.0,0.0,0.0,0.0,0.0,0.0,0.0,0.0,0.0,0.0,0.0,0.0,0.0,0.0,0.0,0.0,0.0,0.0,0.0,0.0,0.0,0.0,0.0,0.0,0.0,0.0,0.0,0.0,0.0,0.0,0.0,0.0,0.0,0.0,0.0,0.0,0.0,0.0,0.0,0.0,0.0,0.0,0.0,0.0,0.0,0.0,0.0,0.0,0.0,0.0,0.0,0.0,0.0,0.0,0.0,0.0,0.0,0.0,0.0,0.0,0.0,0.0,0.0,0.0,0.0,0.0,0.0,0.0,0.0,0.0,0.0,0.0,0.0,0.0,0.0,0.0,0.0,0.0,0.0,0.0,0.0,0.0,0.0,0.0,0.0,0.0,0.0,0.0,0.0,0.0,0.0,0.0,0.0,0.0,0.0,0.0,0.0,0.0,0.0,0.0,0.0,0.0,0.0,0.0,0.0,0.0,0.0,0.0,0.0,0.0,0.0,0.0,0.0,0.0,0.0,0.0,0.0,0.0,0.0,0.0,0.0,0.0,0.0,0.0,0.0,0.0,0.0,0.0,0.0,0.0,0.0,0.0,0.0,0.0,0.0,0.0,0.0,0.0,0.0,0.0,0.0,0.0,0.0,0.0,0.0,0.0,0.0,0.0,0.0,0.0,0.0,0.0,0.0,0.0,0.0,0.0,0.0,0.0,0.0,0.0,0.0,0.0,0.0,0.0,0.0,0.0,0.0,0.0,0.0,0.0,0.0,0.0,0.0,0.0,0.0,0.0,0.0,0.0,0.0,0.0,0.0,0.0,0.0,0.0,0.0,0.0,0.0,0.0,0.0,0.0,0.0,0.0,0.0,0.0,0.0,0.0,0.0,0.0,0.0,0.0,0.0,0.0,0.0,0.0,0.0,0.0,0.0,0.0,0.0,0.0,0.0,0.0,0.0,0.0,0.0,0.0,0.0,0.0,0.0,0.0,2.0506,0.0,0.0,0.0,0.0,0.0,0.0,0.0,0.0,0.0,0.0,0.0,0.0,0.0,0.0,0.0,0.0,0.0,0.0,0.0,0.0,0.0,0.0,0.0,0.0,0.0,0.0,0.0,0.0,0.0,0.0,0.0,0.0,0.0,0.0,0.0,0.0,0.0,0.0,0.0,0.0,0.0,0.0,0.0,0.0,0.0,0.0,0.0,0.0,0.0,0.0,0.0,0.0,0.0,0.0,0.0,0.0,0.0,0.0,0.0,0.0,0.0,0.0,0.0,0.0,0.0,0.0,0.0,0.0,0.0,0.0,0.0,0.0,0.0,0.0,0.0,0.0,0.0,0.0,0.0,0.0,0.0,0.0,0.0,0.0,0.0,0.0,0.0,0.0,0.0,0.0,0.0,0.0,0.0,0.0,0.0,0.0,0.0,0.0,0.0,0.0,0.0,0.0,0.0,0.0,0.0,0.0,0.0,0.0,0.0,0.0,2.05,2.0513,2.0516,2.0516,2.0513,0.0,0.0,0.0,0.0,0.0,0.0,0.0,0.0,0.0,0.0,0.0,0.0,0.0,0.0,0.0,0.0,0.0,0.0,0.0,0.0,0.0,0.0,0.0,0.0,0.0,0.0,0.0,0.0,0.0,0.0,0.0,0.0,0.0,0.0,0.0,0.0,0.0,0.0,0.0,0.0,0.0,0.0,0.0,0.0,0.0,0.0,0.0,0.0,0.0,0.0,0.0,0.0,0.0,0.0,0.0,0.0,0.0,0.0,0.0,0.0,0.0,0.0,0.0,0.0,0.0,0.0,0.0,0.0,0.0,0.0,0.0,0.0,0.0,0.0,0.0,0.0,0.0,0.0,0.0,0.0,0.0,0.0,0.0,0.0,0.0,0.0,0.0,0.0,0.0,0.0,0.0,0.0,0.0,0.0,0.0,0.0,0.0,0.0,0.0,0.0,0.0,0.0,0.0,0.0,0.0,0.0,0.0,0.0,0.0,0.0,0.0,0.0,2.0503,2.0503,2.0503,0.0,0.0,0.0,0.0,0.0,0.0,0.0,0.0,0.0,0.0,0.0,0.0,0.0,0.0,0.0,0.0,0.0,0.0,0.0,0.0,0.0,0.0,0.0,0.0,0.0,0.0,0.0,0.0,0.0,0.0,0.0,0.0,0.0,0.0,0.0,0.0,0.0,0.0,0.0,0.0,0.0,0.0,0.0,0.0,0.0,0.0,0.0,0.0,0.0,0.0,0.0,0.0,0.0,0.0,0.0,0.0,0.0,0.0,0.0,0.0,0.0,0.0,0.0,0.0,0.0,0.0,0.0,0.0,0.0,0.0,0.0,0.0,0.0,0.0,0.0,0.0,0.0,0.0,0.0,0.0,0.0,0.0,0.0,0.0,0.0,0.0,0.0,0.0,0.0,0.0,0.0,0.0,0.0,0.0,0.0,0.0,0.0,0.0,0.0,0.0,0.0,0.0,0.0,0.0,0.0,0.0,0.0,0.0,0.0,0.0,2.0516,2.0516,2.0516,0.0,2.0516,0.0,0.0,0.0,0.0,0.0,0.0,0.0,0.0,0.0,0.0,0.0,0.0,0.0,0.0,0.0,0.0,0.0,0.0,0.0,0.0,0.0,0.0,0.0,0.0,0.0,0.0,0.0,0.0,0.0,0.0,0.0,0.0,0.0,0.0,0.0,0.0,0.0,0.0,0.0,0.0,0.0,0.0,0.0,0.0,0.0,0.0,0.0,0.0,0.0,0.0,0.0,0.0,0.0,0.0,0.0,0.0,0.0,0.0,0.0,0.0,0.0,0.0,0.0,0.0,0.0,0.0,0.0,0.0,0.0,0.0,0.0,0.0,0.0,0.0,0.0,0.0,0.0,0.0,0.0,0.0,0.0,0.0,0.0,0.0,0.0,0.0,0.0,0.0,0.0,0.0,0.0,0.0,0.0,0.0,0.0,0.0,0.0,0.0,0.0,0.0,0.0,0.0,0.0,0.0,0.0,0.0,0.0,0.0,0.0,0.0,2.054,2.0519,2.0516,2.0499,0.0,0.0,0.0,0.0,0.0,0.0,0.0,0.0,0.0,0.0,0.0,0.0,0.0,0.0,0.0,0.0,0.0,0.0,0.0,0.0,0.0,0.0,0.0,0.0,0.0,0.0,0.0,0.0,0.0,0.0,0.0,0.0,0.0,0.0,0.0,0.0,0.0,0.0,0.0,0.0,0.0,0.0,0.0,0.0,0.0,0.0,0.0,0.0,0.0,0.0,0.0,0.0,0.0,0.0,0.0,0.0,0.0,0.0,0.0,0.0,0.0,0.0,0.0,0.0,0.0,0.0,0.0,0.0,0.0,0.0,0.0,0.0,0.0,0.0,0.0,0.0,0.0,0.0,0.0,0.0,0.0,0.0,0.0,0.0,0.0,0.0,0.0,0.0,0.0,0.0,0.0,0.0,0.0,0.0,0.0,0.0,0.0,0.0,0.0,0.0,0.0,0.0,0.0,0.0,0.0,0.0,0.0,0.0,0.0,0.0,2.0607,2.0566,2.0543,2.0523,2.0545,2.0607,0.0,0.0,0.0,0.0,0.0,0.0,0.0,0.0,0.0,0.0,0.0,0.0,0.0,0.0,0.0,0.0,0.0,0.0,0.0,0.0,0.0,0.0,0.0,0.0,0.0,0.0,0.0,0.0,0.0,0.0,0.0,0.0,0.0,0.0,0.0,0.0,0.0,0.0,0.0,0.0,0.0,0.0,0.0,0.0,0.0,0.0,0.0,0.0,0.0,0.0,0.0,0.0,0.0,0.0,0.0,0.0,0.0,0.0,0.0,0.0,0.0,0.0,0.0,0.0,0.0,0.0,0.0,0.0,0.0,0.0,0.0,0.0,0.0,0.0,0.0,0.0,0.0,0.0,0.0,0.0,0.0,0.0,0.0,0.0,0.0,0.0,0.0,0.0,0.0,0.0,0.0,0.0,0.0,0.0,0.0,0.0,0.0,0.0,0.0,0.0,0.0,0.0,0.0,0.0,0.0,0.0,0.0,0.0,2.0593,2.0593,2.0593,2.0593,2.0593,2.0593,0.0,0.0,0.0,0.0,0.0,0.0,0.0,0.0,0.0,0.0,0.0,0.0,0.0,0.0,0.0,0.0,0.0,0.0,0.0,0.0,0.0,0.0,0.0,0.0,0.0,0.0,0.0,0.0,0.0,0.0,0.0,0.0,0.0,0.0,0.0,0.0,0.0,0.0,0.0,0.0,0.0,0.0,0.0,0.0,0.0,0.0,0.0,0.0,0.0,0.0,0.0,0.0,0.0,0.0,0.0,0.0,0.0,0.0,0.0,0.0,0.0,0.0,0.0,0.0,0.0,0.0,0.0,0.0,0.0,0.0,0.0,0.0,0.0,0.0,0.0,0.0,0.0,0.0,0.0,0.0,0.0,0.0,0.0,0.0,0.0,0.0,0.0,0.0,0.0,0.0,0.0,0.0,0.0,0.0,0.0,0.0,0.0,0.0,0.0,0.0,0.0,0.0,0.0,0.0,0.0,0.0,0.0,0.0,0.0,2.0593,2.0593,2.0593,2.0593,2.0593,2.0593,0.0,0.0,0.0,0.0,0.0,0.0,0.0,0.0,0.0,0.0,0.0,0.0,0.0,0.0,0.0,0.0,0.0,0.0,0.0,0.0,0.0,0.0,0.0,0.0,0.0,0.0,0.0,0.0,0.0,0.0,0.0,0.0,0.0,0.0,0.0,0.0,0.0,0.0,0.0,0.0,0.0,0.0,0.0,0.0,0.0,0.0,0.0,0.0,0.0,0.0,0.0,0.0,0.0,0.0,0.0,0.0,0.0,0.0,0.0,0.0,0.0,0.0,0.0,0.0,0.0,0.0,0.0,0.0,0.0,0.0,0.0,0.0,0.0,0.0,0.0,0.0,0.0,0.0,0.0,0.0,0.0,0.0,0.0,0.0,0.0,0.0,0.0,0.0,0.0,0.0,0.0,0.0,0.0,0.0,0.0,0.0,0.0,0.0,0.0,0.0,0.0,0.0,0.0,0.0,0.0,0.0,0.0,0.0,0.0,2.0597,0.0,2.0597,0.0,2.0597,2.0596,0.0,0.0,0.0,0.0,0.0,0.0,0.0,0.0,0.0,0.0,0.0,0.0,0.0,0.0,0.0,0.0,0.0,0.0,0.0,0.0,0.0,0.0,0.0,0.0,0.0,0.0,0.0,0.0,0.0,0.0,0.0,0.0,0.0,0.0,0.0,0.0,0.0,0.0,0.0,0.0,0.0,0.0,0.0,0.0,0.0,0.0,0.0,0.0,0.0,0.0,0.0,0.0,0.0,0.0,0.0,0.0,0.0,0.0,0.0,0.0,0.0,0.0,0.0,0.0,0.0,0.0,0.0,0.0,0.0,0.0,0.0,0.0,0.0,0.0,0.0,0.0,0.0,0.0,0.0,0.0,0.0,0.0,0.0,0.0,0.0,0.0,0.0,0.0,0.0,0.0,0.0,0.0,0.0,0.0,0.0,0.0,0.0,0.0,0.0,0.0,0.0,0.0,0.0,0.0,0.0,0.0,0.0,0.0,2.0656,2.066,2.066,2.0699,2.0621,2.066,2.0619,0.0,0.0,0.0,0.0,0.0,0.0,0.0,0.0,0.0,0.0,0.0,0.0,0.0,0.0,0.0,0.0,0.0,0.0,0.0,0.0,0.0,0.0,0.0,0.0,0.0,0.0,0.0,0.0,0.0,0.0,0.0,0.0,0.0,0.0,0.0,0.0,0.0,0.0,0.0,0.0,0.0,0.0,0.0,0.0,0.0,0.0,0.0,0.0,0.0,0.0,0.0,0.0,0.0,0.0,0.0,0.0,0.0,0.0,0.0,0.0,0.0,0.0,0.0,0.0,0.0,0.0,0.0,0.0,0.0,0.0,0.0,0.0,0.0,0.0,0.0,0.0,0.0,0.0,0.0,0.0,0.0,0.0,0.0,0.0,0.0,0.0,0.0,0.0,0.0,0.0,0.0,0.0,0.0,0.0,0.0,0.0,0.0,0.0,0.0,0.0,0.0,0.0,0.0,0.0,0.0,0.0,0.0,0.0,0.0,2.2382,2.2343,2.207,2.1523,2.1503,2.121,0.0,0.0,0.0,0.0,0.0,0.0,0.0,0.0,0.0,0.0,0.0,0.0,0.0,0.0,0.0,0.0,0.0,0.0,0.0,0.0,0.0,0.0,0.0,0.0,0.0,0.0,0.0,0.0,0.0,0.0,0.0,0.0,0.0,0.0,0.0,0.0,0.0,0.0,0.0,0.0,0.0,0.0,0.0,0.0,0.0,0.0,0.0,0.0,0.0,0.0,0.0,0.0,0.0,0.0,0.0,0.0,0.0,0.0,0.0,0.0,0.0,0.0,0.0,0.0,0.0,0.0,0.0,0.0,0.0,0.0,0.0,0.0,0.0,0.0,0.0,0.0,0.0,0.0,0.0,0.0,0.0,0.0,0.0,0.0,0.0,0.0,0.0,0.0,0.0,0.0,0.0,0.0,0.0,0.0,0.0,0.0,0.0,0.0,0.0,0.0,0.0,0.0,0.0,0.0,0.0,0.0,0.0,0.0,0.0,2.4101,2.3476,2.2871,2.2344,2.2363,2.1973,2.1133,0.0,0.0,0.0,0.0,0.0,0.0,0.0,0.0,0.0,0.0,0.0,0.0,0.0,0.0,0.0,0.0,0.0,0.0,0.0,0.0,0.0,0.0,0.0,0.0,0.0,0.0,0.0,0.0,0.0,0.0,0.0,0.0,0.0,0.0,0.0,0.0,0.0,0.0,0.0,0.0,0.0,0.0,0.0,0.0,0.0,0.0,0.0,0.0,0.0,0.0,0.0,0.0,0.0,0.0,0.0,0.0,0.0,0.0,0.0,0.0,0.0,0.0,0.0,0.0,0.0,0.0,0.0,0.0,0.0,0.0,0.0,0.0,0.0,0.0,0.0,0.0,0.0,0.0,0.0,0.0,0.0,0.0,0.0,0.0,0.0,0.0,0.0,0.0,0.0,0.0,0.0,0.0,0.0,0.0,0.0,0.0,0.0,0.0,0.0,0.0,0.0,0.0,0.0,0.0,0.0,0.0,0.0,0.0,2.5758,2.4179,2.3301,2.3164,2.3242,2.2852,0.0,0.0,0.0,0.0,0.0,0.0,0.0,0.0,0.0,0.0,0.0,0.0,0.0,0.0,0.0,0.0,0.0,0.0,0.0,0.0,0.0,0.0,0.0,0.0,0.0,0.0,0.0,0.0,0.0,0.0,0.0,0.0,0.0,0.0,0.0,0.0,0.0,0.0,0.0,0.0,0.0,0.0,0.0,0.0,0.0,0.0,0.0,0.0,0.0,0.0,0.0,0.0,0.0,0.0,0.0,0.0,0.0,0.0,0.0,0.0,0.0,0.0,0.0,0.0,0.0,0.0,0.0,0.0,0.0,0.0,0.0,0.0,0.0,0.0,0.0,0.0,0.0,0.0,0.0,0.0,0.0,0.0,0.0,0.0,0.0,0.0,0.0,0.0,0.0,0.0,0.0,0.0,0.0,0.0,0.0,0.0,0.0,0.0,0.0,0.0,0.0,0.0,0.0,0.0,0.0,0.0,0.0,0.0,0.0,2.6589,2.5615,2.4742,2.4082,2.4062,2.3398,0.0,0.0,0.0,0.0,0.0,0.0,0.0,0.0,0.0,0.0,0.0,0.0,0.0,0.0,0.0,0.0,0.0,0.0,0.0,0.0,0.0,0.0,0.0,0.0,0.0,0.0,0.0,0.0,0.0,0.0,0.0,0.0,0.0,0.0,0.0,0.0,0.0,0.0,0.0,0.0,0.0,0.0,0.0,0.0,0.0,0.0,0.0,0.0,0.0,0.0,0.0,0.0,0.0,0.0,0.0,0.0,0.0,0.0,0.0,0.0,0.0,0.0,0.0,0.0,0.0,0.0,0.0,0.0,0.0,0.0,0.0,0.0,0.0,0.0,0.0,0.0,0.0,0.0,0.0,0.0,0.0,0.0,0.0,0.0,0.0,0.0,0.0,0.0,0.0,0.0,0.0,0.0,0.0,0.0,0.0,0.0,0.0,0.0,0.0,0.0,0.0,0.0,0.0,0.0,0.0,0.0,0.0,0.0,2.6505,2.6995,2.6878,2.6376,2.5524,2.5136,2.4316,0.0,0.0,0.0,0.0,0.0,0.0,0.0,0.0,0.0,0.0,0.0,0.0,0.0,0.0,0.0,0.0,0.0,0.0,0.0,0.0,0.0,0.0,0.0,0.0,0.0,0.0,0.0,0.0,0.0,0.0,0.0,0.0,0.0,0.0,0.0,0.0,0.0,0.0,0.0,0.0,0.0,0.0,0.0,0.0,0.0,0.0,0.0,0.0,0.0,0.0,0.0,0.0,0.0,0.0,0.0,0.0,0.0,0.0,0.0,0.0,0.0,0.0,0.0,0.0,0.0,0.0,0.0,0.0,0.0,0.0,0.0,0.0,0.0,0.0,0.0,0.0,0.0,0.0,0.0,0.0,0.0,0.0,0.0,0.0,0.0,0.0,0.0,0.0,0.0,0.0,0.0,0.0,0.0,0.0,0.0,0.0,0.0,0.0,0.0,0.0,0.0,0.0,0.0,0.0,0.0,0.0,0.0,0.0,2.7027,2.7132,2.7893,2.7971,2.727,2.6345,2.5391,0.0,0.0,0.0,0.0,0.0,0.0,0.0,0.0,0.0,0.0,0.0,0.0,0.0,0.0,0.0,0.0,0.0,0.0,0.0,0.0,0.0,0.0,0.0,0.0,0.0,0.0,0.0,0.0,0.0,0.0,0.0,0.0,0.0,0.0,0.0,0.0,0.0,0.0,0.0,0.0,0.0,0.0,0.0,0.0,0.0,0.0,0.0,0.0,0.0,0.0,0.0,0.0,0.0,0.0,0.0,0.0,0.0,0.0,0.0,0.0,0.0,0.0,0.0,0.0,0.0,0.0,0.0,0.0,0.0,0.0,0.0,0.0,0.0,0.0,0.0,0.0,0.0,0.0,0.0,0.0,0.0,0.0,0.0,0.0,0.0,0.0,0.0,0.0,0.0,0.0,0.0,0.0,0.0,0.0,0.0,0.0,0.0,0.0,0.0,0.0,0.0,0.0,0.0,0.0,0.0,0.0,0.0,0.0,2.7335,2.8003,2.8218,2.855,2.9023,2.7532,2.5995,0.0,0.0,0.0,0.0,0.0,0.0,0.0,0.0,0.0,0.0,0.0,0.0,0.0,0.0,0.0,0.0,0.0,0.0,0.0,0.0,0.0,0.0,0.0,0.0,0.0,0.0,0.0,0.0,0.0,0.0,0.0,0.0,0.0,0.0,0.0,0.0,0.0,0.0,0.0,0.0,0.0,0.0,0.0,0.0,0.0,0.0,0.0,0.0,1.9981,0.0,0.0,0.0,0.0,0.0,0.0,0.0,0.0,0.0,0.0,0.0,0.0,0.0,0.0,0.0,0.0,0.0,0.0,0.0,0.0,0.0,0.0,0.0,0.0,0.0,0.0,0.0,0.0,0.0,0.0,0.0,0.0,0.0,0.0,0.0,0.0,0.0,0.0,0.0,0.0,0.0,0.0,0.0,0.0,0.0,0.0,0.0,0.0,0.0,0.0,0.0,0.0,0.0,0.0,0.0,0.0,0.0,0.0,0.0,2.7982,2.885,2.926,2.95,2.9506,2.8286,2.6983,0.0,0.0,0.0,0.0,0.0,0.0,0.0,0.0,0.0,0.0,0.0,0.0,0.0,0.0,0.0,0.0,0.0,0.0,0.0,0.0,0.0,0.0,0.0,0.0,0.0,0.0,0.0,0.0,0.0,0.0,0.0,0.0,0.0,0.0,0.0,0.0,0.0,0.0,0.0,0.0,0.0,0.0,0.0,0.0,0.0,0.0,0.0,0.0,0.0,0.0,0.0,0.0,0.0,0.0,0.0,0.0,0.0,0.0,0.0,0.0,0.0,0.0,0.0,0.0,0.0,0.0,0.0,0.0,0.0,0.0,0.0,0.0,0.0,0.0,0.0,0.0,0.0,0.0,0.0,0.0,0.0,0.0,0.0,0.0,0.0,0.0,0.0,0.0,0.0,0.0,0.0,0.0,0.0,0.0,0.0,0.0,0.0,0.0,0.0,0.0,0.0,0.0,0.0,0.0,0.0,0.0,0.0,2.7751,2.8626,2.9492,3.0361,3.0427,2.9715,2.8798,2.7962,2.7188,0.0,0.0,0.0,0.0,0.0,0.0,0.0,0.0,0.0,0.0,0.0,0.0,0.0,0.0,0.0,0.0,0.0,0.0,0.0,0.0,0.0,0.0,0.0,0.0,0.0,0.0,0.0,0.0,0.0,0.0,0.0,0.0,0.0,0.0,0.0,0.0,0.0,0.0,1.9991,1.9981,0.0,0.0,0.0,0.0,0.0,0.0,0.0,0.0,1.99,0.0,0.0,0.0,0.0,0.0,0.0,0.0,0.0,0.0,0.0,0.0,0.0,0.0,0.0,0.0,0.0,0.0,0.0,0.0,0.0,0.0,0.0,0.0,0.0,0.0,0.0,0.0,0.0,0.0,0.0,0.0,0.0,0.0,0.0,0.0,0.0,0.0,0.0,0.0,0.0,0.0,0.0,0.0,0.0,0.0,0.0,0.0,0.0,0.0,0.0,0.0,0.0,0.0,0.0,0.0,0.0,2.6895,2.7768,2.8632,2.9498,3.036,3.0739,3.0547,2.9104,2.8246,2.7972,0.0,0.0,0.0,0.0,0.0,0.0,0.0,0.0,0.0,0.0,0.0,0.0,0.0,0.0,0.0,0.0,0.0,0.0,0.0,0.0,0.0,0.0,0.0,0.0,0.0,0.0,0.0,0.0,0.0,0.0,0.0,0.0,0.0,0.0,0.0,0.0,0.0,0.0,0.0,1.996,1.9911,0.0,0.0,0.0,0.0,0.0,0.0,0.0,0.0,1.98,0.0,0.0,0.0,0.0,0.0,0.0,0.0,0.0,0.0,0.0,0.0,0.0,0.0,0.0,0.0,0.0,0.0,0.0,0.0,0.0,0.0,0.0,0.0,0.0,0.0,0.0,0.0,0.0,0.0,0.0,0.0,0.0,0.0,0.0,0.0,0.0,0.0,0.0,0.0,0.0,0.0,0.0,0.0,0.0,0.0,0.0,0.0,0.0,0.0,0.0,0.0,0.0,0.0,0.0,0.0,2.7464,2.8365,2.9247,3.0075,3.052,3.0755,3.0759,2.9145,2.8252,0.0,0.0,0.0,0.0,0.0,0.0,0.0,0.0,0.0,0.0,0.0,0.0,0.0,0.0,0.0,0.0,0.0,0.0,0.0,0.0,0.0,0.0,0.0,0.0,0.0,0.0,0.0,0.0,0.0,0.0,0.0,0.0,0.0,0.0,0.0,0.0,0.0,0.0,0.0,0.0,1.9915,1.9908,1.9896,0.0,0.0,0.0,0.0,0.0,0.0,1.9794,1.9738,0.0,0.0,0.0,0.0,0.0,0.0,0.0,0.0,0.0,0.0,0.0,0.0,0.0,0.0,0.0,0.0,0.0,0.0,0.0,0.0,0.0,0.0,0.0,0.0,0.0,0.0,0.0,0.0,0.0,0.0,0.0,0.0,0.0,0.0,0.0,0.0,0.0,0.0,0.0,0.0,0.0,0.0,0.0,0.0,0.0,0.0,0.0,0.0,0.0,0.0,0.0,0.0,0.0,0.0,0.0,2.7956,2.8916,2.9819,3.0644,3.0698,3.0722,3.075,2.9095,2.8232,0.0,0.0,0.0,0.0,0.0,0.0,0.0,0.0,0.0,0.0,0.0,0.0,0.0,0.0,0.0,0.0,0.0,0.0,0.0,0.0,0.0,0.0,0.0,0.0,0.0,0.0,0.0,0.0,0.0,0.0,0.0,0.0,0.0,0.0,0.0,0.0,0.0,0.0,0.0,0.0,0.0,1.9861,1.9861,1.9849,0.0,0.0,0.0,0.0,1.9776,1.9701,0.0,0.0,0.0,0.0,0.0,0.0,0.0,0.0,0.0,0.0,0.0,0.0,0.0,0.0,0.0,0.0,0.0,0.0,0.0,0.0,0.0,0.0,0.0,0.0,0.0,0.0,0.0,0.0,0.0,0.0,0.0,0.0,0.0,0.0,0.0,0.0,0.0,0.0,0.0,0.0,0.0,0.0,0.0,0.0,0.0,0.0,0.0,0.0,0.0,0.0,0.0,0.0,0.0,0.0,0.0,0.0,2.7904,2.8829,2.9743,3.056,3.0676,3.0704,3.0685,2.9082,2.8198,0.0,0.0,0.0,0.0,0.0,0.0,0.0,0.0,0.0,0.0,0.0,0.0,0.0,0.0,0.0,0.0,0.0,0.0,0.0,0.0,0.0,0.0,0.0,0.0,0.0,0.0,0.0,0.0,0.0,0.0,0.0,0.0,0.0,0.0,0.0,0.0,0.0,0.0,0.0,0.0,0.0,1.9713,1.9725,1.9712,1.9725,0.0,0.0,1.9712,1.9707,1.9668,0.0,0.0,0.0,0.0,0.0,0.0,0.0,0.0,0.0,0.0,0.0,0.0,0.0,0.0,0.0,0.0,0.0,0.0,0.0,0.0,0.0,0.0,0.0,0.0,0.0,0.0,0.0,0.0,0.0,0.0,0.0,0.0,0.0,0.0,0.0,0.0,0.0,0.0,0.0,0.0,0.0,0.0,0.0,0.0,0.0,0.0,0.0,0.0,0.0,0.0,0.0,0.0,0.0,0.0,0.0,2.7651,2.8522,2.9456,3.0124,3.053,3.0613,3.0645,3.0642,2.9013,2.8139,0.0,0.0,0.0,0.0,0.0,0.0,0.0,0.0,0.0,0.0,0.0,0.0,0.0,0.0,0.0,0.0,0.0,0.0,0.0,0.0,0.0,0.0,0.0,0.0,0.0,0.0,0.0,0.0,0.0,0.0,0.0,0.0,0.0,0.0,0.0,0.0,0.0,0.0,0.0,0.0,0.0,0.0,1.9718,1.9705,0.0,0.0,0.0,1.9628,1.9601,0.0,0.0,0.0,0.0,0.0,0.0,0.0,0.0,0.0,0.0,0.0,0.0,0.0,0.0,0.0,0.0,0.0,0.0,0.0,0.0,0.0,0.0,0.0,0.0,0.0,0.0,0.0,0.0,0.0,0.0,0.0,0.0,0.0,0.0,0.0,0.0,0.0,0.0,0.0,0.0,0.0,0.0,0.0,0.0,0.0,0.0,0.0,0.0,0.0,0.0,0.0,0.0,0.0,0.0,0.0,0.0,0.0,2.8989,2.9894,3.0406,3.0458,3.0559,3.0586,3.0557,2.9167,0.0,0.0,0.0,0.0,0.0,0.0,0.0,0.0,0.0,0.0,0.0,0.0,0.0,0.0,0.0,0.0,0.0,0.0,0.0,0.0,0.0,0.0,0.0,0.0,0.0,0.0,0.0,1.9939,0.0,0.0,0.0,0.0,0.0,0.0,0.0,0.0,0.0,0.0,0.0,0.0,0.0,0.0,2.0243,2.0248,2.0243,2.0229,0.0,0.0,2.0158,2.0085,2.007,2.004,0.0,0.0,0.0,0.0,0.0,0.0,0.0,0.0,0.0,0.0,0.0,0.0,0.0,0.0,0.0,0.0,0.0,0.0,0.0,0.0,0.0,0.0,0.0,0.0,0.0,0.0,0.0,0.0,0.0,0.0,0.0,0.0,0.0,0.0,0.0,0.0,0.0,0.0,0.0,0.0,0.0,0.0,0.0,0.0,0.0,0.0,0.0,0.0,0.0,0.0,0.0,0.0,0.0,0.0,0.0,2.8937,2.9826,3.033,3.041,3.0477,3.0519,3.0501,2.9651,2.8838,0.0,0.0,0.0,0.0,0.0,0.0,0.0,0.0,0.0,0.0,0.0,0.0,0.0,0.0,0.0,0.0,0.0,0.0,0.0,0.0,0.0,0.0,0.0,0.0,0.0,0.0,0.0,0.0,0.0,0.0,0.0,0.0,0.0,0.0,0.0,0.0,0.0,0.0,0.0,0.0,0.0,2.1742,2.1771,2.1763,2.1742,0.0,0.0,2.1738,2.1634,2.1582,2.1567,2.1533,0.0,0.0,0.0,0.0,0.0,0.0,0.0,0.0,0.0,0.0,0.0,0.0,0.0,0.0,0.0,0.0,0.0,0.0,0.0,0.0,0.0,0.0,0.0,0.0,0.0,0.0,0.0,0.0,0.0,0.0,0.0,0.0,0.0,0.0,0.0,0.0,0.0,0.0,0.0,0.0,0.0,0.0,0.0,0.0,0.0,0.0,0.0,0.0,0.0,0.0,0.0,0.0,0.0,2.9,2.9525,2.9952,3.0194,3.0266,3.0349,3.0359,3.0375,2.9589,2.9002,0.0,0.0,0.0,0.0,0.0,0.0,0.0,0.0,0.0,0.0,0.0,0.0,0.0,0.0,0.0,0.0,0.0,0.0,0.0,0.0,0.0,0.0,0.0,0.0,0.0,0.0,0.0,0.0,1.9702,1.9829,2.0174,0.0,0.0,0.0,0.0,0.0,0.0,0.0,0.0,0.0,0.0,2.178,2.1783,2.1763,0.0,0.0,2.1786,2.1732,2.1679,2.1625,2.1534,2.1516,2.1421,0.0,0.0,0.0,0.0,0.0,0.0,0.0,0.0,0.0,0.0,0.0,0.0,0.0,0.0,0.0,0.0,0.0,0.0,0.0,0.0,0.0,0.0,0.0,0.0,0.0,0.0,0.0,0.0,0.0,0.0,0.0,0.0,0.0,0.0,0.0,0.0,0.0,0.0,0.0,0.0,0.0,0.0,0.0,0.0,0.0,0.0,0.0,0.0,0.0,0.0,0.0,0.0,2.9404,3.0251,3.0349,3.0559,3.0886,3.0696,3.0617,3.0599,2.9857,2.9313,0.0,0.0,0.0,0.0,0.0,0.0,0.0,0.0,0.0,0.0,0.0,0.0,0.0,0.0,0.0,0.0,0.0,0.0,0.0,0.0,0.0,0.0,0.0,0.0,0.0,0.0,0.0,0.0,2.0296,2.0399,2.0848,0.0,0.0,0.0,0.0,0.0,0.0,0.0,0.0,0.0,0.0,2.2411,2.2374,2.2392,2.2374,2.2355,2.2355,2.2336,2.228,2.2224,2.2167,2.2068,0.0,0.0,0.0,0.0,0.0,0.0,0.0,0.0,0.0,0.0,0.0,0.0,0.0,0.0,0.0,0.0,0.0,0.0,0.0,0.0,0.0,0.0,0.0,0.0,0.0,0.0,0.0,0.0,0.0,0.0,0.0,0.0,0.0,0.0,0.0,0.0,0.0,0.0,0.0,0.0,0.0,0.0,0.0,0.0,0.0,0.0,0.0,0.0,0.0,0.0,0.0,0.0,0.0,0.0,3.1069,3.1069,3.1517,3.2357,3.1689,3.1299,3.135,3.0586,2.9784,2.893,0.0,0.0,0.0,0.0,0.0,0.0,0.0,0.0,0.0,0.0,0.0,0.0,0.0,0.0,0.0,0.0,0.0,0.0,0.0,0.0,0.0,0.0,0.0,0.0,0.0,0.0,2.1885,2.176,2.1606,0.0,0.0,0.0,0.0,0.0,0.0,0.0,0.0,0.0,0.0,2.3446,2.3955,2.3923,2.3939,2.3862,2.3824,2.3806,2.3803,2.3717,2.372,2.3696,0.0,0.0,0.0,0.0,0.0,0.0,0.0,0.0,0.0,0.0,0.0,0.0,0.0,0.0,0.0,0.0,0.0,0.0,0.0,0.0,0.0,0.0,0.0,0.0,0.0,0.0,0.0,2.7132,2.6654,0.0,0.0,0.0,0.0,0.0,0.0,0.0,0.0,0.0,0.0,0.0,3.0155,3.0442,0.0,0.0,0.0,0.0,0.0,0.0,0.0,0.0,0.0,0.0,0.0,0.0,3.1388,3.1673,3.1807,3.2015,3.2353,3.2087,3.1741,3.1276,3.0991,3.0212,2.8825,0.0,0.0,0.0,0.0,0.0,0.0,0.0,0.0,0.0,0.0,0.0,0.0,0.0,0.0,0.0,0.0,0.0,0.0,0.0,0.0,0.0,0.0,0.0,0.0,0.0,2.1937,0.0,0.0,0.0,0.0,0.0,0.0,0.0,0.0,0.0,0.0,0.0,2.341,2.3389,2.3623,2.3804,2.3789,2.3807,2.3786,0.0,0.0,0.0,0.0,0.0,0.0,0.0,0.0,0.0,0.0,0.0,0.0,0.0,0.0,2.1824,2.1798,2.1746,2.1684,2.1603,0.0,0.0,0.0,0.0,0.0,0.0,0.0,0.0,0.0,0.0,0.0,0.0,0.0,0.0,0.0,0.0,2.8122,0.0,0.0,0.0,0.0,0.0,0.0,0.0,0.0,3.0414,3.0706,3.1198,3.1269,3.1276,0.0,3.1627,3.1568,0.0,0.0,0.0,0.0,0.0,0.0,0.0,0.0,3.2067,3.2387,3.2472,3.2705,3.3029,3.2806,3.2411,3.1939,3.1391,3.0598,2.9502,2.92,2.8652,0.0,0.0,0.0,0.0,0.0,0.0,0.0,0.0,0.0,0.0,0.0,0.0,0.0,0.0,0.0,0.0,0.0,0.0,0.0,0.0,0.0,0.0,0.0,2.2666,0.0,0.0,0.0,0.0,0.0,0.0,0.0,0.0,0.0,2.2967,2.3526,2.4006,2.4006,2.4257,2.4436,2.4436,0.0,0.0,0.0,0.0,0.0,0.0,0.0,2.4094,2.3992,2.3904,2.3776,2.3649,2.3505,2.335,2.3221,0.0,0.0,2.2535,2.2626,2.2711,2.2608,2.271,2.2805,2.2725,2.2573,2.2467,0.0,0.0,0.0,0.0,0.0,0.0,0.0,0.0,3.117,3.1125,0.0,3.1063,0.0,0.0,0.0,0.0,0.0,0.0,0.0,0.0,3.1227,3.1245,3.1336,3.1354,3.1318,3.1399,3.2192,3.2538,3.2511,3.204,0.0,0.0,0.0,0.0,0.0,0.0,3.2284,3.3115,3.3179,3.362,3.4398,3.3705,3.3315,3.3229,3.1747,3.094,3.0902,3.0133,2.9326,2.8519,2.8444,0.0,0.0,0.0,0.0,0.0,0.0,0.0,0.0,0.0,0.0,0.0,0.0,0.0,0.0,0.0,0.0,0.0,0.0,0.0,0.0,2.4302,0.0,0.0,0.0,0.0,0.0,0.0,0.0,0.0,0.0,0.0,2.3732,2.4177,2.4635,2.4635,0.0,0.0,0.0,0.0,2.5743,2.5674,2.5683,2.5622,2.5491,2.544,2.5401,2.5267,0.0,0.0,2.4816,2.4709,2.4581,2.4509,2.4411,2.4039,2.2637,2.2958,2.3351,2.3154,2.3533,2.3934,2.3951,2.3654,2.3537,3.4236,0.0,0.0,0.0,0.0,3.125,3.1224,3.1224,3.1164,3.1137,3.1111,3.103,0.0,0.0,0.0,0.0,0.0,0.0,3.1189,3.1758,3.1758,3.2401,3.3544,3.3604,3.3953,3.4545,3.4841,3.4962,3.4962,3.483,3.4229,3.318,0.0,0.0,0.0,0.0,3.3475,3.3722,3.3814,3.3974,3.4221,3.4022,3.3655,3.3119,3.2076,3.1555,3.1555,3.0735,3.0155,2.9895,2.9357,0.0,0.0,0.0,0.0,0.0,0.0,0.0,0.0,0.0,0.0,0.0,0.0,0.0,0.0,0.0,0.0,0.0,0.0,0.0,2.4921,2.485,2.494,0.0,0.0,0.0,0.0,0.0,0.0,0.0,0.0,0.0,2.4795,2.5042,2.5252,0.0,0.0,2.5517,2.5517,2.5517,2.5517,2.549,0.0,0.0,0.0,2.5287,2.5197,2.5086,2.4907,2.473,2.463,2.4478,2.4385,2.4313,2.4229,2.4028,2.3679,2.371,2.3861,2.3782,2.3819,2.3819,2.3685,2.3549,2.3479,3.6373,3.5005,3.3753,3.3168,3.3103,3.3075,3.2956,3.2754,3.2842,3.2766,3.2582,3.2667,3.2727,3.2727,3.2667,0.0,0.0,0.0,3.2937,3.3404,3.3386,3.3921,3.4871,3.4952,3.5218,3.5734,3.5783,3.5797,3.5797,3.5815,3.5369,3.4543,0.0,0.0,3.4789,3.4816,3.4843,3.4825,3.4592,3.4452,3.4452,3.419,3.3802,3.3321,3.2545,3.212,3.2101,3.1325,3.0882,3.084,3.0087,2.9422,0.0,0.0,0.0,0.0,0.0,0.0,0.0,0.0,0.0,0.0,0.0,2.5282,2.5281,0.0,0.0,0.0,2.5087,2.5168,2.5528,2.5452,0.0,0.0,0.0,0.0,0.0,0.0,0.0,2.5669,2.5843,2.5987,2.5987,2.6086,2.6061,2.584,2.6037,2.6196,2.6202,0.0,2.6104,2.6104,2.6075,2.6045,2.6016,2.5952,2.5816,2.5709,2.5518,2.5362,2.5306,2.5178,2.508,2.4995,2.4928,2.4811,2.4709,2.4674,2.4559,2.4312,2.439,2.4446,2.4272,2.4144,2.4051,3.8295,3.7326,3.6612,3.6188,3.5951,3.5908,3.5548,3.5115,3.5407,3.5343,3.496,3.5331,3.5475,3.5475,3.5475,0.0,3.5442,3.5442,3.5406,3.5442,3.5493,3.5511,3.5582,3.5565,3.5652,3.5705,3.5705,3.5705,3.5723,3.5723,3.572,3.5768,3.6009,3.6097,3.597,3.6024,3.6072,3.6054,3.541,3.5054,3.5054,3.4266,3.3853,3.3853,3.3075,3.2653,3.2635,3.1884,3.1462,3.1444,3.0693,3.0277,3.0259,0.0,0.0,0.0,0.0,0.0,0.0,0.0,0.0,0.0,0.0,0.0,0.0,0.0,0.0,0.0,2.6354,0.0,2.6171,2.6099,0.0,0.0,0.0,2.5649,2.555,2.5953,2.6286,2.6256,0.0,0.0,2.7235,0.0,2.7037,2.6493,2.6961,2.7376,2.7351,2.7181,2.7198,2.7063,2.7132,2.71,2.6948,2.6914,2.6819,2.6589,2.6621,2.6453,2.6364,2.6243,2.6208,2.6068,2.6026,2.5868,2.5684,2.5524,2.5368,2.4713,2.5065,2.5476,2.5281,2.5112,2.4941,3.9997,3.9659,3.9461,3.7943,3.5702,3.5652,3.5371,3.4954,3.5346,3.5648,3.5846,3.5549,3.5359,3.5205,3.51,3.503,3.5065,3.5065,3.5048,3.5065,3.5153,3.5543,3.6183,3.6288,3.668,3.7306,3.7341,3.7324,3.7324,3.7341,3.7324,3.7376,3.7444,3.688,3.5833,3.5792,3.5792,3.5792,3.5641,3.5532,3.5514,3.4752,3.4316,3.4334,3.3619,3.3219,3.3172,3.2456,3.2038,3.2001,3.1229,3.0793,3.0812,3.063,0.0,0.0,0.0,0.0,0.0,0.0,0.0,0.0,0.0,2.6362,2.6362,0.0,2.6293,0.0,2.6152,2.6242,2.6649,2.6659,0.0,0.0,2.7099,2.6969,2.6801,2.6851,2.686,2.6798,2.7333,2.7709,2.7743,2.8169,2.8202,2.7558,2.7235,2.7087,2.7027,2.6976,2.6942,2.6825,2.6825,2.6825,2.6808,2.6742,2.6673,2.6455,2.6355,2.6256,2.6122,2.5967,2.5848,2.5828,2.568,2.553,2.5394,2.5317,2.5114,2.4823,2.4996,2.5201,2.5123,2.4966,2.4806,4.0854,4.0474,4.0365,3.9265,3.7611,3.7413,3.6896,3.6221,3.6433,3.6594,3.6666,3.6364,3.6185,3.6077,3.5969,3.5969,3.5969,3.5969,3.5969,3.5987,3.6023,3.6327,3.6789,3.688,3.7148,3.7649,3.7649,3.7631,3.7631,3.7649,3.7649,3.7649,3.7649,3.722,3.6432,3.6566,3.6684,3.6666,3.6324,3.5981,3.562,3.5105,3.4853,3.4853,3.4083,3.3638,3.3687,3.2931,3.2499,3.2481,3.1732,3.1337,3.1319,3.0977,3.06,0.0,0.0,0.0,0.0,0.0,0.0,0.0,0.0,0.0,0.0,0.0,2.7211,2.7476,2.7406,2.7591,2.8211,2.8164,2.822,2.8543,2.8424,2.823,2.8115,2.7981,2.7879,2.7792,2.8043,2.8207,2.8188,2.848,2.8535,2.8081,2.7754,2.7397,2.6894,2.6742,2.6674,2.6538,2.6521,2.6621,2.6889,2.715,2.7271,2.7168,2.6989,2.682,2.6428,2.62,2.594,2.561,2.5378,2.5185,2.5045,2.495,2.4854,2.4937,2.4958,2.4957,2.4789,2.4605,2.4426,4.1377,4.0652,4.0524,4.041,4.0331,4.0012,3.9218,3.8153,3.818,3.7962,3.7591,3.7595,3.7577,3.7577,3.7559,3.7559,3.7559,3.7559,3.7559,3.7559,3.7559,3.7598,3.7598,3.7615,3.7598,3.7598,3.7598,3.7598,3.7598,3.7598,3.7598,3.7598,3.7598,3.7598,3.7598,3.7952,3.8026,3.7828,3.7146,3.6446,3.5747,3.5502,3.5415,3.5379,3.4563,3.4102,3.4102,3.3479,3.3069,3.2962,3.2307,3.188,3.1773,3.1133,3.0676,0.0,3.0569,0.0,0.0,0.0,0.0,0.0,0.0,0.0,0.0,2.8506,2.8625,2.9127,2.9084,2.9316,2.9869,2.9741,2.9624,2.959,2.9403,2.9211,2.9138,2.8994,2.8848,2.879,2.8691,2.8643,2.8605,2.8622,2.8638,2.8445,2.8359,2.7958,2.7005,2.6797,2.6764,2.6543,2.649,2.6783,2.7222,2.7756,2.8056,2.805,2.7809,2.7542,2.6942,2.6663,2.627,2.5664,2.5449,2.5186,2.4854,2.4803,2.4879,2.5087,2.5001,2.4923,2.4783,2.456,2.4234,4.2304,4.2095,4.198,4.1841,4.1718,4.1766,4.0907,3.9562,3.9846,3.966,3.9168,3.9111,3.9088,3.9088,3.8948,3.8925,3.8907,3.8925,3.8907,3.8907,3.9047,3.9088,3.907,3.9151,3.9173,3.9173,3.9173,3.9173,3.9173,3.9173,3.9173,3.9173,3.9173,3.9173,3.9173,0.0,0.0,0.0,3.7268,3.7126,3.6948,3.629,3.5935,3.5899,3.5101,0.0,3.4623,3.4393,3.4005,3.3442,3.3231,0.0,0.0,0.0,0.0,0.0,0.0,0.0,0.0,0.0,0.0,0.0,2.953,2.9484,2.9753,2.9624,2.9508,2.9506,2.9487,2.9469,2.9438,2.9368,2.9263,2.9158,2.9013,2.8901,2.8884,2.8716,2.8586,2.8565,2.8853,2.9081,2.9074,2.951,2.9583,2.8887,2.8774,2.8442,2.7637,2.7692,2.7811,2.7679,2.7519,2.7539,2.7662,2.7778,2.7867,2.7623,2.7524,2.7368,2.7147,2.683,2.6616,2.6279,2.6196,2.5947,2.568,2.5681,2.55,2.5282,2.5186,2.5203,2.5424,2.5242,2.5044,4.3573,0.0,4.3319,4.302,0.0,4.2273,4.169,4.0949,4.1014,4.0471,3.947,3.9329,3.9263,3.9203,3.9118,3.9118,3.9093,3.9118,3.9136,3.9118,3.9161,3.9203,3.9203,3.9228,3.9287,3.9228,3.9269,3.9269,3.9269,3.9228,3.9228,3.9228,3.9269,3.9269,3.9269,3.9269,3.8749,3.7803,3.7803,3.7588,3.7143,3.6679,3.6429,3.6412,0.0,0.0,0.0,0.0,0.0,0.0,0.0,0.0,0.0,0.0,0.0,3.2054,3.1636,3.1167,3.075,3.0593,3.0521,3.0503,3.0358,3.0125,2.9737,2.9589,2.9643,2.9892,2.9836,2.9911,3.0214,3.0099,2.9985,2.9892,2.9755,2.9615,2.9576,2.9513,2.9393,2.9369,2.9486,2.9573,2.9531,2.9727,2.9745,2.9299,2.9162,2.8916,2.8558,2.8146,2.7883,2.7802,2.7987,2.8082,2.803,2.8308,2.8414,2.8283,2.8136,2.786,2.7532,2.7098,2.6718,2.6381,2.6062,2.5817,2.5615,2.5506,2.5375,2.5331,2.5299,2.5379,2.5654,2.5319,2.4922,4.4581,4.4537,4.4351,4.3872,4.3218,4.2306,4.2096,4.2229,0.0,0.0,0.0,3.952,3.9417,3.9303,3.9286,3.9286,3.9303,3.9286,3.9286,3.9286,3.9286,3.9286,3.9303,3.9286,3.9347,3.9303,3.9286,3.9329,3.9286,3.9303,3.9286,3.9286,3.9286,3.9329,3.9286,3.9286,3.905,3.8585,3.845,3.8081,3.7369,3.7091,3.694,3.694,3.607,3.563,3.563,3.4881,3.4421,3.4283,3.4146,3.4037,3.3865,3.3282,3.2956,3.2921,3.2239,3.1803,3.182,3.1647,3.1568,3.1529,3.1268,3.0683,2.9627,2.952,2.9677,3.0202,3.0135,3.0342,3.1004,3.0878,3.0723,3.0683,3.0551,3.0384,3.0316,3.0274,3.014,3.0103,2.9941,2.9886,2.9733,2.9632,2.9599,2.9406,2.9248,2.9218,2.9107,2.8503,2.803,2.7977,2.8275,2.8475,2.8421,2.8693,2.909,2.8826,2.867,2.8388,2.7782,2.7362,2.6864,2.6234,2.5863,2.5667,2.5409,2.5305,2.5113,2.5308,2.5303,2.5367,2.56,2.5159,2.4688,4.4441,4.4306,4.417,4.4054,4.3832,4.23,4.2293,4.3166,4.1845,4.1119,4.0924,4.0941,4.0878,4.0878,4.0878,4.0878,4.0896,4.0896,4.0878,0.0,4.0896,4.0878,4.0878,4.0878,4.0878,4.0878,4.0861,4.0878,4.0878,4.0878,4.0878,4.0861,4.0878,4.0861,4.0896,4.0878,4.0422,3.9541,3.906,3.8763,3.8616,3.7887,3.7498,3.7446,3.6619,3.6096,3.6079,3.5762,3.5248,3.4653,3.4516,3.4126,3.3465,3.328,3.3128,3.3144,3.2959,3.273,3.2653,3.2627,3.2557,3.2453,3.1878,3.1266,3.0666,3.051,3.0508,3.0441,3.0402,3.0452,3.0526,3.0485,3.0401,3.03,3.013,3.006,3.006,2.9902,2.9814,2.9786,2.9637,2.9563,2.9531,2.9451,2.9313,2.9136,2.903,2.8872,2.8732,2.8856,2.8898,2.8883,2.8839,2.8763,2.8623,2.8654,2.8605,2.8365,2.822,2.7913,2.7534,2.7255,2.6923,2.6652,2.6315,2.6136,2.593,2.5856,2.5556,2.5383,2.5204,2.5204,2.5174,2.4886,2.4777,4.5499,4.5405,4.5233,4.4892,4.4453,4.3158,4.3336,4.4422,4.379,4.3032,4.2332,4.1933,4.1695,4.1596,4.1215,4.1041,4.1059,4.1041,4.1041,4.1041,4.1059,4.1041,4.1041,4.1041,4.1041,4.1041,4.1041,4.1059,4.1059,4.0965,4.0918,4.0901,4.0853,4.0836,4.0836,4.0789,4.0569,4.013,3.9623,3.9064,3.8532,3.8143,3.7927,3.7909,3.7055,3.659,3.659,3.5932,3.5425,3.5032,3.4908,3.4605,3.4163,3.3689,3.3445,3.3366,3.2838,3.2488,3.2409,3.2348,3.2318,3.2272,3.187,3.1565,3.1305,3.0766,3.034,3.0141,3.0125,3.0113,3.0087,3.006,2.9989,2.9946,2.9814,2.9726,2.9726,2.9592,2.9502,2.9441,2.9305,2.9152,2.9167,2.9041,2.8917,2.8811,2.8652,2.846,2.8201,2.8268,2.8462,2.8684,2.8605,2.8448,2.8321,2.8158,2.7947,2.7773,2.7485,2.7276,2.7071,2.6841,2.6539,2.6312,2.6082,2.5851,2.5605,2.5453,2.5216,2.4964,2.4794,2.4637,2.4536,2.4319,2.4319,4.635,4.6301,4.6073,4.5658,4.5033,4.4257,4.4466,4.5264,4.5281,4.4661,4.3646,4.278,4.2299,4.2083,4.1533,4.1292,4.1292,4.1292,4.1292,4.1274,4.1274,4.1274,4.1292,4.1292,4.1292,4.1274,4.1292,4.1292,4.1292,4.1194,4.106,4.0906,4.062,4.0485,4.0485,4.0485,4.0436,4.0402,3.9983,3.9401,3.8713,3.8478,3.8376,3.8278,3.7441,3.6975,3.6941,3.6034,3.5462,3.5385,3.5077,3.4851,3.4706,3.4069,3.3645,3.3548,3.2853,3.2417,3.2369,3.2305,3.2225,3.2176,3.1999,3.1774,3.1693,3.0898,3.0348,3.022,3.0248,3.0209,3.0242,3.0151,3.0012,3.0012,2.989,2.9924,2.9814,2.9705,2.9626,2.958,2.9391,2.9327,2.917,2.8889,2.8623,2.8396,2.8152,2.794,2.774,2.764,2.774,2.7875,2.7974,2.7978,2.7856,2.7555,2.7289,2.719,2.6799,2.6549,2.6365,2.6111,2.5784,2.5605,2.5356,2.5133,2.4991,2.4778,2.4549,2.4363,2.4176,2.406,2.3897,2.3675,2.3616,4.6137,4.6023,4.5889,4.5804,4.5667,4.5321,4.513,4.5024,4.4934,4.4844,4.4658,4.3443,4.2791,4.2655,4.2569,4.2484,4.2484,4.2501,4.2518,4.2501,4.2501,4.2552,4.2484,4.2518,4.2501,4.2518,4.2484,4.2433,4.2433,4.2433,4.2159,4.151,4.0827,4.0485,4.0485,4.0387,4.0238,4.0121,3.9969,3.9952,4.0067,3.934,3.8886,3.8754,3.7735,3.7186,3.7169,3.6274,3.5696,3.5547,3.4824,3.4316,3.4217,3.3986,3.3802,3.3668,3.3467,3.3312,3.3192,3.3156,3.3092,3.3108,3.2523,3.2084,3.1977,3.1373,3.1063,3.1272,3.1275,3.1133,3.1245,3.1036,3.0828,3.078,3.0761,3.0885,3.0741,3.0736,3.0651,3.0483,3.0262,3.0351,2.9971,2.933,2.8581,2.8,2.7712,2.7505,2.7321,2.7159,2.6989,2.6893,2.71,2.7348,2.7229,2.6983,2.6649,2.6442,2.6158,2.5879,2.5592,2.53,2.4991,2.4751,2.4523,2.4408,2.4247,2.4099,2.3936,2.3734,2.3556,2.339,2.3271,2.309,2.309,4.6023,4.5871,4.5718,4.5632,4.5544,4.5333,4.5072,4.4793,4.4807,4.4838,4.4818,4.4258,4.3763,4.3389,4.2928,4.2723,4.2723,4.2723,4.2723,4.2723,4.2723,4.2723,4.2723,4.2723,4.2723,4.2723,4.2723,4.2723,4.2671,4.2532,4.2053,4.1306,4.0882,4.0476,4.0071,3.9986,3.9884,3.9746,3.9694,3.9642,3.954,3.9393,3.9259,3.9124,3.8199,3.7579,3.7409,3.6645,3.601,3.5699,3.532,3.484,3.4245,3.407,3.3826,3.3409,3.3203,3.3081,3.2904,3.2888,3.2834,3.2796,3.2477,3.2284,3.2222,3.1982,3.188,3.1955,3.1455,3.1055,3.1071,3.0892,3.0842,3.0791,3.069,3.0603,3.0587,3.0464,3.0345,3.0225,3.0121,3.0046,2.9811,2.9313,2.8778,2.8203,2.7788,2.7355,2.7219,2.6784,2.6354,2.6096,2.619,2.6289,2.6356,2.614,2.5849,2.5591,2.5273,2.4948,2.4811,2.4487,2.4234,2.4015,2.3852,2.3675,2.3556,2.3378,2.3271,2.309,2.2848,2.2678,2.2604,2.242,2.242,4.6325,4.6031,4.5667,4.5405,4.5297,4.5118,4.4872,4.4647,4.4661,4.4691,4.4665,4.4609,4.4376,4.3943,4.3365,4.3127,4.3073,4.3073,4.3073,4.3073,4.3073,4.3073,4.3073,4.3073,4.3073,4.3073,4.3107,4.309,4.3039,4.2692,4.2176,4.158,4.1184,4.0662,4.001,3.9874,3.9668,3.9395,3.9309,3.9131,3.8969,3.8985,3.9148,3.9152,3.8405,3.7894,3.7769,3.6902,3.6258,3.584,3.5594,3.515,3.4431,3.4232,3.3973,3.3434,3.3106,3.2872,3.2715,3.249,3.2327,3.2216,3.216,3.216,3.2176,3.216,3.216,3.2069,3.1467,3.105,3.1192,3.1072,3.0951,3.0898,3.0777,3.0655,3.067,3.0548,3.0446,3.0223,3.0248,2.9858,2.9463,2.9151,2.8856,2.8278,2.774,2.7371,2.7159,2.668,2.6176,2.5687,2.5463,2.5397,2.5546,2.537,2.5063,2.4751,2.4478,2.4255,2.4038,2.3777,2.3458,2.3305,2.321,2.3042,2.2909,2.2787,2.2592,2.2408,2.2161,2.1937,2.1925,2.18,2.1675,4.7417,4.6636,4.5681,4.5209,4.4995,4.4865,4.4742,4.455,4.4412,4.4293,4.431,4.4212,4.4138,4.4054,4.4091,4.4118,4.4004,4.3937,4.3977,4.3961,4.3954,4.4021,4.4071,4.4071,4.4004,4.391,4.3893,4.3961,4.3887,4.3317,4.2981,4.2791,4.1988,4.1194,4.0579,4.0211,3.9732,3.9117,3.8766,3.8639,3.8567,3.823,3.823,3.8495,3.8294,3.8003,3.7783,3.7068,3.6473,3.6158,3.5373,3.4794,3.4574,3.4457,3.4219,3.404,3.3404,3.3011,3.2862,3.2246,3.1784,3.1769,3.1625,3.1537,3.1537,3.1537,3.1552,3.1522,3.1387,3.1498,3.1835,3.1703,3.1667,3.1554,3.1558,3.1471,3.1387,3.1195,3.126,3.0968,3.0705,3.0192,2.9304,2.9113,2.8675,2.8051,2.7583,2.7325,2.712,2.684,2.6242,2.5595,2.5157,2.4926,2.4956,2.4724,2.4408,2.4086,2.3772,2.3548,2.3324,2.3058,2.2837,2.2592,2.2408,2.2297,2.2247,2.2185,2.1987,2.1788,2.1463,2.1273,2.1221,2.1221,2.1158,4.7672,4.7193,4.6606,4.5784,4.4902,4.5094,4.4868,4.4356,4.4219,4.4155,4.4155,4.4097,4.4039,4.3956,4.3848,4.3964,4.4097,4.4097,4.4097,4.4097,4.4097,4.4097,4.4097,4.4097,4.4097,4.4097,4.4097,4.4039,4.3873,4.3448,4.3024,4.2535,4.208,4.1453,4.0697,4.0132,3.9601,3.9097,3.8488,3.8116,3.8033,3.7669,3.7476,3.7504,3.7637,3.7519,3.7251,3.6971,3.6622,3.623,3.5845,3.5401,3.4729,3.4076,3.3728,3.3653,3.3396,3.3201,3.3051,3.2437,3.1976,3.1886,3.1324,3.1058,3.1043,3.0984,3.0925,3.0925,3.0911,3.1043,3.1161,3.1394,3.1452,3.1263,3.1161,3.1102,3.0911,3.0792,3.0673,3.0433,3.0162,2.9671,2.9252,2.896,2.8683,2.8115,2.7628,2.7185,2.6823,2.636,2.5746,2.5239,2.4898,2.4594,2.3974,2.3914,2.3688,2.3321,2.2983,2.2849,2.2641,2.2308,2.2037,2.1963,2.1726,2.1537,2.1537,2.1285,2.1158,2.1019,2.0688,2.056,2.0506,2.0506,2.0506,4.7911,4.7615,4.7163,4.6387,4.5645,4.5656,4.5463,4.5043,4.4817,4.4682,4.459,4.4406,4.4171,4.3943,4.3608,4.3552,4.3772,4.3772,4.3789,4.3789,4.3789,4.3789,4.3789,4.3789,4.3789,4.3772,4.3789,4.373,4.3595,4.3372,4.2988,4.2485,4.2272,4.1699,4.0853,4.0307,3.9741,3.899,3.83,3.7789,3.748,3.7074,3.6815,3.6677,3.6799,3.6784,3.6662,3.6616,3.643,3.607,3.5958,3.5507,3.4722,3.4114,3.3813,3.3735,3.3528,3.3347,3.321,3.2617,3.2156,3.2079,3.134,3.0826,3.0812,3.0517,3.0341,3.028,3.028,3.0266,3.0326,3.0568,3.0732,3.0673,3.0628,3.0507,3.028,3.0068,2.987,2.956,2.9247,2.8919,2.8726,2.8511,2.821,2.7958,2.738,2.6909,2.653,2.6036,2.5393,2.4888,2.4575,2.4067,2.3535,2.3223,2.2911,2.2553,2.2418,2.2207,2.1957,2.1596,2.1348,2.1273,2.1146,2.0892,2.0711,2.0442,2.0313,2.0237,1.9987,1.9791,1.9791,1.9781,1.9781,4.8319,4.8005,4.7115,4.6929,4.6954,4.6468,4.6441,4.6407,4.6041,4.569,4.5404,4.4834,4.4397,4.4158,4.3637,4.3244,4.3309,4.3359,4.3354,4.3289,4.3338,4.3354,4.3387,4.342,4.342,4.3326,4.3178,4.3162,4.3211,4.2994,4.2805,4.2743,4.2395,4.1788,4.0975,4.0689,3.9975,3.8825,3.8247,3.767,3.6954,3.6553,3.6239,3.6082,3.591,3.5879,3.6133,3.6022,3.5894,3.5638,3.5394,3.5082,3.4691,3.4537,3.4543,3.4167,3.3761,3.3456,3.3289,3.2652,3.2241,3.2091,3.1475,3.0913,3.0779,3.0247,2.9797,2.9701,2.9645,2.9602,2.9602,2.9602,2.9761,3.0007,3.0068,2.996,2.9651,2.9387,2.9107,2.8597,2.8338,2.8128,2.7864,2.7617,2.7387,2.7135,2.6833,2.6506,2.6208,2.5778,2.5428,2.4687,2.4232,2.3767,2.312,2.2514,2.2182,2.1824,2.1771,2.1701,2.1342,2.1009,2.0722,2.056,2.0366,2.0107,1.9922,1.9726,1.9518,1.9386,1.9198,1.9075,1.9065,1.9065,1.9065,4.8785,4.869,4.8147,4.767,4.729,4.6862,4.6487,4.6105,4.5706,4.5516,4.5403,4.4998,4.4772,4.4658,4.4253,4.4075,4.4026,4.3945,4.3832,4.3951,4.4327,4.4524,4.4524,4.4413,4.4365,4.4139,4.3573,4.3282,4.3185,4.2575,4.2222,4.2141,4.1996,4.1625,4.116,4.0588,3.9859,3.9352,3.8546,3.7931,3.7541,3.6869,3.6396,3.6058,3.5487,3.5198,3.5133,3.5329,3.5279,3.4986,3.4883,3.4698,3.4346,3.421,3.4088,3.3854,3.3642,3.3485,3.3249,3.2713,3.2277,3.2111,3.1513,3.1058,3.0762,3.0117,2.9642,2.9429,2.9155,2.8908,2.8908,2.8766,2.8881,2.9338,2.9387,2.9198,2.8739,2.8417,2.8078,2.7683,2.7497,2.7339,2.7076,2.6832,2.6515,2.6321,2.5947,2.5644,2.5322,2.5087,2.4802,2.4174,2.3818,2.3372,2.2677,2.2149,2.1739,2.1474,2.1319,2.1282,2.0919,2.0413,2.0129,1.9791,1.9518,1.932,1.9142,1.8998,1.8787,1.8664,1.8472,1.8405,1.8337,1.8337,1.8327,4.8753,4.869,4.8436,4.7994,4.7498,4.724,4.6815,4.6355,4.611,4.5913,4.5748,4.5356,4.5176,4.4978,4.4552,4.4289,4.4253,4.4341,4.4381,4.4365,4.4659,4.4919,4.4869,4.4787,4.4573,4.4359,4.384,4.3421,4.3083,4.242,4.1939,4.1652,4.139,4.1189,4.0972,4.0417,3.992,3.9358,3.8606,3.8099,3.7594,3.6933,3.6401,3.5878,3.5224,3.4714,3.4404,3.4496,3.4549,3.4481,3.4346,3.4074,3.3716,3.3577,3.3437,3.3227,3.3157,3.3072,3.2804,3.2485,3.2207,3.2097,3.1502,3.0966,3.065,3.0065,2.947,2.9013,2.8665,2.8358,2.8092,2.7973,2.8026,2.817,2.843,2.8365,2.7894,2.751,2.7108,2.6769,2.6564,2.6382,2.6077,2.5864,2.562,2.5373,2.5052,2.4673,2.4313,2.4082,2.3728,2.3434,2.3084,2.2624,2.2093,2.1671,2.1376,2.1104,2.0885,2.0839,2.0679,1.9986,1.9474,1.9014,1.8731,1.8519,1.8337,1.8192,1.8046,1.7862,1.7725,1.7657,1.7588,1.7588,1.7588,4.8339,4.8163,4.8001,4.7836,4.7655,4.7471,4.7204,4.7101,4.7001,4.6747,4.6341,4.5789,4.5495,4.5128,4.4522,4.4161,4.4066,4.4496,4.4749,4.4684,4.4538,4.4505,4.4521,4.4521,4.4469,4.4183,4.4008,4.3474,4.2911,4.2375,4.1962,4.1377,4.0982,4.0662,4.0439,4.027,3.9671,3.8967,3.8552,3.8027,3.7327,3.6799,3.6254,3.5575,3.5093,3.4566,3.3902,3.3648,3.373,3.3922,3.373,3.3368,3.3058,3.2988,3.2775,3.2503,3.2345,3.2273,3.2128,3.2001,3.1974,3.192,3.1299,3.0802,3.0578,2.99,2.9188,2.8573,2.83,2.7919,2.7382,2.7121,2.6973,2.6769,2.7229,2.7377,2.6973,2.6552,2.6208,2.5943,2.5664,2.538,2.5105,2.4791,2.4669,2.4434,2.4116,2.3711,2.3537,2.3224,2.2777,2.2478,2.2176,2.1735,2.1192,2.0943,2.0645,2.042,2.0286,2.0285,2.0206,1.9535,1.8735,1.8291,1.7998,1.7725,1.752,1.7373,1.7235,1.6959,1.6899,1.6839,1.6839,1.6839,1.6857,4.8049,4.7836,4.7521,4.7386,4.7302,4.703,4.6823,4.6738,4.6474,4.6333,4.6127,4.573,4.5444,4.5372,4.5013,4.4877,4.4862,4.4945,4.507,4.5055,4.4987,4.5022,4.5151,4.5119,4.5032,4.4752,4.4282,4.3825,4.336,4.2302,4.1588,4.1217,4.053,4.0121,3.9895,3.9681,3.9406,3.9011,3.8604,3.8311,3.7857,3.7215,3.6648,3.6037,3.4965,3.424,3.3786,3.3096,3.2917,3.3199,3.2931,3.2704,3.2561,3.2417,3.22,3.2009,3.185,3.1703,3.1482,3.1334,3.1272,3.1259,3.0852,3.0624,3.0501,2.9761,2.918,2.8629,2.7952,2.718,2.6897,2.6362,2.591,2.5581,2.6,2.6302,2.6013,2.5639,2.5264,2.5051,2.4898,2.459,2.4236,2.3982,2.3796,2.3549,2.3152,2.2754,2.2531,2.2218,2.1783,2.1502,2.1185,2.0789,2.0382,2.0138,1.9885,1.97,1.9657,1.9707,1.9471,1.901,1.8142,1.7417,1.7263,1.7028,1.6821,1.6612,1.6333,1.6193,1.6123,1.6053,1.6132,1.614,1.6122,4.7504,4.7218,4.703,4.6892,4.6684,4.6458,4.6349,4.6239,4.5992,4.5744,4.5599,4.5395,4.5247,4.5247,4.4949,4.483,4.483,4.4754,4.4663,4.4678,4.4632,4.4843,4.5142,4.5173,4.5024,4.4783,4.4397,4.3908,4.3343,4.226,4.1519,4.0918,4.0172,3.964,3.9466,3.9177,3.8958,3.8708,3.8427,3.8127,3.7782,3.7268,3.6684,3.6043,3.4845,3.3924,3.3019,3.2318,3.2141,3.2359,3.2214,3.2055,3.1909,3.1776,3.1556,3.1286,3.111,3.096,3.0722,3.0495,3.0419,3.0266,3.0101,2.9883,2.9679,2.9185,2.8768,2.8133,2.7323,2.6664,2.6094,2.5409,2.479,2.4527,2.4671,2.4886,2.5111,2.4731,2.4409,2.423,2.4013,2.3688,2.3334,2.3194,2.2896,2.2562,2.2164,2.1863,2.1548,2.1101,2.0742,2.0518,2.0167,1.9775,1.9529,1.9283,1.9045,1.8798,1.878,1.89,1.8733,1.8313,1.7642,1.6929,1.6643,1.6351,1.6096,1.5885,1.57,1.5559,1.5409,1.5358,1.5433,1.5499,1.5524,4.6892,4.6528,4.6512,4.6317,4.6048,4.5992,4.5911,4.5772,4.5457,4.5231,4.4993,4.4858,4.4799,4.4799,4.4435,4.4281,4.4205,4.4112,4.3972,4.3972,4.3972,4.4127,4.448,4.4572,4.4511,4.4343,4.4281,4.3792,4.3122,4.2364,4.1519,4.0724,3.9903,3.9281,3.8988,3.8649,3.8352,3.8127,3.7886,3.7582,3.7211,3.6894,3.6437,3.5759,3.4615,3.3192,3.2003,3.1334,3.1347,3.1656,3.1556,3.1408,3.1198,3.0973,3.0672,3.0355,3.0279,3.0126,2.9716,2.9639,2.9484,2.9328,2.9118,2.8895,2.87,2.8402,2.8088,2.7427,2.6777,2.5901,2.4957,2.4186,2.3785,2.3508,2.3287,2.3508,2.3875,2.374,2.3457,2.3446,2.3065,2.2733,2.2371,2.2189,2.2077,2.1558,2.1235,2.0944,2.0547,2.0196,1.9822,1.9548,1.9213,1.8825,1.8576,1.8327,1.8158,1.7917,1.7853,1.7912,1.7804,1.7517,1.6992,1.6507,1.6152,1.5812,1.5505,1.5328,1.5056,1.4897,1.4824,1.4828,1.4887,1.4958,1.5005,4.6388,4.6191,4.5832,4.5672,4.5614,4.5321,4.5266,4.5422,4.48,4.4603,4.4588,4.4312,4.4205,4.4205,4.405,4.3972,4.3801,4.363,4.363,4.3409,4.325,4.3235,4.3551,4.3801,4.405,4.3972,4.3801,4.3554,4.3112,4.2294,4.1558,4.0736,3.9799,3.9073,3.841,3.8127,3.7825,3.7519,3.7289,3.6964,3.6559,3.6336,3.5908,3.5289,3.4043,3.2434,3.107,3.0583,3.0419,3.033,3.0419,3.0495,3.0508,3.019,2.9871,2.9651,2.9431,2.9275,2.904,2.8791,2.8645,2.8395,2.8223,2.7983,2.7742,2.7592,2.7302,2.6875,2.6063,2.4878,2.3555,2.3088,2.2777,2.2467,2.2231,2.2069,2.2166,2.2467,2.2542,2.2381,2.209,2.1731,2.1502,2.1288,2.1003,2.0596,2.0244,2.002,1.9618,1.9161,1.8913,1.8656,1.8256,1.7942,1.7691,1.7432,1.7172,1.7009,1.7025,1.6944,1.6846,1.6763,1.6288,1.594,1.5525,1.5224,1.5046,1.466,1.4394,1.4273,1.4253,1.429,1.4362,1.4436,1.4576,4.5728,4.5541,4.5305,4.5098,4.4964,4.4785,4.4771,4.4634,4.4297,4.3944,4.3758,4.3663,4.366,4.3472,4.3409,4.3344,4.325,4.3155,4.309,4.301,4.293,4.285,4.2769,4.301,4.3265,4.3344,4.325,4.309,4.2687,4.2119,4.1204,4.0354,3.9557,3.8645,3.7911,3.7596,3.7275,3.6872,3.6652,3.6336,3.5937,3.5696,3.4821,3.4058,3.2947,3.1745,3.0022,2.9831,2.9586,2.9263,2.9172,2.9406,2.9664,2.9341,2.9028,2.87,2.8542,2.8303,2.8075,2.7914,2.7753,2.7429,2.7255,2.7021,2.6775,2.6528,2.6279,2.5926,2.4989,2.3727,2.2324,2.1939,2.1711,2.1548,2.1242,2.1011,2.0944,2.1328,2.1634,2.1471,2.1175,2.0906,2.0615,2.0342,1.9979,1.9571,1.9436,1.9134,1.8656,1.8273,1.8031,1.77,1.7375,1.7049,1.6804,1.6542,1.6257,1.6183,1.6108,1.6026,1.5927,1.5828,1.5648,1.5336,1.511,1.4812,1.4615,1.4208,1.3909,1.3849,1.3853,1.3846,1.3894,1.3912,1.4153,4.5173,4.4799,4.4799,4.4572,4.422,4.4419,4.4295,4.4001,4.3786,4.3322,4.2891,4.3066,4.309,4.2915,4.2673,4.2592,4.2526,4.2541,4.2459,4.2459,4.2377,4.2295,4.2213,4.2199,4.2281,4.243,4.2511,4.2444,4.2149,4.1593,4.0871,3.9909,3.9089,3.8296,3.7458,3.6929,3.6652,3.6243,3.5937,3.571,3.5223,3.495,3.3944,3.2423,3.1924,3.0821,2.9352,2.887,2.8724,2.8339,2.7834,2.8063,2.8395,2.8498,2.8087,2.7649,2.7568,2.7418,2.7092,2.7021,2.6775,2.6362,2.6279,2.6113,2.5706,2.5443,2.5189,2.4651,2.3846,2.2611,2.1403,2.0944,2.0702,2.0547,2.0167,1.9932,1.9775,2.0157,2.0313,2.0557,2.0157,1.9863,1.9636,1.9381,1.8967,1.8673,1.8531,1.8256,1.77,1.7302,1.7139,1.6886,1.6558,1.6108,1.5854,1.5643,1.5365,1.5199,1.5206,1.513,1.4956,1.4816,1.4745,1.4921,1.4691,1.4446,1.408,1.3705,1.3471,1.3523,1.338,1.3233,1.3284,1.3428,1.3559,4.4587,4.4358,4.4205,4.3972,4.3738,4.3841,4.3912,4.3908,4.3319,4.2945,4.2695,4.2592,4.2541,4.2444,4.2252,4.2005,4.1854,4.1785,4.1633,4.1633,4.1633,4.1633,4.1549,4.1353,4.1339,4.1423,4.159,4.1771,4.1673,4.1294,4.0587,3.991,3.8999,3.8042,3.7215,3.656,3.5951,3.5535,3.5304,3.4977,3.4564,3.4069,3.3059,3.1315,3.1013,3.0,2.8497,2.7983,2.781,2.7418,2.6928,2.6846,2.701,2.7174,2.7092,2.6846,2.6682,2.6528,2.6207,2.6052,2.5884,2.5538,2.5359,2.5105,2.468,2.4402,2.4145,2.3503,2.2587,2.1322,2.0096,1.9854,1.9618,1.9381,1.9143,1.8895,1.8656,1.8656,1.8816,1.9063,1.8975,1.8886,1.8656,1.8327,1.8031,1.7652,1.7465,1.7277,1.6796,1.6476,1.6237,1.5982,1.5726,1.5357,1.4982,1.4789,1.4552,1.4384,1.4314,1.4264,1.4088,1.3828,1.3782,1.3948,1.4007,1.3804,1.3487,1.3146,1.3017,1.2939,1.2763,1.249,1.2594,1.2698,1.2741,4.3957,4.3723,4.3566,4.3314,4.3185,4.3189,4.3293,4.316,4.2444,4.2082,4.2044,4.2005,4.1966,4.1883,4.1604,4.1339,4.1198,4.1128,4.1043,4.1043,4.1043,4.0944,4.0859,4.0659,4.0474,4.0388,4.0474,4.0731,4.0916,4.0659,4.0094,3.9325,3.8463,3.7523,3.6784,3.594,3.5358,3.4908,3.4564,3.423,3.381,3.33,3.2116,3.0895,3.0073,2.9225,2.7879,2.7172,2.6846,2.6351,2.603,2.5768,2.5684,2.56,2.5673,2.5768,2.5779,2.5611,2.5274,2.5115,2.4861,2.4519,2.4433,2.409,2.3627,2.3337,2.2872,2.2089,2.1323,2.0264,1.9363,1.895,1.8683,1.8345,1.8103,1.7942,1.761,1.7367,1.7375,1.7627,1.7781,1.7772,1.7674,1.735,1.7025,1.6706,1.646,1.6221,1.5891,1.5567,1.5325,1.5068,1.4803,1.4434,1.4156,1.3937,1.3646,1.3483,1.3398,1.3345,1.3266,1.2906,1.2887,1.2923,1.2903,1.2893,1.2989,1.2677,1.2541,1.229,1.2073,1.186,1.194,1.2009,1.2015,4.3329,4.3105,4.29,4.2673,4.2541,4.2635,4.2582,4.2301,4.154,4.1108,4.1124,4.1281,4.1283,4.1114,4.0845,4.0659,4.0516,4.043,4.0357,4.0357,4.0357,4.0257,4.0142,3.9954,3.9779,3.953,3.9339,3.9604,3.9954,3.9881,3.9371,3.8801,3.7903,3.7039,3.6276,3.5478,3.4813,3.4243,3.3713,3.3288,3.2859,3.2314,3.1372,2.9975,2.9386,2.8459,2.7075,2.6512,2.5884,2.5443,2.5031,2.4871,2.4605,2.4166,2.4166,2.4594,2.4765,2.4584,2.4327,2.3993,2.3831,2.357,2.3232,2.2872,2.2413,2.2003,2.1496,2.0491,1.9809,1.9245,1.8571,1.8,1.7669,1.7375,1.7131,1.6968,1.664,1.6394,1.6064,1.6312,1.6566,1.664,1.6453,1.625,1.5913,1.5779,1.553,1.5311,1.4985,1.4643,1.4398,1.4139,1.388,1.36,1.325,1.3093,1.2881,1.2655,1.2466,1.2381,1.2215,1.2043,1.194,1.1837,1.174,1.1764,1.1997,1.21,1.1775,1.1497,1.1214,1.1068,1.1068,1.1068,1.1068,4.2703,4.2474,4.2252,4.2005,4.1897,4.2368,4.227,4.148,4.0619,4.0168,4.0153,4.0419,4.0488,4.0301,3.9954,3.9779,3.9706,3.9543,3.9469,3.9469,3.9469,3.9469,3.9367,3.9176,3.8908,3.8666,3.8485,3.8845,3.9087,3.8997,3.8908,3.8385,3.7612,3.6858,3.5944,3.4934,3.4251,3.3585,3.2884,3.2164,3.1371,3.1116,3.0299,2.9238,2.8363,2.7544,2.6314,2.568,2.5031,2.4413,2.409,2.3841,2.358,2.3232,2.2872,2.296,2.3232,2.358,2.3212,2.3047,2.2784,2.2511,2.2157,2.1704,2.123,2.0602,2.0017,1.929,1.8668,1.8194,1.7604,1.6969,1.6547,1.6319,1.6064,1.5891,1.5643,1.5318,1.5068,1.4901,1.5144,1.5311,1.5304,1.5087,1.4885,1.4754,1.4531,1.4391,1.4153,1.3808,1.3379,1.3118,1.2948,1.2674,1.2492,1.2254,1.2032,1.1813,1.1705,1.151,1.1348,1.1176,1.0906,1.0809,1.0722,1.0636,1.089,1.0977,1.0809,1.0636,1.0381,1.0294,1.012,1.012,1.0115,4.159,4.1951,4.159,4.1423,4.1396,4.1823,4.1739,4.1284,4.0432,3.9723,3.9367,3.9715,3.9779,3.9516,3.9251,3.9073,3.8819,3.8742,3.8562,3.8459,3.8459,3.8459,3.8445,3.8277,3.8109,3.7743,3.7664,3.7466,3.773,3.7926,3.8031,3.7665,3.6949,3.6264,3.548,3.4388,3.367,3.297,3.2196,3.1128,3.0397,3.0011,2.9556,2.8305,2.7597,2.6608,2.5649,2.4774,2.4034,2.3396,2.3047,2.2882,2.2441,2.2078,2.1713,2.1633,2.1633,2.1802,2.2059,2.1891,2.1713,2.1356,2.0979,2.0494,2.0008,1.9397,1.8928,1.8512,1.7939,1.732,1.6794,1.6212,1.5705,1.5405,1.509,1.4894,1.4643,1.4314,1.4068,1.3893,1.3724,1.3822,1.3977,1.3911,1.38,1.3827,1.362,1.3404,1.3143,1.2869,1.2437,1.2009,1.1923,1.1832,1.1649,1.1483,1.1262,1.1029,1.0835,1.0738,1.0482,1.0309,1.0033,0.9859,0.9685,0.9772,0.9854,0.9941,1.0028,0.9859,0.9602,0.9428,0.9248,0.9157,0.9157,4.0488,4.11,4.083,4.0745,4.0674,4.0896,4.105,4.0949,3.9991,3.9278,3.8891,3.904,3.8984,3.8729,3.8549,3.8291,3.8031,3.7926,3.773,3.7533,3.7441,3.7441,3.7441,3.7453,3.7176,3.6722,3.6722,3.6534,3.6345,3.6452,3.6734,3.6709,3.6206,3.5587,3.4842,3.3717,3.2732,3.18,3.0988,3.0136,2.929,2.9106,2.8549,2.7689,2.67,2.5854,2.4826,2.3939,2.2989,2.2353,2.2078,2.19,2.1544,2.1006,2.0727,2.0546,2.0374,2.0192,2.0447,2.0538,2.0447,2.0175,1.9712,1.9222,1.8776,1.8288,1.7938,1.7683,1.6999,1.6566,1.6127,1.5521,1.4954,1.4491,1.42,1.3997,1.3737,1.3351,1.3083,1.2954,1.2723,1.2439,1.249,1.2656,1.2717,1.2826,1.2699,1.2422,1.2146,1.1957,1.1591,1.116,1.0977,1.0977,1.089,1.0636,1.041,1.0154,1.0047,0.9864,0.9694,0.9432,0.9253,0.899,0.8819,0.8636,0.8715,0.8982,0.9253,0.9078,0.8815,0.864,0.846,0.8372,0.8193,3.9394,3.9469,3.9922,3.9895,3.9706,3.9931,4.0068,3.9974,3.91,3.8684,3.8479,3.8405,3.8096,3.7913,3.7743,3.7585,3.7492,3.7002,3.6803,3.6709,3.6628,3.6439,3.6439,3.6439,3.625,3.5763,3.5667,3.5391,3.5005,3.5005,3.5391,3.5642,3.5424,3.4893,3.4113,3.3054,3.1437,3.048,2.9691,2.9128,2.8373,2.7987,2.761,2.6666,2.5765,2.4854,2.3811,2.2967,2.2176,2.1482,2.1186,2.0997,2.0645,2.0102,1.9729,1.9546,1.9279,1.8912,1.8812,1.9271,1.9455,1.918,1.8619,1.8041,1.7502,1.7001,1.6732,1.6626,1.604,1.553,1.5093,1.4545,1.4121,1.3779,1.3417,1.3089,1.2805,1.2417,1.2227,1.2049,1.1841,1.1548,1.1305,1.1433,1.1746,1.1918,1.1865,1.1585,1.1276,1.0978,1.0758,1.0396,1.0212,1.012,1.0038,0.9873,0.9611,0.9441,0.9257,0.8986,0.8723,0.8548,0.8372,0.8201,0.7937,0.7757,0.7577,0.7841,0.8109,0.8197,0.8113,0.7848,0.7669,0.7485,0.7401,3.8381,3.8368,3.8535,3.8819,3.9189,3.9132,3.9123,3.902,3.8081,3.7756,3.7887,3.7441,3.7176,3.7083,3.6909,3.6747,3.6546,3.625,3.5966,3.5787,3.5596,3.5404,3.5404,3.5307,3.5114,3.4714,3.4617,3.4323,3.3843,3.3843,3.3621,3.3808,3.4201,3.4142,3.3364,3.2195,3.0521,2.9091,2.8549,2.8092,2.7347,2.7061,2.6678,2.5732,2.4779,2.3999,2.3178,2.2126,2.1383,2.0826,2.0374,2.0102,1.9737,1.918,1.8904,1.8627,1.8265,1.7893,1.7621,1.8087,1.8357,1.7699,1.7326,1.6929,1.6404,1.5974,1.5688,1.5491,1.5127,1.4653,1.4328,1.3805,1.3288,1.3033,1.2719,1.2271,1.1965,1.1661,1.1394,1.1279,1.1005,1.0668,1.0476,1.0271,1.0671,1.1018,1.0889,1.068,1.0479,1.0205,0.9911,0.9671,0.9393,0.917,0.9165,0.899,0.8899,0.8636,0.8376,0.8109,0.7929,0.7665,0.7492,0.7319,0.7143,0.6966,0.6874,0.6874,0.6966,0.7231,0.7231,0.7143,0.6962,0.6691,0.6605,3.7441,3.7441,3.7361,3.7808,3.8408,3.8593,3.8437,3.7939,3.7062,3.6772,3.7015,3.6534,3.6332,3.625,3.5978,3.5883,3.5584,3.5295,3.5005,3.4811,3.4531,3.4335,3.4335,3.4237,3.4028,3.3633,3.3534,3.3235,3.2745,3.2745,3.242,3.2409,3.2611,3.2711,3.2485,3.1238,2.9504,2.8031,2.7526,2.7051,2.6304,2.6014,2.5713,2.4944,2.3954,2.3174,2.2362,2.1388,2.0537,2.0053,1.9546,1.918,1.8819,1.845,1.7978,1.7707,1.7333,1.7052,1.6871,1.7059,1.7138,1.648,1.6197,1.5886,1.5488,1.5032,1.4815,1.4606,1.4154,1.3837,1.3537,1.2969,1.2582,1.2324,1.1812,1.1364,1.1192,1.0903,1.0654,1.0485,1.0177,0.9815,0.9648,0.9456,0.9614,0.998,1.0003,0.989,0.9766,0.9505,0.9264,0.8922,0.8581,0.8436,0.8204,0.812,0.8028,0.7834,0.7573,0.7319,0.7143,0.6874,0.6697,0.652,0.6343,0.6257,0.608,0.5988,0.6169,0.6435,0.6346,0.6346,0.6166,0.5985,0.5897,3.6709,3.6722,3.6534,3.6828,3.7531,3.8306,3.8028,3.7156,3.6107,3.5799,3.6048,3.5763,3.5488,3.5211,3.5017,3.4811,3.4617,3.4323,3.4028,3.3831,3.3534,3.3346,3.3247,3.3135,3.2935,3.2521,3.242,3.2117,3.1629,3.1629,3.1311,3.0845,3.0906,3.1036,3.1385,3.0149,2.8425,2.681,2.6602,2.6004,2.5421,2.502,2.4627,2.4015,2.3179,2.2311,2.1657,2.0626,1.9884,1.9333,1.8751,1.8357,1.8079,1.7613,1.7138,1.6676,1.6386,1.6001,1.5527,1.6001,1.5812,1.5432,1.5242,1.4949,1.4657,1.4196,1.3744,1.3625,1.3283,1.3055,1.2662,1.2182,1.1793,1.1427,1.0923,1.0594,1.0426,1.0144,0.9892,0.9626,0.9276,0.8977,0.8856,0.8683,0.8648,0.8784,0.8972,0.8965,0.8937,0.8776,0.8536,0.8257,0.7902,0.766,0.7431,0.7272,0.7068,0.6959,0.6776,0.6609,0.6346,0.6169,0.5988,0.5813,0.5633,0.5547,0.5369,0.5188,0.5277,0.5369,0.5549,0.546,0.5369,0.5277,0.5188,3.5883,3.5692,3.5596,3.5596,3.592,3.7051,3.7368,3.6792,3.5439,3.4812,3.5078,3.4908,3.4617,3.4433,3.4139,3.393,3.3633,3.3434,3.3147,3.2924,3.2521,3.2331,3.2229,3.2026,3.1823,3.1516,3.13,3.1105,3.0505,3.0495,3.0172,2.9723,2.9123,2.8911,2.8961,2.8287,2.7341,2.5771,2.5323,2.502,2.4322,2.3926,2.3628,2.3311,2.2266,2.1624,2.1128,2.0054,1.9209,1.873,1.8138,1.752,1.7138,1.6669,1.6285,1.5906,1.5527,1.514,1.4567,1.4472,1.4472,1.428,1.4184,1.4004,1.3636,1.3147,1.2786,1.2515,1.2299,1.2078,1.1643,1.1142,1.0798,1.0706,1.0351,0.9867,0.9579,0.9372,0.9088,0.8807,0.8481,0.8139,0.7825,0.7664,0.7621,0.7643,0.774,0.8053,0.8144,0.8108,0.797,0.7584,0.722,0.6882,0.6642,0.6506,0.6311,0.6163,0.5983,0.5811,0.5636,0.5497,0.5313,0.506,0.4947,0.4837,0.4567,0.4387,0.421,0.4302,0.448,0.4748,0.4746,0.4654,0.4565,3.5126,3.4932,3.4738,3.4531,3.4664,3.5963,3.6205,3.5442,3.4157,3.3852,3.4103,3.3941,3.3732,3.3434,3.3135,3.2935,3.2633,3.2342,3.2128,3.1801,3.1607,3.1311,3.1116,3.1013,3.0692,3.038,3.0172,2.9973,2.9459,2.9469,2.9031,2.8295,2.7544,2.691,2.6759,2.6429,2.6197,2.4777,2.4332,2.4026,2.342,2.292,2.2728,2.2265,2.1603,2.0821,2.0357,1.9493,1.8497,1.7971,1.737,1.6683,1.6292,1.5906,1.5527,1.5146,1.4573,1.4094,1.3619,1.3329,1.3227,1.3039,1.3039,1.2953,1.277,1.2375,1.2001,1.1619,1.1306,1.11,1.0801,1.0212,0.9916,0.9817,0.9513,0.9114,0.881,0.8495,0.8195,0.8021,0.773,0.7316,0.6907,0.6725,0.6542,0.6548,0.6542,0.6877,0.7211,0.728,0.7146,0.6867,0.6521,0.6292,0.5954,0.5717,0.5611,0.5473,0.5313,0.5089,0.4947,0.4721,0.4597,0.4474,0.429,0.4182,0.3774,0.3583,0.3499,0.3501,0.3497,0.3765,0.4032,0.4032,0.3941,3.4335,3.4237,3.3843,3.3545,3.3779,3.482,3.4311,3.2579,3.2449,3.2707,3.3147,3.2846,3.2645,3.242,3.2117,3.1823,3.1618,3.1322,3.1105,3.0785,3.0578,3.0287,3.0078,2.9984,2.9554,2.9227,2.9016,2.8814,2.8301,2.8067,2.766,2.6911,2.6222,2.5331,2.4911,2.4693,2.44,2.3618,2.3238,2.2929,2.2526,2.2021,2.1717,2.1387,2.0837,2.0186,1.9535,1.8711,1.7879,1.7211,1.6512,1.5987,1.5534,1.5146,1.4771,1.4202,1.3534,1.3147,1.2754,1.2462,1.217,1.1975,1.2073,1.2073,1.198,1.159,1.1208,1.0824,1.0524,1.022,0.992,0.9525,0.9031,0.8829,0.8531,0.823,0.8031,0.773,0.7428,0.7135,0.6839,0.6431,0.6022,0.5732,0.5644,0.5443,0.5443,0.5532,0.5892,0.6297,0.6158,0.6007,0.5771,0.5667,0.5331,0.5086,0.4864,0.4775,0.4663,0.4506,0.4256,0.4074,0.3942,0.3823,0.3721,0.351,0.319,0.2981,0.2879,0.2879,0.2875,0.296,0.3317,0.3408,0.3317,3.3446,3.3247,3.3058,3.2846,3.2533,3.2679,3.2342,3.1806,3.1471,3.1581,3.2026,3.1924,3.1732,3.1527,3.13,3.1002,3.0703,3.0495,3.0183,2.9869,2.9544,2.9333,2.9122,2.8814,2.8388,2.8067,2.7843,2.7628,2.7098,2.6763,2.6226,2.5558,2.4845,2.3756,2.3151,2.2826,2.2663,2.246,2.2232,2.1928,2.1623,2.1113,2.0806,2.0395,1.999,1.9369,1.8729,1.8055,1.725,1.6553,1.5993,1.5409,1.4675,1.4382,1.4004,1.334,1.2856,1.2467,1.1975,1.1683,1.1389,1.1002,1.09,1.09,1.0904,1.0708,1.0319,1.0023,0.9731,0.943,0.9031,0.8634,0.8233,0.7932,0.7633,0.7338,0.7042,0.6839,0.6537,0.6237,0.5942,0.5539,0.5129,0.4933,0.4839,0.4537,0.4334,0.4433,0.4632,0.5033,0.5227,0.5081,0.4971,0.4759,0.465,0.4317,0.4221,0.411,0.3981,0.3869,0.3707,0.3505,0.3358,0.3235,0.3034,0.281,0.2489,0.2384,0.2288,0.2346,0.2428,0.2515,0.2603,0.2697,0.2792,3.2544,3.2342,3.224,3.1834,3.1414,3.1105,3.0959,3.0874,3.0632,3.0707,3.1094,3.1002,3.0806,3.0588,3.038,3.0068,2.9649,2.9554,2.9237,2.891,2.8601,2.8281,2.8067,2.7736,2.7314,2.6881,2.6663,2.6436,2.5889,2.5278,2.4775,2.4205,2.3406,2.2509,2.1715,2.1337,2.1043,2.1003,2.1003,2.0909,2.0609,2.0197,1.9776,1.9465,1.8952,1.8534,1.7975,1.7308,1.6606,1.591,1.5345,1.468,1.387,1.3522,1.3039,1.2467,1.2078,1.1688,1.1389,1.09,1.0605,1.031,0.992,0.9821,0.9817,0.9719,0.9422,0.9229,0.8931,0.8538,0.8137,0.7739,0.7434,0.7132,0.6839,0.6445,0.6142,0.5842,0.5641,0.534,0.5039,0.4636,0.4334,0.4135,0.3934,0.363,0.353,0.3428,0.3627,0.4029,0.4131,0.4116,0.4017,0.3919,0.3807,0.3693,0.3587,0.3381,0.3173,0.3074,0.3007,0.2992,0.2846,0.2625,0.2414,0.2288,0.2163,0.1968,0.1867,0.1934,0.1921,0.1842,0.1925,0.2172,0.2267,3.1721,3.1516,3.123,3.0806,3.0287,2.9984,2.991,2.9846,2.9849,2.9922,3.0151,2.9973,2.9764,2.9554,2.9438,2.9112,2.8804,2.8591,2.8271,2.7736,2.753,2.7206,2.698,2.6545,2.6227,2.5798,2.5459,2.5229,2.465,2.3978,2.3316,2.2741,2.21,2.1243,2.0327,2.0021,1.9776,1.9569,1.9569,1.9561,1.9457,1.9042,1.8624,1.8318,1.801,1.7582,1.7108,1.6495,1.5919,1.5149,1.4489,1.3853,1.3138,1.2559,1.2073,1.1683,1.1292,1.0998,1.0609,1.0216,0.9821,0.9529,0.9232,0.8931,0.8829,0.8931,0.8733,0.8432,0.8134,0.7836,0.7437,0.7039,0.6739,0.6337,0.6039,0.5641,0.534,0.5039,0.4736,0.4435,0.4133,0.3732,0.3531,0.343,0.3328,0.2925,0.2825,0.2724,0.2825,0.3126,0.3228,0.3229,0.3228,0.3229,0.3225,0.3115,0.2918,0.2715,0.261,0.2511,0.2616,0.2513,0.2407,0.2185,0.1967,0.1946,0.1829,0.1534,0.1334,0.1417,0.1413,0.1233,0.1317,0.1571,0.1657,3.0795,3.0588,3.0183,2.9774,2.9448,2.9122,2.9076,2.904,2.8601,2.8522,2.884,2.888,2.892,2.8601,2.8378,2.8048,2.7736,2.752,2.7196,2.6871,2.6554,2.6227,2.5999,2.567,2.5238,2.4804,2.4462,2.3983,2.3351,2.2696,2.1962,2.1526,2.0787,1.997,1.9182,1.8938,1.8639,1.8331,1.8115,1.8318,1.8415,1.8318,1.801,1.7589,1.7166,1.6736,1.628,1.5825,1.5206,1.448,1.3929,1.3089,1.2016,1.1702,1.1394,1.0998,1.0507,1.0212,0.992,0.9529,0.913,0.8733,0.8435,0.8131,0.8031,0.8237,0.8137,0.7736,0.7434,0.7039,0.6739,0.6339,0.6042,0.5639,0.5238,0.4939,0.4638,0.4236,0.3831,0.3531,0.3229,0.3027,0.2826,0.2725,0.2622,0.2521,0.2522,0.2422,0.2222,0.2424,0.2523,0.2624,0.2623,0.2623,0.2523,0.2523,0.2422,0.2422,0.2317,0.2319,0.2223,0.2017,0.1811,0.1611,0.1501,0.1385,0.1275,0.0977,0.0874,0.0772,0.0866,0.0773,0.0867,0.1139,0.104,2.9869,2.9544,2.9122,2.8708,2.8495,2.8271,2.8106,2.8057,2.7666,2.7384,2.722,2.7697,2.7843,2.7638,2.7413,2.7088,2.6772,2.6554,2.6218,2.5999,2.5569,2.5128,2.4898,2.4565,2.4128,2.3689,2.3103,2.2605,2.1999,2.1473,2.0855,2.0192,1.9456,1.883,1.8247,1.7898,1.7694,1.7285,1.6967,1.6955,1.7259,1.716,1.6955,1.6524,1.6205,1.5773,1.5452,1.5018,1.4557,1.3825,1.3164,1.2399,1.153,1.1056,1.0595,1.0242,0.992,0.9529,0.9133,0.8832,0.8435,0.8035,0.764,0.7338,0.7036,0.7138,0.7138,0.6839,0.6739,0.6442,0.5939,0.5539,0.524,0.4939,0.4638,0.4334,0.3833,0.343,0.3127,0.2925,0.2724,0.2624,0.2423,0.2323,0.2221,0.2019,0.2019,0.2019,0.1919,0.1819,0.1919,0.202,0.212,0.212,0.202,0.202,0.2019,0.2019,0.2019,0.1817,0.1515,0.1414,0.1212,0.1211,0.1008,0.0703,0.0499,0.0198,-0.0,-0.0099,0.0099,0.0197,0.0391,0.0487,0.0487,2.9016,2.8475,2.8067,2.7745,2.7745,2.7422,2.7253,2.73,2.6918,2.6282,2.5691,2.64,2.6654,2.6772,2.6545,2.6227,2.5898,2.5688,2.534,2.4898,2.4582,2.4239,2.3792,2.3456,2.2893,2.2328,2.1752,2.1203,2.0645,2.0143,1.9541,1.8766,1.8265,1.7849,1.7251,1.6961,1.6749,1.643,1.6111,1.5779,1.5779,1.5785,1.5785,1.5565,1.5244,1.503,1.4493,1.4132,1.3714,1.3037,1.2316,1.1583,1.099,1.0483,0.9991,0.9626,0.9145,0.8741,0.8432,0.8038,0.7736,0.7437,0.6942,0.6645,0.6339,0.6142,0.6142,0.605,0.5849,0.5648,0.5244,0.4845,0.4645,0.4243,0.3939,0.3636,0.3132,0.273,0.2527,0.2325,0.2224,0.2225,0.2121,0.2021,0.182,0.1618,0.1617,0.1516,0.1516,0.1415,0.1414,0.1616,0.1717,0.1616,0.1516,0.1414,0.1414,0.1515,0.1414,0.1111,0.0808,0.0404,0.0404,0.0808,0.0605,0.0101,-0.0504,-0.0904,-0.1006,-0.0804,-0.0701,-0.0498,-0.0598,-0.0398,-0.01,2.795,2.7638,2.7305,2.7098,2.6881,2.6564,2.6518,2.6592,2.6163,2.527,2.476,2.4948,2.5441,2.5907,2.556,2.534,2.5017,2.4804,2.4248,2.3809,2.3576,2.3239,2.278,2.2328,2.1752,2.1174,2.0673,2.0181,1.9493,1.884,1.8273,1.7807,1.7002,1.6712,1.6474,1.6111,1.5779,1.5464,1.5143,1.4815,1.4708,1.4821,1.5035,1.4713,1.4283,1.3964,1.3532,1.331,1.2852,1.2224,1.1545,1.0822,1.0339,0.9887,0.938,0.8881,0.8507,0.8041,0.7633,0.7338,0.7039,0.6736,0.6342,0.605,0.5648,0.5354,0.526,0.5172,0.497,0.4863,0.456,0.4364,0.4062,0.3555,0.3149,0.2945,0.2539,0.2338,0.2136,0.2034,0.1931,0.1826,0.1818,0.1719,0.162,0.1518,0.1516,0.1516,0.1212,0.1111,0.091,0.1011,0.1112,0.1212,0.101,0.0707,0.0707,0.0808,0.0808,0.0505,-0.0,-0.0808,-0.0707,-0.0101,-0.0101,-0.0505,-0.1111,-0.1415,-0.1414,-0.1311,-0.1412,-0.1411,-0.1414,-0.1212,-0.0808]},{"header":{"parameterUnit":"m.s-1","parameterCategory":1,"la1":31.0,"la2":29.5877,"lo1":-88.7671,"lo2":-86.6584,"dy":0.0162,"dx":0.0185,"nx":115,"ny":88,"refTime":"2023-06-06T18:00:00:Z","depth":0,"parameterNumber":3,"parameterNumberName":"V-component_of_WINDS"},"data":[0.0,0.0,0.0,0.0,0.0,0.0,0.0,0.0,0.0,0.0,0.0,0.0,0.0,0.0,0.0,0.0,0.0,0.0,0.0,0.0,0.0,0.0,0.0,0.0,0.0,0.0,0.0,0.0,0.0,0.0,0.0,0.0,0.0,0.0,0.0,0.0,0.0,0.0,0.0,0.0,0.0,0.0,0.0,0.0,0.0,0.0,0.0,0.0,0.0,0.0,0.0,0.0,0.0,0.0,0.0,0.0,0.0,0.0,0.0,0.0,0.0,0.0,0.0,0.0,0.0,0.0,0.0,0.0,0.0,0.0,0.0,0.0,0.0,0.0,0.0,0.0,0.0,0.0,0.0,0.0,0.0,0.0,0.0,0.0,0.0,0.0,0.0,0.0,0.0,0.0,0.0,0.0,0.0,0.0,0.0,0.0,0.0,0.0,0.0,0.0,0.0,0.0,0.0,0.0,0.0,0.0,0.0,0.0,0.0,0.0,0.0,0.0,0.0,0.0,0.0,0.0,0.0,0.0,0.0,0.0,0.0,0.0,0.0,0.0,0.0,0.0,0.0,0.0,0.0,0.0,0.0,0.0,0.0,0.0,0.0,0.0,0.0,0.0,0.0,0.0,0.0,0.0,0.0,0.0,0.0,0.0,0.0,0.0,0.0,0.0,0.0,0.0,0.0,0.0,0.0,0.0,0.0,0.0,0.0,0.0,0.0,0.0,0.0,0.0,0.0,0.0,0.0,0.0,0.0,0.0,0.0,0.0,0.0,0.0,0.0,0.0,0.0,0.0,0.0,0.0,0.0,0.0,0.0,0.0,0.0,0.0,0.0,0.0,0.0,0.0,0.0,0.0,0.0,0.0,0.0,0.0,0.0,0.0,0.0,0.0,0.0,0.0,0.0,0.0,0.0,0.0,0.0,0.0,0.0,0.0,0.0,0.0,0.0,0.0,0.0,0.0,0.0,0.0,0.0,0.0,0.0,0.0,0.0,0.0,0.0,0.0,0.0,0.0,0.0,0.0,0.0,0.0,0.0,0.0,0.0,0.0,0.0,0.0,0.0,0.0,0.0,0.0,0.0,0.0,0.0,0.0,0.0,0.0,0.0,0.0,0.0,0.0,0.0,0.0,0.0,0.0,0.0,0.0,0.0,0.0,0.0,0.0,0.0,0.0,0.0,0.0,0.0,0.0,0.0,0.0,0.0,0.0,0.0,0.0,0.0,0.0,0.0,0.0,0.0,0.0,0.0,0.0,0.0,0.0,0.0,0.0,0.0,0.0,0.0,0.0,0.0,0.0,0.0,0.0,0.0,0.0,0.0,0.0,0.0,0.0,0.0,0.0,0.0,0.0,0.0,0.0,0.0,0.0,0.0,0.0,0.0,0.0,0.0,0.0,0.0,0.0,0.0,0.0,0.0,0.0,0.0,0.0,0.0,0.0,0.0,0.0,0.0,0.0,0.0,0.0,0.0,0.0,0.0,0.0,0.0,0.0,0.0,0.0,0.0,0.0,0.0,0.0,0.0,0.0,0.0,0.0,0.0,0.0,0.0,0.0,0.0,0.0,0.0,0.0,0.0,0.0,0.0,0.0,0.0,0.0,0.0,0.0,0.0,0.0,0.0,0.0,0.0,0.0,0.0,0.0,0.0,0.0,0.0,0.0,0.0,0.0,0.0,0.0,0.0,0.0,0.0,0.0,0.0,0.0,0.0,0.0,0.0,0.0,0.0,0.0,0.0,0.0,0.0,0.0,0.0,0.0,0.0,0.0,0.0,0.0,0.0,0.0,0.0,0.0,0.0,0.0,0.0,0.0,0.0,0.0,0.0,0.0,0.0,0.0,0.0,0.0,0.0,0.0,0.0,0.0,0.0,0.0,0.0,0.0,0.0,0.0,0.0,0.0,0.0,0.0,0.0,0.0,0.0,0.0,0.0,0.0,0.0,0.0,0.0,0.0,0.0,0.0,0.0,0.0,0.0,0.0,0.0,0.0,0.0,0.0,0.0,0.0,0.0,0.0,0.0,0.0,0.0,0.0,0.0,0.0,0.0,0.0,0.0,0.0,0.0,0.0,0.0,0.0,0.0,0.0,0.0,0.0,0.0,0.0,0.0,0.0,0.0,0.0,0.0,0.0,0.0,0.0,0.0,0.0,0.0,0.0,0.0,0.0,0.0,0.0,0.0,0.0,0.0,0.0,0.0,0.0,0.0,0.0,0.0,0.0,0.0,0.0,0.0,0.0,0.0,0.0,0.0,0.0,0.0,0.0,0.0,0.0,0.0,0.0,0.0,0.0,0.0,0.0,0.0,0.0,0.0,0.0,0.0,0.0,0.0,0.0,0.0,0.0,0.0,0.0,0.0,0.0,0.0,0.0,0.0,0.0,0.0,0.0,0.0,0.0,0.0,0.0,0.0,0.0,0.0,0.0,0.0,0.0,0.0,0.0,0.0,0.0,0.0,0.0,0.0,0.0,0.0,0.0,0.0,0.0,0.0,0.0,0.0,0.0,0.0,0.0,0.0,0.0,0.0,0.0,0.0,0.0,0.0,0.0,0.0,0.0,0.0,0.0,0.0,0.0,0.0,0.0,0.0,0.0,0.0,0.0,0.0,0.0,0.0,0.0,0.0,0.0,0.0,0.0,0.0,0.0,0.0,0.0,0.0,0.0,0.0,0.0,0.0,0.0,0.0,0.0,0.0,0.0,0.0,0.0,0.0,0.0,0.0,0.0,0.0,0.0,0.0,0.0,0.0,0.0,0.0,0.0,0.0,0.0,0.0,0.0,0.0,0.0,0.0,0.0,0.0,0.0,0.0,0.0,0.0,0.0,0.0,0.0,0.0,0.0,0.0,0.0,0.0,0.0,0.0,0.0,0.0,0.0,0.0,0.0,0.0,0.0,0.0,0.0,0.0,0.0,0.0,0.0,0.0,0.0,0.0,0.0,0.0,0.0,0.0,0.0,0.0,0.0,0.0,0.0,0.0,0.0,0.0,0.0,0.0,0.0,0.0,0.0,0.0,0.0,0.0,0.0,0.0,0.0,0.0,0.0,0.0,0.0,0.0,0.0,0.0,0.0,0.0,0.0,0.0,0.0,0.0,0.0,0.0,0.0,0.0,0.0,0.0,0.0,0.0,0.0,0.0,0.0,0.0,0.0,0.0,0.0,0.0,0.0,0.0,0.0,0.0,0.0,0.0,0.0,0.0,0.0,0.0,0.0,0.0,0.0,0.0,0.0,0.0,0.0,0.0,0.0,0.0,0.0,0.0,0.0,0.0,0.0,0.0,0.0,0.0,0.0,0.0,0.0,0.0,0.0,0.0,0.0,0.0,0.0,0.0,0.0,0.0,0.0,0.0,0.0,0.0,0.0,0.0,0.0,0.0,0.0,0.0,0.0,0.0,0.0,0.0,0.0,0.0,0.0,0.0,0.0,0.0,0.0,0.0,0.0,0.0,0.0,0.0,0.0,0.0,0.0,0.0,0.0,0.0,0.0,0.0,0.0,0.0,0.0,0.0,0.0,0.0,0.0,0.0,0.0,0.0,0.0,0.0,0.0,0.0,0.0,0.0,0.0,0.0,0.0,0.0,0.0,0.0,0.0,0.0,0.0,0.0,0.0,0.0,0.0,0.0,0.0,0.0,0.0,0.0,0.0,0.0,0.0,0.0,0.0,0.0,0.0,0.0,0.0,0.0,0.0,0.0,0.0,0.0,0.0,0.0,0.0,0.0,0.0,0.0,0.0,0.0,0.0,0.0,0.0,0.0,0.0,0.0,0.0,0.0,0.0,0.0,0.0,0.0,0.0,0.0,0.0,0.0,0.0,0.0,0.0,0.0,0.0,0.0,0.0,0.0,0.0,0.0,0.0,0.0,0.0,0.0,0.0,0.0,0.0,0.0,0.0,0.0,0.0,0.0,0.0,0.0,0.0,0.0,0.0,0.0,0.0,0.0,0.0,0.0,0.0,0.0,0.0,0.0,0.0,0.0,0.0,0.0,0.0,0.0,0.0,0.0,0.0,0.0,0.0,0.0,0.0,0.0,0.0,0.0,0.0,0.0,0.0,0.0,0.0,0.0,0.0,0.0,0.0,0.0,0.0,0.0,0.0,0.0,0.0,0.0,0.0,0.0,0.0,0.0,0.0,0.0,0.0,0.0,0.0,0.0,0.0,0.0,0.0,0.0,0.0,0.0,0.0,0.0,0.0,0.0,0.0,0.0,0.0,0.0,0.0,0.0,0.0,0.0,0.0,0.0,0.0,0.0,0.0,0.0,0.0,0.0,0.0,0.0,0.0,-0.1569,0.0,0.0,0.0,0.0,0.0,0.0,0.0,0.0,0.0,0.0,0.0,0.0,0.0,0.0,0.0,0.0,0.0,0.0,0.0,0.0,0.0,0.0,0.0,0.0,0.0,0.0,0.0,0.0,0.0,0.0,0.0,0.0,0.0,0.0,0.0,0.0,0.0,0.0,0.0,0.0,0.0,0.0,0.0,0.0,0.0,0.0,0.0,0.0,0.0,0.0,0.0,0.0,0.0,0.0,0.0,0.0,0.0,0.0,0.0,0.0,0.0,0.0,0.0,0.0,0.0,0.0,0.0,0.0,0.0,0.0,0.0,0.0,0.0,0.0,0.0,0.0,0.0,0.0,0.0,0.0,0.0,0.0,0.0,0.0,0.0,0.0,0.0,0.0,0.0,0.0,0.0,0.0,0.0,0.0,0.0,0.0,0.0,0.0,0.0,0.0,0.0,0.0,0.0,0.0,0.0,0.0,0.0,0.0,0.0,0.0,-0.1389,-0.1479,-0.1435,-0.1435,-0.1479,0.0,0.0,0.0,0.0,0.0,0.0,0.0,0.0,0.0,0.0,0.0,0.0,0.0,0.0,0.0,0.0,0.0,0.0,0.0,0.0,0.0,0.0,0.0,0.0,0.0,0.0,0.0,0.0,0.0,0.0,0.0,0.0,0.0,0.0,0.0,0.0,0.0,0.0,0.0,0.0,0.0,0.0,0.0,0.0,0.0,0.0,0.0,0.0,0.0,0.0,0.0,0.0,0.0,0.0,0.0,0.0,0.0,0.0,0.0,0.0,0.0,0.0,0.0,0.0,0.0,0.0,0.0,0.0,0.0,0.0,0.0,0.0,0.0,0.0,0.0,0.0,0.0,0.0,0.0,0.0,0.0,0.0,0.0,0.0,0.0,0.0,0.0,0.0,0.0,0.0,0.0,0.0,0.0,0.0,0.0,0.0,0.0,0.0,0.0,0.0,0.0,0.0,0.0,0.0,0.0,0.0,0.0,0.0,0.0,0.0,0.0,0.0,-0.1344,-0.1344,-0.1344,0.0,0.0,0.0,0.0,0.0,0.0,0.0,0.0,0.0,0.0,0.0,0.0,0.0,0.0,0.0,0.0,0.0,0.0,0.0,0.0,0.0,0.0,0.0,0.0,0.0,0.0,0.0,0.0,0.0,0.0,0.0,0.0,0.0,0.0,0.0,0.0,0.0,0.0,0.0,0.0,0.0,0.0,0.0,0.0,0.0,0.0,0.0,0.0,0.0,0.0,0.0,0.0,0.0,0.0,0.0,0.0,0.0,0.0,0.0,0.0,0.0,0.0,0.0,0.0,0.0,0.0,0.0,0.0,0.0,0.0,0.0,0.0,0.0,0.0,0.0,0.0,0.0,0.0,0.0,0.0,0.0,0.0,0.0,0.0,0.0,0.0,0.0,0.0,0.0,0.0,0.0,0.0,0.0,0.0,0.0,0.0,0.0,0.0,0.0,0.0,0.0,0.0,0.0,0.0,0.0,0.0,0.0,0.0,0.0,0.0,-0.112,-0.112,-0.112,0.0,-0.112,0.0,0.0,0.0,0.0,0.0,0.0,0.0,0.0,0.0,0.0,0.0,0.0,0.0,0.0,0.0,0.0,0.0,0.0,0.0,0.0,0.0,0.0,0.0,0.0,0.0,0.0,0.0,0.0,0.0,0.0,0.0,0.0,0.0,0.0,0.0,0.0,0.0,0.0,0.0,0.0,0.0,0.0,0.0,0.0,0.0,0.0,0.0,0.0,0.0,0.0,0.0,0.0,0.0,0.0,0.0,0.0,0.0,0.0,0.0,0.0,0.0,0.0,0.0,0.0,0.0,0.0,0.0,0.0,0.0,0.0,0.0,0.0,0.0,0.0,0.0,0.0,0.0,0.0,0.0,0.0,0.0,0.0,0.0,0.0,0.0,0.0,0.0,0.0,0.0,0.0,0.0,0.0,0.0,0.0,0.0,0.0,0.0,0.0,0.0,0.0,0.0,0.0,0.0,0.0,0.0,0.0,0.0,0.0,0.0,0.0,-0.1032,-0.1075,-0.112,-0.1074,0.0,0.0,0.0,0.0,0.0,0.0,0.0,0.0,0.0,0.0,0.0,0.0,0.0,0.0,0.0,0.0,0.0,0.0,0.0,0.0,0.0,0.0,0.0,0.0,0.0,0.0,0.0,0.0,0.0,0.0,0.0,0.0,0.0,0.0,0.0,0.0,0.0,0.0,0.0,0.0,0.0,0.0,0.0,0.0,0.0,0.0,0.0,0.0,0.0,0.0,0.0,0.0,0.0,0.0,0.0,0.0,0.0,0.0,0.0,0.0,0.0,0.0,0.0,0.0,0.0,0.0,0.0,0.0,0.0,0.0,0.0,0.0,0.0,0.0,0.0,0.0,0.0,0.0,0.0,0.0,0.0,0.0,0.0,0.0,0.0,0.0,0.0,0.0,0.0,0.0,0.0,0.0,0.0,0.0,0.0,0.0,0.0,0.0,0.0,0.0,0.0,0.0,0.0,0.0,0.0,0.0,0.0,0.0,0.0,0.0,-0.0855,-0.0898,-0.0987,-0.0986,-0.0942,-0.0855,0.0,0.0,0.0,0.0,0.0,0.0,0.0,0.0,0.0,0.0,0.0,0.0,0.0,0.0,0.0,0.0,0.0,0.0,0.0,0.0,0.0,0.0,0.0,0.0,0.0,0.0,0.0,0.0,0.0,0.0,0.0,0.0,0.0,0.0,0.0,0.0,0.0,0.0,0.0,0.0,0.0,0.0,0.0,0.0,0.0,0.0,0.0,0.0,0.0,0.0,0.0,0.0,0.0,0.0,0.0,0.0,0.0,0.0,0.0,0.0,0.0,0.0,0.0,0.0,0.0,0.0,0.0,0.0,0.0,0.0,0.0,0.0,0.0,0.0,0.0,0.0,0.0,0.0,0.0,0.0,0.0,0.0,0.0,0.0,0.0,0.0,0.0,0.0,0.0,0.0,0.0,0.0,0.0,0.0,0.0,0.0,0.0,0.0,0.0,0.0,0.0,0.0,0.0,0.0,0.0,0.0,0.0,0.0,-0.0719,-0.0719,-0.0719,-0.0719,-0.0719,-0.0719,0.0,0.0,0.0,0.0,0.0,0.0,0.0,0.0,0.0,0.0,0.0,0.0,0.0,0.0,0.0,0.0,0.0,0.0,0.0,0.0,0.0,0.0,0.0,0.0,0.0,0.0,0.0,0.0,0.0,0.0,0.0,0.0,0.0,0.0,0.0,0.0,0.0,0.0,0.0,0.0,0.0,0.0,0.0,0.0,0.0,0.0,0.0,0.0,0.0,0.0,0.0,0.0,0.0,0.0,0.0,0.0,0.0,0.0,0.0,0.0,0.0,0.0,0.0,0.0,0.0,0.0,0.0,0.0,0.0,0.0,0.0,0.0,0.0,0.0,0.0,0.0,0.0,0.0,0.0,0.0,0.0,0.0,0.0,0.0,0.0,0.0,0.0,0.0,0.0,0.0,0.0,0.0,0.0,0.0,0.0,0.0,0.0,0.0,0.0,0.0,0.0,0.0,0.0,0.0,0.0,0.0,0.0,0.0,0.0,-0.0719,-0.0719,-0.0719,-0.0719,-0.0719,-0.0719,0.0,0.0,0.0,0.0,0.0,0.0,0.0,0.0,0.0,0.0,0.0,0.0,0.0,0.0,0.0,0.0,0.0,0.0,0.0,0.0,0.0,0.0,0.0,0.0,0.0,0.0,0.0,0.0,0.0,0.0,0.0,0.0,0.0,0.0,0.0,0.0,0.0,0.0,0.0,0.0,0.0,0.0,0.0,0.0,0.0,0.0,0.0,0.0,0.0,0.0,0.0,0.0,0.0,0.0,0.0,0.0,0.0,0.0,0.0,0.0,0.0,0.0,0.0,0.0,0.0,0.0,0.0,0.0,0.0,0.0,0.0,0.0,0.0,0.0,0.0,0.0,0.0,0.0,0.0,0.0,0.0,0.0,0.0,0.0,0.0,0.0,0.0,0.0,0.0,0.0,0.0,0.0,0.0,0.0,0.0,0.0,0.0,0.0,0.0,0.0,0.0,0.0,0.0,0.0,0.0,0.0,0.0,0.0,0.0,-0.0584,0.0,-0.0584,0.0,-0.0584,-0.0629,0.0,0.0,0.0,0.0,0.0,0.0,0.0,0.0,0.0,0.0,0.0,0.0,0.0,0.0,0.0,0.0,0.0,0.0,0.0,0.0,0.0,0.0,0.0,0.0,0.0,0.0,0.0,0.0,0.0,0.0,0.0,0.0,0.0,0.0,0.0,0.0,0.0,0.0,0.0,0.0,0.0,0.0,0.0,0.0,0.0,0.0,0.0,0.0,0.0,0.0,0.0,0.0,0.0,0.0,0.0,0.0,0.0,0.0,0.0,0.0,0.0,0.0,0.0,0.0,0.0,0.0,0.0,0.0,0.0,0.0,0.0,0.0,0.0,0.0,0.0,0.0,0.0,0.0,0.0,0.0,0.0,0.0,0.0,0.0,0.0,0.0,0.0,0.0,0.0,0.0,0.0,0.0,0.0,0.0,0.0,0.0,0.0,0.0,0.0,0.0,0.0,0.0,0.0,0.0,0.0,0.0,0.0,0.0,-0.0586,-0.0406,-0.0406,-0.0406,-0.0405,-0.0406,-0.0495,0.0,0.0,0.0,0.0,0.0,0.0,0.0,0.0,0.0,0.0,0.0,0.0,0.0,0.0,0.0,0.0,0.0,0.0,0.0,0.0,0.0,0.0,0.0,0.0,0.0,0.0,0.0,0.0,0.0,0.0,0.0,0.0,0.0,0.0,0.0,0.0,0.0,0.0,0.0,0.0,0.0,0.0,0.0,0.0,0.0,0.0,0.0,0.0,0.0,0.0,0.0,0.0,0.0,0.0,0.0,0.0,0.0,0.0,0.0,0.0,0.0,0.0,0.0,0.0,0.0,0.0,0.0,0.0,0.0,0.0,0.0,0.0,0.0,0.0,0.0,0.0,0.0,0.0,0.0,0.0,0.0,0.0,0.0,0.0,0.0,0.0,0.0,0.0,0.0,0.0,0.0,0.0,0.0,0.0,0.0,0.0,0.0,0.0,0.0,0.0,0.0,0.0,0.0,0.0,0.0,0.0,0.0,0.0,0.0,-0.0146,-0.0146,-0.0096,-0.0094,-0.0141,-0.0139,0.0,0.0,0.0,0.0,0.0,0.0,0.0,0.0,0.0,0.0,0.0,0.0,0.0,0.0,0.0,0.0,0.0,0.0,0.0,0.0,0.0,0.0,0.0,0.0,0.0,0.0,0.0,0.0,0.0,0.0,0.0,0.0,0.0,0.0,0.0,0.0,0.0,0.0,0.0,0.0,0.0,0.0,0.0,0.0,0.0,0.0,0.0,0.0,0.0,0.0,0.0,0.0,0.0,0.0,0.0,0.0,0.0,0.0,0.0,0.0,0.0,0.0,0.0,0.0,0.0,0.0,0.0,0.0,0.0,0.0,0.0,0.0,0.0,0.0,0.0,0.0,0.0,0.0,0.0,0.0,0.0,0.0,0.0,0.0,0.0,0.0,0.0,0.0,0.0,0.0,0.0,0.0,0.0,0.0,0.0,0.0,0.0,0.0,0.0,0.0,0.0,0.0,0.0,0.0,0.0,0.0,0.0,0.0,0.0,-0.0158,-0.0051,0.0,0.0,0.0,0.0,0.0,0.0,0.0,0.0,0.0,0.0,0.0,0.0,0.0,0.0,0.0,0.0,0.0,0.0,0.0,0.0,0.0,0.0,0.0,0.0,0.0,0.0,0.0,0.0,0.0,0.0,0.0,0.0,0.0,0.0,0.0,0.0,0.0,0.0,0.0,0.0,0.0,0.0,0.0,0.0,0.0,0.0,0.0,0.0,0.0,0.0,0.0,0.0,0.0,0.0,0.0,0.0,0.0,0.0,0.0,0.0,0.0,0.0,0.0,0.0,0.0,0.0,0.0,0.0,0.0,0.0,0.0,0.0,0.0,0.0,0.0,0.0,0.0,0.0,0.0,0.0,0.0,0.0,0.0,0.0,0.0,0.0,0.0,0.0,0.0,0.0,0.0,0.0,0.0,0.0,0.0,0.0,0.0,0.0,0.0,0.0,0.0,0.0,0.0,0.0,0.0,0.0,0.0,0.0,0.0,0.0,0.0,0.0,0.0,-0.045,-0.0158,0.0,0.0,0.0,0.0,0.0,0.0,0.0,0.0,0.0,0.0,0.0,0.0,0.0,0.0,0.0,0.0,0.0,0.0,0.0,0.0,0.0,0.0,0.0,0.0,0.0,0.0,0.0,0.0,0.0,0.0,0.0,0.0,0.0,0.0,0.0,0.0,0.0,0.0,0.0,0.0,0.0,0.0,0.0,0.0,0.0,0.0,0.0,0.0,0.0,0.0,0.0,0.0,0.0,0.0,0.0,0.0,0.0,0.0,0.0,0.0,0.0,0.0,0.0,0.0,0.0,0.0,0.0,0.0,0.0,0.0,0.0,0.0,0.0,0.0,0.0,0.0,0.0,0.0,0.0,0.0,0.0,0.0,0.0,0.0,0.0,0.0,0.0,0.0,0.0,0.0,0.0,0.0,0.0,0.0,0.0,0.0,0.0,0.0,0.0,0.0,0.0,0.0,0.0,0.0,0.0,0.0,0.0,0.0,0.0,0.0,0.0,0.0,0.0,-0.0812,-0.0727,-0.0432,0.0,0.0,0.0,0.0,0.0,0.0,0.0,0.0,0.0,0.0,0.0,0.0,0.0,0.0,0.0,0.0,0.0,0.0,0.0,0.0,0.0,0.0,0.0,0.0,0.0,0.0,0.0,0.0,0.0,0.0,0.0,0.0,0.0,0.0,0.0,0.0,0.0,0.0,0.0,0.0,0.0,0.0,0.0,0.0,0.0,0.0,0.0,0.0,0.0,0.0,0.0,0.0,0.0,0.0,0.0,0.0,0.0,0.0,0.0,0.0,0.0,0.0,0.0,0.0,0.0,0.0,0.0,0.0,0.0,0.0,0.0,0.0,0.0,0.0,0.0,0.0,0.0,0.0,0.0,0.0,0.0,0.0,0.0,0.0,0.0,0.0,0.0,0.0,0.0,0.0,0.0,0.0,0.0,0.0,0.0,0.0,0.0,0.0,0.0,0.0,0.0,0.0,0.0,0.0,0.0,0.0,0.0,0.0,0.0,0.0,0.0,-0.0983,-0.0943,-0.0939,-0.0748,-0.039,-0.011,0.0,0.0,0.0,0.0,0.0,0.0,0.0,0.0,0.0,0.0,0.0,0.0,0.0,0.0,0.0,0.0,0.0,0.0,0.0,0.0,0.0,0.0,0.0,0.0,0.0,0.0,0.0,0.0,0.0,0.0,0.0,0.0,0.0,0.0,0.0,0.0,0.0,0.0,0.0,0.0,0.0,0.0,0.0,0.0,0.0,0.0,0.0,0.0,0.0,0.0,0.0,0.0,0.0,0.0,0.0,0.0,0.0,0.0,0.0,0.0,0.0,0.0,0.0,0.0,0.0,0.0,0.0,0.0,0.0,0.0,0.0,0.0,0.0,0.0,0.0,0.0,0.0,0.0,0.0,0.0,0.0,0.0,0.0,0.0,0.0,0.0,0.0,0.0,0.0,0.0,0.0,0.0,0.0,0.0,0.0,0.0,0.0,0.0,0.0,0.0,0.0,0.0,0.0,0.0,0.0,0.0,0.0,0.0,0.0,-0.1121,-0.0947,-0.0974,-0.0977,-0.0893,-0.0345,-0.0,0.0,0.0,0.0,0.0,0.0,0.0,0.0,0.0,0.0,0.0,0.0,0.0,0.0,0.0,0.0,0.0,0.0,0.0,0.0,0.0,0.0,0.0,0.0,0.0,0.0,0.0,0.0,0.0,0.0,0.0,0.0,0.0,0.0,0.0,0.0,0.0,0.0,0.0,0.0,0.0,0.0,0.0,0.0,0.0,0.0,0.0,0.0,0.0,0.0,0.0,0.0,0.0,0.0,0.0,0.0,0.0,0.0,0.0,0.0,0.0,0.0,0.0,0.0,0.0,0.0,0.0,0.0,0.0,0.0,0.0,0.0,0.0,0.0,0.0,0.0,0.0,0.0,0.0,0.0,0.0,0.0,0.0,0.0,0.0,0.0,0.0,0.0,0.0,0.0,0.0,0.0,0.0,0.0,0.0,0.0,0.0,0.0,0.0,0.0,0.0,0.0,0.0,0.0,0.0,0.0,0.0,0.0,0.0,-0.1253,-0.1161,-0.117,-0.1184,-0.1077,-0.0601,-0.0227,0.0,0.0,0.0,0.0,0.0,0.0,0.0,0.0,0.0,0.0,0.0,0.0,0.0,0.0,0.0,0.0,0.0,0.0,0.0,0.0,0.0,0.0,0.0,0.0,0.0,0.0,0.0,0.0,0.0,0.0,0.0,0.0,0.0,0.0,0.0,0.0,0.0,0.0,0.0,0.0,0.0,0.0,0.0,0.0,0.0,0.0,0.0,0.0,-0.4705,0.0,0.0,0.0,0.0,0.0,0.0,0.0,0.0,0.0,0.0,0.0,0.0,0.0,0.0,0.0,0.0,0.0,0.0,0.0,0.0,0.0,0.0,0.0,0.0,0.0,0.0,0.0,0.0,0.0,0.0,0.0,0.0,0.0,0.0,0.0,0.0,0.0,0.0,0.0,0.0,0.0,0.0,0.0,0.0,0.0,0.0,0.0,0.0,0.0,0.0,0.0,0.0,0.0,0.0,0.0,0.0,0.0,0.0,0.0,-0.1589,-0.1449,-0.1469,-0.1352,-0.1224,-0.0926,-0.0707,0.0,0.0,0.0,0.0,0.0,0.0,0.0,0.0,0.0,0.0,0.0,0.0,0.0,0.0,0.0,0.0,0.0,0.0,0.0,0.0,0.0,0.0,0.0,0.0,0.0,0.0,0.0,0.0,0.0,0.0,0.0,0.0,0.0,0.0,0.0,0.0,0.0,0.0,0.0,0.0,0.0,0.0,0.0,0.0,0.0,0.0,0.0,0.0,0.0,0.0,0.0,0.0,0.0,0.0,0.0,0.0,0.0,0.0,0.0,0.0,0.0,0.0,0.0,0.0,0.0,0.0,0.0,0.0,0.0,0.0,0.0,0.0,0.0,0.0,0.0,0.0,0.0,0.0,0.0,0.0,0.0,0.0,0.0,0.0,0.0,0.0,0.0,0.0,0.0,0.0,0.0,0.0,0.0,0.0,0.0,0.0,0.0,0.0,0.0,0.0,0.0,0.0,0.0,0.0,0.0,0.0,0.0,-0.2123,-0.1939,-0.1868,-0.1724,-0.1595,-0.1362,-0.132,-0.1221,-0.1009,0.0,0.0,0.0,0.0,0.0,0.0,0.0,0.0,0.0,0.0,0.0,0.0,0.0,0.0,0.0,0.0,0.0,0.0,0.0,0.0,0.0,0.0,0.0,0.0,0.0,0.0,0.0,0.0,0.0,0.0,0.0,0.0,0.0,0.0,0.0,0.0,0.0,0.0,-0.4661,-0.4705,0.0,0.0,0.0,0.0,0.0,0.0,0.0,0.0,-0.5193,0.0,0.0,0.0,0.0,0.0,0.0,0.0,0.0,0.0,0.0,0.0,0.0,0.0,0.0,0.0,0.0,0.0,0.0,0.0,0.0,0.0,0.0,0.0,0.0,0.0,0.0,0.0,0.0,0.0,0.0,0.0,0.0,0.0,0.0,0.0,0.0,0.0,0.0,0.0,0.0,0.0,0.0,0.0,0.0,0.0,0.0,0.0,0.0,0.0,0.0,0.0,0.0,0.0,0.0,0.0,0.0,-0.2708,-0.2613,-0.2379,-0.2063,-0.2056,-0.1947,-0.1534,-0.1462,-0.1419,-0.1405,0.0,0.0,0.0,0.0,0.0,0.0,0.0,0.0,0.0,0.0,0.0,0.0,0.0,0.0,0.0,0.0,0.0,0.0,0.0,0.0,0.0,0.0,0.0,0.0,0.0,0.0,0.0,0.0,0.0,0.0,0.0,0.0,0.0,0.0,0.0,0.0,0.0,0.0,0.0,-0.5116,-0.5149,0.0,0.0,0.0,0.0,0.0,0.0,0.0,0.0,-0.5491,0.0,0.0,0.0,0.0,0.0,0.0,0.0,0.0,0.0,0.0,0.0,0.0,0.0,0.0,0.0,0.0,0.0,0.0,0.0,0.0,0.0,0.0,0.0,0.0,0.0,0.0,0.0,0.0,0.0,0.0,0.0,0.0,0.0,0.0,0.0,0.0,0.0,0.0,0.0,0.0,0.0,0.0,0.0,0.0,0.0,0.0,0.0,0.0,0.0,0.0,0.0,0.0,0.0,0.0,0.0,-0.3251,-0.3107,-0.2945,-0.2697,-0.2536,-0.2285,-0.1949,-0.1783,-0.1666,0.0,0.0,0.0,0.0,0.0,0.0,0.0,0.0,0.0,0.0,0.0,0.0,0.0,0.0,0.0,0.0,0.0,0.0,0.0,0.0,0.0,0.0,0.0,0.0,0.0,0.0,0.0,0.0,0.0,0.0,0.0,0.0,0.0,0.0,0.0,0.0,0.0,0.0,0.0,0.0,-0.529,-0.5241,-0.5285,0.0,0.0,0.0,0.0,0.0,0.0,-0.5583,-0.5707,0.0,0.0,0.0,0.0,0.0,0.0,0.0,0.0,0.0,0.0,0.0,0.0,0.0,0.0,0.0,0.0,0.0,0.0,0.0,0.0,0.0,0.0,0.0,0.0,0.0,0.0,0.0,0.0,0.0,0.0,0.0,0.0,0.0,0.0,0.0,0.0,0.0,0.0,0.0,0.0,0.0,0.0,0.0,0.0,0.0,0.0,0.0,0.0,0.0,0.0,0.0,0.0,0.0,0.0,0.0,-0.3867,-0.3614,-0.3463,-0.3288,-0.2956,-0.2688,-0.2353,-0.2226,-0.1974,0.0,0.0,0.0,0.0,0.0,0.0,0.0,0.0,0.0,0.0,0.0,0.0,0.0,0.0,0.0,0.0,0.0,0.0,0.0,0.0,0.0,0.0,0.0,0.0,0.0,0.0,0.0,0.0,0.0,0.0,0.0,0.0,0.0,0.0,0.0,0.0,0.0,0.0,0.0,0.0,0.0,-0.5415,-0.5415,-0.5458,0.0,0.0,0.0,0.0,-0.5717,-0.5836,0.0,0.0,0.0,0.0,0.0,0.0,0.0,0.0,0.0,0.0,0.0,0.0,0.0,0.0,0.0,0.0,0.0,0.0,0.0,0.0,0.0,0.0,0.0,0.0,0.0,0.0,0.0,0.0,0.0,0.0,0.0,0.0,0.0,0.0,0.0,0.0,0.0,0.0,0.0,0.0,0.0,0.0,0.0,0.0,0.0,0.0,0.0,0.0,0.0,0.0,0.0,0.0,0.0,0.0,0.0,0.0,-0.4357,-0.4116,-0.3916,-0.3685,-0.336,-0.3092,-0.2887,-0.2608,-0.2405,0.0,0.0,0.0,0.0,0.0,0.0,0.0,0.0,0.0,0.0,0.0,0.0,0.0,0.0,0.0,0.0,0.0,0.0,0.0,0.0,0.0,0.0,0.0,0.0,0.0,0.0,0.0,0.0,0.0,0.0,0.0,0.0,0.0,0.0,0.0,0.0,0.0,0.0,0.0,0.0,0.0,-0.5793,-0.589,-0.5933,-0.589,0.0,0.0,-0.5933,-0.5884,-0.6013,0.0,0.0,0.0,0.0,0.0,0.0,0.0,0.0,0.0,0.0,0.0,0.0,0.0,0.0,0.0,0.0,0.0,0.0,0.0,0.0,0.0,0.0,0.0,0.0,0.0,0.0,0.0,0.0,0.0,0.0,0.0,0.0,0.0,0.0,0.0,0.0,0.0,0.0,0.0,0.0,0.0,0.0,0.0,0.0,0.0,0.0,0.0,0.0,0.0,0.0,0.0,0.0,0.0,0.0,0.0,-0.525,-0.5158,-0.4797,-0.4569,-0.4359,-0.3894,-0.3627,-0.3491,-0.3113,-0.2833,0.0,0.0,0.0,0.0,0.0,0.0,0.0,0.0,0.0,0.0,0.0,0.0,0.0,0.0,0.0,0.0,0.0,0.0,0.0,0.0,0.0,0.0,0.0,0.0,0.0,0.0,0.0,0.0,0.0,0.0,0.0,0.0,0.0,0.0,0.0,0.0,0.0,0.0,0.0,0.0,0.0,0.0,-0.5981,-0.6024,0.0,0.0,0.0,-0.6142,-0.6227,0.0,0.0,0.0,0.0,0.0,0.0,0.0,0.0,0.0,0.0,0.0,0.0,0.0,0.0,0.0,0.0,0.0,0.0,0.0,0.0,0.0,0.0,0.0,0.0,0.0,0.0,0.0,0.0,0.0,0.0,0.0,0.0,0.0,0.0,0.0,0.0,0.0,0.0,0.0,0.0,0.0,0.0,0.0,0.0,0.0,0.0,0.0,0.0,0.0,0.0,0.0,0.0,0.0,0.0,0.0,0.0,0.0,-0.5832,-0.5473,-0.5156,-0.496,-0.4431,-0.4095,-0.4023,-0.3646,0.0,0.0,0.0,0.0,0.0,0.0,0.0,0.0,0.0,0.0,0.0,0.0,0.0,0.0,0.0,0.0,0.0,0.0,0.0,0.0,0.0,0.0,0.0,0.0,0.0,0.0,0.0,-0.4879,0.0,0.0,0.0,0.0,0.0,0.0,0.0,0.0,0.0,0.0,0.0,0.0,0.0,0.0,-0.6334,-0.6384,-0.6334,-0.6378,0.0,0.0,-0.6599,-0.6818,-0.6862,-0.6949,0.0,0.0,0.0,0.0,0.0,0.0,0.0,0.0,0.0,0.0,0.0,0.0,0.0,0.0,0.0,0.0,0.0,0.0,0.0,0.0,0.0,0.0,0.0,0.0,0.0,0.0,0.0,0.0,0.0,0.0,0.0,0.0,0.0,0.0,0.0,0.0,0.0,0.0,0.0,0.0,0.0,0.0,0.0,0.0,0.0,0.0,0.0,0.0,0.0,0.0,0.0,0.0,0.0,0.0,0.0,-0.6085,-0.5933,-0.569,-0.5362,-0.4964,-0.4697,-0.4558,-0.4299,-0.4053,0.0,0.0,0.0,0.0,0.0,0.0,0.0,0.0,0.0,0.0,0.0,0.0,0.0,0.0,0.0,0.0,0.0,0.0,0.0,0.0,0.0,0.0,0.0,0.0,0.0,0.0,0.0,0.0,0.0,0.0,0.0,0.0,0.0,0.0,0.0,0.0,0.0,0.0,0.0,0.0,0.0,-0.7222,-0.7443,-0.7282,-0.7222,0.0,0.0,-0.7538,-0.7714,-0.7802,-0.7957,-0.8104,0.0,0.0,0.0,0.0,0.0,0.0,0.0,0.0,0.0,0.0,0.0,0.0,0.0,0.0,0.0,0.0,0.0,0.0,0.0,0.0,0.0,0.0,0.0,0.0,0.0,0.0,0.0,0.0,0.0,0.0,0.0,0.0,0.0,0.0,0.0,0.0,0.0,0.0,0.0,0.0,0.0,0.0,0.0,0.0,0.0,0.0,0.0,0.0,0.0,0.0,0.0,0.0,0.0,-0.6962,-0.6952,-0.6572,-0.628,-0.602,-0.5693,-0.5422,-0.5219,-0.4951,-0.4788,0.0,0.0,0.0,0.0,0.0,0.0,0.0,0.0,0.0,0.0,0.0,0.0,0.0,0.0,0.0,0.0,0.0,0.0,0.0,0.0,0.0,0.0,0.0,0.0,0.0,0.0,0.0,0.0,-0.6165,-0.6539,-0.6799,0.0,0.0,0.0,0.0,0.0,0.0,0.0,0.0,0.0,0.0,-0.7713,-0.7821,-0.776,0.0,0.0,-0.7983,-0.8017,-0.8105,-0.8193,-0.8374,-0.8475,-0.8764,0.0,0.0,0.0,0.0,0.0,0.0,0.0,0.0,0.0,0.0,0.0,0.0,0.0,0.0,0.0,0.0,0.0,0.0,0.0,0.0,0.0,0.0,0.0,0.0,0.0,0.0,0.0,0.0,0.0,0.0,0.0,0.0,0.0,0.0,0.0,0.0,0.0,0.0,0.0,0.0,0.0,0.0,0.0,0.0,0.0,0.0,0.0,0.0,0.0,0.0,0.0,0.0,-0.7604,-0.7683,-0.7286,-0.6985,-0.6777,-0.6455,-0.616,-0.5948,-0.5669,-0.5499,0.0,0.0,0.0,0.0,0.0,0.0,0.0,0.0,0.0,0.0,0.0,0.0,0.0,0.0,0.0,0.0,0.0,0.0,0.0,0.0,0.0,0.0,0.0,0.0,0.0,0.0,0.0,0.0,-0.6742,-0.7224,-0.7536,0.0,0.0,0.0,0.0,0.0,0.0,0.0,0.0,0.0,0.0,-0.8379,-0.8365,-0.8372,-0.8477,-0.8525,-0.8581,-0.863,-0.872,-0.881,-0.89,-0.9141,0.0,0.0,0.0,0.0,0.0,0.0,0.0,0.0,0.0,0.0,0.0,0.0,0.0,0.0,0.0,0.0,0.0,0.0,0.0,0.0,0.0,0.0,0.0,0.0,0.0,0.0,0.0,0.0,0.0,0.0,0.0,0.0,0.0,0.0,0.0,0.0,0.0,0.0,0.0,0.0,0.0,0.0,0.0,0.0,0.0,0.0,0.0,0.0,0.0,0.0,0.0,0.0,0.0,0.0,-0.8107,-0.8107,-0.7931,-0.7619,-0.7389,-0.7082,-0.6664,-0.6501,-0.6331,-0.6215,0.0,0.0,0.0,0.0,0.0,0.0,0.0,0.0,0.0,0.0,0.0,0.0,0.0,0.0,0.0,0.0,0.0,0.0,0.0,0.0,0.0,0.0,0.0,0.0,0.0,0.0,-0.7164,-0.7652,-0.8078,0.0,0.0,0.0,0.0,0.0,0.0,0.0,0.0,0.0,0.0,-0.9118,-0.9316,-0.9183,-0.9249,-0.934,-0.9384,-0.9377,-0.9436,-0.9703,-0.9644,-0.9755,0.0,0.0,0.0,0.0,0.0,0.0,0.0,0.0,0.0,0.0,0.0,0.0,0.0,0.0,0.0,0.0,0.0,0.0,0.0,0.0,0.0,0.0,0.0,0.0,0.0,0.0,0.0,-0.9741,-0.957,0.0,0.0,0.0,0.0,0.0,0.0,0.0,0.0,0.0,0.0,0.0,-1.12,-1.1155,0.0,0.0,0.0,0.0,0.0,0.0,0.0,0.0,0.0,0.0,0.0,0.0,-0.9223,-0.9082,-0.8821,-0.8578,-0.8292,-0.8149,-0.784,-0.7437,-0.7369,-0.7184,-0.6854,0.0,0.0,0.0,0.0,0.0,0.0,0.0,0.0,0.0,0.0,0.0,0.0,0.0,0.0,0.0,0.0,0.0,0.0,0.0,0.0,0.0,0.0,0.0,0.0,0.0,-0.75,0.0,0.0,0.0,0.0,0.0,0.0,0.0,0.0,0.0,0.0,0.0,-0.9577,-0.9628,-0.9725,-0.9799,-0.9732,-0.974,-0.9792,0.0,0.0,0.0,0.0,0.0,0.0,0.0,0.0,0.0,0.0,0.0,0.0,0.0,0.0,-1.1911,-1.1959,-1.2054,-1.2206,-1.2347,0.0,0.0,0.0,0.0,0.0,0.0,0.0,0.0,0.0,0.0,0.0,0.0,0.0,0.0,0.0,0.0,-1.0725,0.0,0.0,0.0,0.0,0.0,0.0,0.0,0.0,-1.1675,-1.1787,-1.1976,-1.1847,-1.1771,0.0,-1.1668,-1.149,0.0,0.0,0.0,0.0,0.0,0.0,0.0,0.0,-0.988,-0.9902,-0.9619,-0.9378,-0.9238,-0.9021,-0.876,-0.8409,-0.8265,-0.8056,-0.7767,-0.7688,-0.7544,0.0,0.0,0.0,0.0,0.0,0.0,0.0,0.0,0.0,0.0,0.0,0.0,0.0,0.0,0.0,0.0,0.0,0.0,0.0,0.0,0.0,0.0,0.0,-0.8194,0.0,0.0,0.0,0.0,0.0,0.0,0.0,0.0,0.0,-1.0406,-1.0352,-1.0376,-1.0376,-1.0484,-1.0562,-1.0562,0.0,0.0,0.0,0.0,0.0,0.0,0.0,-1.0854,-1.1444,-1.1402,-1.1532,-1.218,-1.2498,-1.2744,-1.2938,0.0,0.0,-1.2685,-1.2801,-1.3046,-1.3185,-1.3511,-1.3771,-1.379,-1.4037,-1.4244,0.0,0.0,0.0,0.0,0.0,0.0,0.0,0.0,-1.1887,-1.1948,0.0,-1.2002,0.0,0.0,0.0,0.0,0.0,0.0,0.0,0.0,-1.2065,-1.2072,-1.2107,-1.2114,-1.21,-1.2053,-1.2438,-1.2572,-1.248,-1.1504,0.0,0.0,0.0,0.0,0.0,0.0,-1.049,-1.0521,-1.0382,-1.0279,-1.0271,-1.0064,-0.9868,-0.9607,-0.9178,-0.8945,-0.8934,-0.8712,-0.8478,-0.8245,-0.8224,0.0,0.0,0.0,0.0,0.0,0.0,0.0,0.0,0.0,0.0,0.0,0.0,0.0,0.0,0.0,0.0,0.0,0.0,0.0,0.0,-0.8606,0.0,0.0,0.0,0.0,0.0,0.0,0.0,0.0,0.0,0.0,-1.0941,-1.0954,-1.1032,-1.1032,0.0,0.0,0.0,0.0,-1.1664,-1.1768,-1.184,-1.188,-1.2159,-1.1527,-1.1376,-1.2529,0.0,0.0,-1.3685,-1.3838,-1.3907,-1.415,-1.4165,-1.3949,-1.3135,-1.3322,-1.3618,-1.3912,-1.4491,-1.4956,-1.5039,-1.5142,-1.5431,-1.2208,0.0,0.0,0.0,0.0,-1.184,-1.1908,-1.1908,-1.2119,-1.2187,-1.2255,-1.2458,0.0,0.0,0.0,0.0,0.0,0.0,-1.2999,-1.3155,-1.3155,-1.3338,-1.3638,-1.3492,-1.346,-1.3608,-1.3549,-1.3508,-1.3508,-1.3196,-1.2628,-1.1913,0.0,0.0,0.0,0.0,-1.1363,-1.1365,-1.115,-1.1039,-1.1037,-1.0891,-1.0692,-1.0442,-1.0114,-0.9949,-0.9949,-0.9691,-0.958,-0.9498,-0.9256,0.0,0.0,0.0,0.0,0.0,0.0,0.0,0.0,0.0,0.0,0.0,0.0,0.0,0.0,0.0,0.0,0.0,0.0,0.0,-0.9194,-0.9601,-1.0013,0.0,0.0,0.0,0.0,0.0,0.0,0.0,0.0,0.0,-1.2295,-1.2011,-1.1842,0.0,0.0,-1.2239,-1.2239,-1.2239,-1.2239,-1.2295,0.0,0.0,0.0,-1.2401,-1.2494,-1.3059,-1.3313,-1.392,-1.539,-1.4854,-1.4364,-1.4826,-1.4775,-1.458,-1.444,-1.4388,-1.4479,-1.4645,-1.4956,-1.5247,-1.5455,-1.5661,-1.5836,-1.3419,-1.3175,-1.262,-1.2566,-1.279,-1.2862,-1.2899,-1.2985,-1.3186,-1.3322,-1.3413,-1.3615,-1.3724,-1.3724,-1.3866,0.0,0.0,0.0,-1.3981,-1.4179,-1.4172,-1.4311,-1.4622,-1.4478,-1.4498,-1.4528,-1.4457,-1.4372,-1.4372,-1.4379,-1.4021,-1.3346,0.0,0.0,-1.2576,-1.25,-1.2424,-1.2418,-1.208,-1.1947,-1.1947,-1.1689,-1.1556,-1.1392,-1.1127,-1.0981,-1.0975,-1.071,-1.0558,-1.0619,-1.0286,-1.0059,0.0,0.0,0.0,0.0,0.0,0.0,0.0,0.0,0.0,0.0,0.0,-0.8582,-0.8705,0.0,0.0,0.0,-0.9193,-0.9535,-1.012,-1.0413,0.0,0.0,0.0,0.0,0.0,0.0,0.0,-1.3079,-1.3381,-1.3528,-1.3528,-1.3292,-1.2994,-1.2603,-1.2911,-1.3204,-1.3279,0.0,-1.33,-1.33,-1.3357,-1.3414,-1.3471,-1.351,-1.3727,-1.4251,-1.4511,-1.5014,-1.5967,-1.5581,-1.5219,-1.5543,-1.5577,-1.5579,-1.5741,-1.5795,-1.5721,-1.5563,-1.5839,-1.6181,-1.6372,-1.6594,-1.6763,-1.4413,-1.4703,-1.433,-1.4073,-1.3981,-1.4145,-1.4362,-1.4545,-1.4757,-1.4911,-1.511,-1.5088,-1.515,-1.515,-1.515,0.0,-1.5227,-1.5227,-1.5211,-1.5227,-1.5157,-1.5165,-1.5196,-1.5188,-1.5133,-1.5156,-1.5156,-1.5156,-1.5164,-1.5164,-1.5071,-1.4907,-1.4366,-1.4037,-1.3988,-1.3738,-1.3666,-1.366,-1.3151,-1.2932,-1.2932,-1.2641,-1.2405,-1.2405,-1.2202,-1.2046,-1.204,-1.1763,-1.1607,-1.16,-1.1323,-1.1095,-1.1088,0.0,0.0,0.0,0.0,0.0,0.0,0.0,0.0,0.0,0.0,0.0,0.0,0.0,0.0,0.0,-1.0315,0.0,-1.0974,-1.1145,0.0,0.0,0.0,-1.2371,-1.253,-1.3295,-1.3756,-1.3814,0.0,0.0,-1.4634,0.0,-1.43,-1.3353,-1.3812,-1.4327,-1.4543,-1.4529,-1.4538,-1.4542,-1.4579,-1.4638,-1.4632,-1.4613,-1.4866,-1.5662,-1.5838,-1.5816,-1.6077,-1.6161,-1.6218,-1.6368,-1.6581,-1.6719,-1.7,-1.7135,-1.7192,-1.6591,-1.6907,-1.7346,-1.7457,-1.7665,-1.7872,-1.5755,-1.6023,-1.6043,-1.5523,-1.4606,-1.4676,-1.4742,-1.4927,-1.5003,-1.504,-1.5124,-1.5273,-1.5466,-1.5766,-1.5904,-1.6057,-1.598,-1.598,-1.5972,-1.598,-1.5835,-1.5825,-1.5921,-1.5779,-1.5759,-1.5835,-1.5851,-1.5843,-1.5843,-1.5851,-1.5843,-1.5769,-1.5606,-1.5182,-1.4387,-1.4279,-1.4279,-1.4279,-1.4129,-1.4086,-1.4079,-1.3777,-1.3604,-1.3611,-1.3243,-1.3085,-1.315,-1.2785,-1.262,-1.2606,-1.238,-1.2208,-1.2215,-1.2143,0.0,0.0,0.0,0.0,0.0,0.0,0.0,0.0,0.0,-1.0186,-1.0186,0.0,-1.0093,0.0,-1.0766,-1.1207,-1.1935,-1.2149,0.0,0.0,-1.3364,-1.3667,-1.3952,-1.4277,-1.4508,-1.4702,-1.5229,-1.5597,-1.5537,-1.5614,-1.5392,-1.4653,-1.4634,-1.4784,-1.5136,-1.5107,-1.5088,-1.5177,-1.5177,-1.5177,-1.5245,-1.5362,-1.5712,-1.6451,-1.6389,-1.6327,-1.6722,-1.6782,-1.6786,-1.6853,-1.7078,-1.7301,-1.7534,-1.7645,-1.7831,-1.787,-1.7829,-1.781,-1.792,-1.8139,-1.8356,-1.6506,-1.6558,-1.6823,-1.6566,-1.5965,-1.5881,-1.5947,-1.6126,-1.5936,-1.6006,-1.6229,-1.6285,-1.6395,-1.6632,-1.6773,-1.6773,-1.6773,-1.6773,-1.6773,-1.6781,-1.6702,-1.6651,-1.6766,-1.6613,-1.6636,-1.6664,-1.6664,-1.6656,-1.6656,-1.6664,-1.6664,-1.6664,-1.6664,-1.6377,-1.5841,-1.5427,-1.5195,-1.5188,-1.5046,-1.4904,-1.4754,-1.4721,-1.4615,-1.4615,-1.438,-1.4278,-1.4213,-1.3894,-1.3712,-1.3704,-1.347,-1.3302,-1.3294,-1.3149,-1.2989,0.0,0.0,0.0,0.0,0.0,0.0,0.0,0.0,0.0,0.0,0.0,-1.1271,-1.1947,-1.2202,-1.2647,-1.3305,-1.3585,-1.3917,-1.4231,-1.4639,-1.501,-1.5265,-1.551,-1.5693,-1.5885,-1.6272,-1.6533,-1.6604,-1.6609,-1.6475,-1.6049,-1.6186,-1.6138,-1.5684,-1.5595,-1.5556,-1.571,-1.57,-1.5838,-1.6077,-1.6475,-1.6876,-1.7225,-1.736,-1.7334,-1.7327,-1.7424,-1.7497,-1.7356,-1.7523,-1.7799,-1.803,-1.8127,-1.8391,-1.8963,-1.9064,-1.8807,-1.8511,-1.8625,-1.8827,-1.7033,-1.7047,-1.7201,-1.7466,-1.7746,-1.7501,-1.7461,-1.7589,-1.7199,-1.73,-1.7729,-1.7631,-1.7622,-1.7622,-1.7614,-1.7614,-1.7614,-1.7614,-1.7614,-1.7614,-1.7614,-1.7532,-1.7532,-1.754,-1.7532,-1.7532,-1.7532,-1.7532,-1.7532,-1.7532,-1.7532,-1.7532,-1.7532,-1.7532,-1.7532,-1.6798,-1.6337,-1.6252,-1.5959,-1.5659,-1.5358,-1.5529,-1.5583,-1.5567,-1.5479,-1.5362,-1.5362,-1.5081,-1.4897,-1.4848,-1.4638,-1.4445,-1.4396,-1.4106,-1.398,0.0,-1.3931,0.0,0.0,0.0,0.0,0.0,0.0,0.0,0.0,-1.2469,-1.297,-1.3971,-1.4107,-1.4298,-1.4811,-1.5154,-1.5339,-1.5404,-1.5799,-1.6192,-1.6402,-1.6655,-1.6908,-1.7044,-1.7324,-1.7553,-1.7615,-1.7625,-1.7636,-1.7688,-1.8154,-1.7983,-1.6711,-1.6341,-1.6321,-1.6345,-1.6393,-1.6736,-1.7176,-1.7683,-1.8047,-1.8129,-1.8319,-1.8403,-1.8002,-1.8239,-1.8395,-1.8137,-1.8237,-1.8467,-1.8814,-1.8946,-1.9263,-2.0135,-2.0427,-2.0182,-1.945,-1.9449,-1.945,-1.7957,-1.8195,-1.8362,-1.8629,-1.8902,-1.9034,-1.875,-1.8029,-1.8159,-1.8284,-1.8369,-1.8446,-1.8539,-1.8539,-1.8786,-1.888,-1.8871,-1.888,-1.8871,-1.8871,-1.8625,-1.8539,-1.8531,-1.836,-1.8267,-1.8267,-1.8267,-1.8267,-1.8267,-1.8267,-1.8267,-1.8267,-1.8267,-1.8267,-1.8267,0.0,0.0,0.0,-1.7082,-1.7017,-1.6936,-1.673,-1.6661,-1.6645,-1.6461,0.0,-1.6422,-1.6497,-1.6402,-1.6041,-1.6029,0.0,0.0,0.0,0.0,0.0,0.0,0.0,0.0,0.0,0.0,0.0,-1.4965,-1.462,-1.4112,-1.4289,-1.4792,-1.5606,-1.5432,-1.534,-1.5735,-1.5946,-1.6138,-1.6246,-1.6583,-1.6855,-1.6845,-1.7169,-1.7346,-1.7419,-1.803,-1.8438,-1.8522,-1.8891,-1.9211,-1.9484,-1.9961,-1.9823,-1.8994,-1.807,-1.7632,-1.7804,-1.7871,-1.8055,-1.8223,-1.8473,-1.8796,-1.8808,-1.8917,-1.9074,-1.9186,-1.9493,-1.9785,-1.9713,-1.992,-2.0181,-2.0519,-2.0611,-2.0742,-2.1403,-2.1606,-2.1526,-2.0958,-2.1087,-2.1201,-1.9059,0.0,-1.9628,-1.9719,0.0,-1.9937,-1.9662,-1.8986,-1.8799,-1.8764,-1.8826,-1.9076,-1.9256,-1.9333,-1.9504,-1.9504,-1.9598,-1.9504,-1.9512,-1.9504,-1.9418,-1.9333,-1.9333,-1.9239,-1.9162,-1.9239,-1.9153,-1.9153,-1.9153,-1.9239,-1.9239,-1.9239,-1.9153,-1.9153,-1.9153,-1.9153,-1.8795,-1.7829,-1.7829,-1.7828,-1.7716,-1.7692,-1.7669,-1.7661,0.0,0.0,0.0,0.0,0.0,0.0,0.0,0.0,0.0,0.0,0.0,-1.6421,-1.6294,-1.6224,-1.6093,-1.6266,-1.64,-1.6476,-1.6741,-1.6271,-1.4989,-1.5321,-1.6095,-1.7171,-1.6795,-1.658,-1.692,-1.7203,-1.7399,-1.752,-1.779,-1.806,-1.8124,-1.8263,-1.8456,-1.8531,-1.8966,-1.9297,-1.9362,-1.949,-1.9782,-2.0231,-2.0801,-2.1009,-2.037,-1.9254,-1.8455,-1.8577,-1.8967,-1.921,-1.9354,-1.9638,-1.9896,-2.0081,-2.0255,-2.0335,-2.0188,-2.0606,-2.0875,-2.0704,-2.0917,-2.1188,-2.1493,-2.1592,-2.1865,-2.2509,-2.2779,-2.2952,-2.2998,-2.2698,-2.2146,-1.9965,-2.0063,-2.0564,-2.0575,-2.0268,-2.0634,-2.0531,-2.0256,0.0,0.0,0.0,-1.9704,-1.9868,-2.0134,-2.0125,-2.0125,-2.0134,-2.0125,-2.0125,-2.0125,-2.0125,-2.0125,-2.0134,-2.0125,-2.0048,-2.0134,-2.0125,-2.0039,-2.0125,-2.0134,-2.0125,-2.0125,-2.0125,-2.0039,-2.0125,-2.0125,-1.9683,-1.8819,-1.865,-1.8471,-1.8327,-1.8493,-1.8619,-1.8619,-1.8478,-1.8351,-1.8351,-1.8352,-1.8302,-1.8229,-1.8443,-1.8481,-1.8387,-1.807,-1.7893,-1.7875,-1.7779,-1.7719,-1.7729,-1.7996,-1.8134,-1.8203,-1.8418,-1.7715,-1.5753,-1.6279,-1.7307,-1.8598,-1.8107,-1.7873,-1.8172,-1.8462,-1.8643,-1.871,-1.8998,-1.9264,-1.9407,-1.9473,-1.9573,-1.9736,-1.9911,-2.0064,-2.015,-1.9987,-1.9965,-2.059,-2.125,-2.162,-2.1244,-2.0144,-1.9354,-1.9499,-1.989,-2.0217,-2.046,-2.0751,-2.1135,-2.133,-2.1604,-2.1685,-2.1511,-2.1668,-2.1851,-2.1818,-2.1895,-2.2214,-2.248,-2.2685,-2.3012,-2.3807,-2.4012,-2.4284,-2.483,-2.419,-2.3326,-2.037,-2.066,-2.095,-2.1013,-2.1024,-2.1437,-2.1666,-2.1758,-2.0863,-2.0613,-2.0739,-2.0748,-2.0829,-2.0829,-2.0829,-2.0829,-2.0837,-2.0837,-2.0829,0.0,-2.0837,-2.0829,-2.0829,-2.0829,-2.0829,-2.0829,-2.082,-2.0829,-2.0829,-2.0829,-2.0829,-2.082,-2.0829,-2.082,-2.0837,-2.0829,-2.0819,-2.0694,-2.0009,-1.9645,-1.9676,-1.9513,-1.9416,-1.9389,-1.9368,-1.9395,-1.9386,-1.9722,-1.9841,-1.9506,-1.9628,-1.9603,-1.9224,-1.9311,-1.9416,-1.9426,-1.9511,-1.9666,-1.9717,-1.9798,-1.9951,-2.0082,-1.9823,-1.8879,-1.735,-1.7972,-1.8696,-1.9393,-1.909,-1.8936,-1.9075,-1.9142,-1.9274,-1.9396,-1.966,-1.9802,-1.9802,-2.0074,-2.0205,-2.0281,-2.0464,-2.0604,-2.0582,-2.0526,-2.0621,-2.1071,-2.1481,-2.1757,-2.1749,-2.1255,-2.09,-2.0888,-2.1049,-2.1283,-2.1374,-2.1592,-2.1851,-2.2161,-2.2347,-2.2604,-2.2698,-2.2971,-2.3301,-2.358,-2.3694,-2.3949,-2.4286,-2.4536,-2.4679,-2.5053,-2.5204,-2.5425,-2.5729,-2.5546,-2.5434,-2.1337,-2.1536,-2.194,-2.2016,-2.1801,-2.199,-2.22,-2.2391,-2.1952,-2.1808,-2.1803,-2.1597,-2.159,-2.1653,-2.1455,-2.1365,-2.1374,-2.1365,-2.1365,-2.1365,-2.1374,-2.1365,-2.1365,-2.1365,-2.1365,-2.1365,-2.1365,-2.1374,-2.1374,-2.1553,-2.1642,-2.1633,-2.1722,-2.1713,-2.1713,-2.1802,-2.1799,-2.1789,-2.0957,-2.0552,-2.0596,-2.0495,-2.0485,-2.0476,-2.0329,-2.0282,-2.0282,-2.0537,-2.0556,-2.0532,-2.0665,-2.0793,-2.0731,-2.0645,-2.0595,-2.0648,-2.0719,-2.0797,-2.0846,-2.0907,-2.0988,-2.1058,-2.0995,-2.0498,-1.9561,-1.9318,-1.9515,-2.0139,-1.9845,-1.9649,-1.9726,-1.9802,-1.9944,-2.0009,-2.0205,-2.0335,-2.0335,-2.0529,-2.0658,-2.0711,-2.0903,-2.1083,-2.1094,-2.1003,-2.1106,-2.1514,-2.1886,-2.2135,-2.2432,-2.2285,-2.2037,-2.1812,-2.1851,-2.1928,-2.2027,-2.2298,-2.2531,-2.2591,-2.3062,-2.3399,-2.3636,-2.3956,-2.4319,-2.4536,-2.4751,-2.4964,-2.5272,-2.5453,-2.566,-2.5851,-2.6014,-2.619,-2.6312,-2.6539,-2.6539,-2.2232,-2.2333,-2.2846,-2.2889,-2.2698,-2.2672,-2.2779,-2.3063,-2.3072,-2.3125,-2.3085,-2.2508,-2.2373,-2.2612,-2.2316,-2.2187,-2.2187,-2.2187,-2.2187,-2.2178,-2.2178,-2.2178,-2.2187,-2.2187,-2.2187,-2.2178,-2.2187,-2.2187,-2.2187,-2.2367,-2.241,-2.2326,-2.24,-2.2441,-2.2441,-2.2441,-2.253,-2.2511,-2.1936,-2.1616,-2.1569,-2.1549,-2.1492,-2.1547,-2.1399,-2.1348,-2.1328,-2.1332,-2.1413,-2.1578,-2.1706,-2.1883,-2.2004,-2.1914,-2.1849,-2.1891,-2.1951,-2.1969,-2.2039,-2.2099,-2.2147,-2.2218,-2.2199,-2.2146,-2.1782,-2.0939,-2.0566,-2.1062,-2.0886,-2.0665,-2.0688,-2.0819,-2.0917,-2.0917,-2.1124,-2.1246,-2.1266,-2.1384,-2.1426,-2.1491,-2.1748,-2.19,-2.1881,-2.1572,-2.1569,-2.2185,-2.2494,-2.2726,-2.2969,-2.309,-2.2969,-2.2775,-2.2653,-2.2555,-2.2457,-2.2917,-2.3204,-2.3018,-2.3709,-2.4221,-2.4478,-2.4778,-2.5118,-2.5272,-2.5467,-2.5687,-2.5879,-2.6111,-2.6326,-2.6472,-2.6616,-2.6721,-2.6893,-2.7115,-2.7167,-2.2627,-2.2946,-2.3256,-2.3464,-2.3646,-2.3845,-2.3996,-2.4319,-2.4524,-2.473,-2.45,-2.3588,-2.3355,-2.3522,-2.3475,-2.3428,-2.3428,-2.3559,-2.3447,-2.3438,-2.3559,-2.3466,-2.3428,-2.3447,-2.3559,-2.3447,-2.3428,-2.34,-2.34,-2.3521,-2.3369,-2.3009,-2.2631,-2.2441,-2.2441,-2.2618,-2.2882,-2.3047,-2.3193,-2.3066,-2.2669,-2.2485,-2.2451,-2.2601,-2.2674,-2.2676,-2.2666,-2.2666,-2.2741,-2.2865,-2.2723,-2.2713,-2.2863,-2.3032,-2.3231,-2.3356,-2.3543,-2.3761,-2.3895,-2.3979,-2.3933,-2.3944,-2.3521,-2.3525,-2.377,-2.3109,-2.2672,-2.2617,-2.2412,-2.2207,-2.2287,-2.2343,-2.2398,-2.2363,-2.2555,-2.275,-2.2747,-2.2951,-2.3097,-2.3285,-2.3221,-2.3394,-2.3311,-2.2607,-2.233,-2.3391,-2.346,-2.3492,-2.3646,-2.3713,-2.3878,-2.3897,-2.3662,-2.3255,-2.3153,-2.3559,-2.3995,-2.4019,-2.45,-2.4991,-2.5369,-2.5633,-2.5879,-2.6082,-2.6297,-2.6404,-2.6578,-2.6765,-2.6937,-2.7063,-2.7218,-2.7386,-2.7488,-2.764,-2.764,-2.2946,-2.3247,-2.3546,-2.3881,-2.4216,-2.4486,-2.4599,-2.4701,-2.4837,-2.4982,-2.5099,-2.4659,-2.4383,-2.4051,-2.3795,-2.3682,-2.3682,-2.3682,-2.3682,-2.3682,-2.3682,-2.3682,-2.3682,-2.3682,-2.3682,-2.3682,-2.3682,-2.3682,-2.3775,-2.4063,-2.4035,-2.3728,-2.3603,-2.3487,-2.3251,-2.3319,-2.3493,-2.3764,-2.3851,-2.3937,-2.3993,-2.367,-2.3589,-2.3624,-2.3638,-2.371,-2.3832,-2.3684,-2.3835,-2.4193,-2.4161,-2.4169,-2.4202,-2.4414,-2.4351,-2.4162,-2.4345,-2.4478,-2.4683,-2.4671,-2.4743,-2.4826,-2.4696,-2.4661,-2.4837,-2.4541,-2.4352,-2.4189,-2.3489,-2.298,-2.2991,-2.3068,-2.3136,-2.3203,-2.3337,-2.3482,-2.3471,-2.3694,-2.3815,-2.3935,-2.4067,-2.4222,-2.4357,-2.4163,-2.4255,-2.4952,-2.4801,-2.4523,-2.4616,-2.4543,-2.4576,-2.4765,-2.4637,-2.4302,-2.394,-2.4376,-2.4854,-2.5148,-2.5494,-2.5948,-2.6375,-2.649,-2.6563,-2.6788,-2.6959,-2.7115,-2.7218,-2.7372,-2.7488,-2.764,-2.784,-2.8005,-2.8039,-2.8186,-2.8186,-2.3604,-2.3707,-2.39,-2.427,-2.4594,-2.4881,-2.5001,-2.5004,-2.5139,-2.5285,-2.5528,-2.5625,-2.5363,-2.4862,-2.4535,-2.44,-2.4494,-2.4494,-2.4494,-2.4494,-2.4494,-2.4494,-2.4494,-2.4494,-2.4494,-2.4494,-2.4513,-2.4504,-2.4475,-2.4648,-2.472,-2.4615,-2.4746,-2.4553,-2.4159,-2.4196,-2.4308,-2.4378,-2.4444,-2.469,-2.4946,-2.4956,-2.47,-2.4584,-2.4703,-2.4844,-2.4999,-2.4891,-2.5036,-2.5564,-2.5506,-2.5421,-2.5477,-2.5679,-2.5601,-2.5309,-2.5289,-2.5338,-2.5445,-2.5384,-2.537,-2.5511,-2.5581,-2.5581,-2.5594,-2.5581,-2.5581,-2.5508,-2.4695,-2.415,-2.3934,-2.4058,-2.4181,-2.4249,-2.4371,-2.4493,-2.4505,-2.4627,-2.4876,-2.5025,-2.5269,-2.5277,-2.5499,-2.5678,-2.6096,-2.6835,-2.6324,-2.5748,-2.5886,-2.5765,-2.5723,-2.5799,-2.5911,-2.5619,-2.4886,-2.5149,-2.5728,-2.6082,-2.6365,-2.6703,-2.729,-2.7233,-2.7225,-2.7408,-2.7539,-2.7705,-2.779,-2.789,-2.8024,-2.8171,-2.8365,-2.8589,-2.8573,-2.8668,-2.8763,-2.4684,-2.4407,-2.4417,-2.4674,-2.4941,-2.5254,-2.5314,-2.5334,-2.5771,-2.6091,-2.61,-2.6304,-2.639,-2.634,-2.5972,-2.6118,-2.631,-2.627,-2.6164,-2.6154,-2.628,-2.632,-2.635,-2.635,-2.631,-2.6124,-2.6114,-2.6154,-2.624,-2.5899,-2.5698,-2.5712,-2.5605,-2.5368,-2.4989,-2.5249,-2.5312,-2.504,-2.5295,-2.5454,-2.5527,-2.603,-2.603,-2.56,-2.583,-2.6119,-2.6333,-2.6197,-2.6257,-2.6755,-2.6534,-2.6458,-2.6649,-2.68,-2.6976,-2.7077,-2.681,-2.6613,-2.6611,-2.6346,-2.6201,-2.6188,-2.6302,-2.6346,-2.6346,-2.6346,-2.6358,-2.6333,-2.6221,-2.5965,-2.555,-2.5558,-2.5758,-2.5896,-2.6015,-2.6058,-2.6221,-2.6176,-2.6463,-2.6684,-2.6809,-2.683,-2.6852,-2.703,-2.7691,-2.8296,-2.7825,-2.7088,-2.7239,-2.7432,-2.7413,-2.7327,-2.7334,-2.7201,-2.6184,-2.6054,-2.6404,-2.675,-2.7107,-2.7328,-2.7673,-2.7971,-2.7951,-2.8024,-2.8171,-2.8284,-2.8348,-2.8396,-2.8525,-2.8653,-2.8873,-2.9013,-2.9075,-2.9075,-2.9121,-2.5081,-2.5358,-2.5701,-2.5772,-2.5664,-2.6035,-2.6035,-2.5868,-2.6177,-2.64,-2.64,-2.6496,-2.6592,-2.6805,-2.687,-2.6678,-2.6496,-2.6496,-2.6496,-2.6496,-2.6496,-2.6496,-2.6496,-2.6496,-2.6496,-2.6496,-2.6496,-2.6592,-2.6754,-2.6886,-2.6754,-2.6579,-2.6679,-2.6536,-2.6303,-2.6062,-2.6087,-2.6247,-2.6206,-2.6196,-2.6385,-2.6869,-2.7103,-2.6999,-2.6846,-2.701,-2.7313,-2.7232,-2.7472,-2.8052,-2.8005,-2.7908,-2.7873,-2.7841,-2.7804,-2.7865,-2.7776,-2.7736,-2.7733,-2.7339,-2.7189,-2.7234,-2.7109,-2.6998,-2.6985,-2.7053,-2.7121,-2.7121,-2.7108,-2.6985,-2.685,-2.6577,-2.6508,-2.6701,-2.685,-2.6918,-2.7108,-2.7242,-2.7377,-2.7643,-2.7881,-2.8034,-2.788,-2.8211,-2.8934,-2.9756,-2.9114,-2.8647,-2.8639,-2.8642,-2.8594,-2.8653,-2.8769,-2.8669,-2.807,-2.7269,-2.713,-2.7548,-2.7881,-2.7966,-2.821,-2.8424,-2.8462,-2.8494,-2.87,-2.8842,-2.8842,-2.9029,-2.9121,-2.9198,-2.9409,-2.9499,-2.956,-2.956,-2.956,-2.5878,-2.6258,-2.6548,-2.6647,-2.6486,-2.6894,-2.6913,-2.6665,-2.6929,-2.7114,-2.7191,-2.7079,-2.7201,-2.7458,-2.7514,-2.7347,-2.6955,-2.6955,-2.6965,-2.6965,-2.6965,-2.6965,-2.6965,-2.6965,-2.6965,-2.6955,-2.6965,-2.7061,-2.7241,-2.7631,-2.7651,-2.7458,-2.7714,-2.7731,-2.7555,-2.7316,-2.7314,-2.7301,-2.7194,-2.7204,-2.7231,-2.7684,-2.7995,-2.8143,-2.7983,-2.7971,-2.8131,-2.8223,-2.8462,-2.8949,-2.9118,-2.9269,-2.9265,-2.9136,-2.9007,-2.9068,-2.889,-2.886,-2.8869,-2.8479,-2.8324,-2.8381,-2.8095,-2.7878,-2.7865,-2.7841,-2.7802,-2.7868,-2.7868,-2.7855,-2.7789,-2.7523,-2.731,-2.7377,-2.7456,-2.759,-2.7868,-2.8039,-2.8222,-2.8546,-2.8867,-2.8919,-2.8726,-2.9268,-2.9988,-3.078,-3.0276,-3.0017,-3.0119,-3.0083,-2.9863,-3.0057,-3.0213,-3.0121,-2.972,-2.9195,-2.8293,-2.848,-2.8437,-2.8552,-2.8745,-2.892,-2.8982,-2.9013,-2.9106,-2.9289,-2.9441,-2.9605,-2.9694,-2.9722,-2.9913,-3.0044,-3.0044,-3.0027,-3.0027,-2.6921,-2.716,-2.7065,-2.7231,-2.7383,-2.7783,-2.7905,-2.7884,-2.8076,-2.8274,-2.851,-2.8425,-2.8421,-2.854,-2.8338,-2.8083,-2.8125,-2.8157,-2.802,-2.7978,-2.801,-2.802,-2.8041,-2.8063,-2.8063,-2.8136,-2.804,-2.803,-2.8062,-2.8322,-2.8466,-2.856,-2.8866,-2.899,-2.8824,-2.889,-2.8646,-2.8337,-2.843,-2.8386,-2.7973,-2.8558,-2.8955,-2.9089,-2.9209,-2.9184,-2.887,-2.904,-2.9197,-2.9509,-2.9831,-3.0228,-3.0558,-3.0556,-3.0696,-3.0764,-3.0398,-3.0124,-3.0105,-2.9789,-2.9544,-2.9535,-2.9223,-2.908,-2.908,-2.8704,-2.8525,-2.8682,-2.8627,-2.8587,-2.8587,-2.8587,-2.8365,-2.8105,-2.8039,-2.8183,-2.8509,-2.8753,-2.898,-2.9484,-2.9732,-2.9771,-2.975,-3.0139,-3.082,-3.1353,-3.1279,-3.1172,-3.1372,-3.155,-3.1683,-3.1597,-3.1579,-3.154,-3.1388,-3.113,-3.0115,-2.9359,-2.9155,-2.9061,-2.9374,-2.9589,-2.9457,-2.9499,-2.9633,-2.981,-2.9957,-3.0087,-3.0199,-3.0284,-3.0426,-3.0526,-3.051,-3.051,-3.051,-2.7883,-2.797,-2.8361,-2.8361,-2.8274,-2.8717,-2.8767,-2.8531,-2.8838,-2.9137,-2.9204,-2.9362,-2.9493,-2.9559,-2.9709,-2.9729,-2.9836,-2.9921,-2.9565,-2.8679,-2.8924,-2.9052,-2.9052,-2.9257,-2.9365,-2.9493,-2.939,-2.9332,-2.9266,-2.9398,-2.9427,-2.9508,-2.968,-2.9966,-3.0042,-2.9897,-2.9764,-2.9789,-2.9846,-2.9903,-2.9861,-2.9856,-3.0002,-3.0256,-3.0175,-3.0062,-3.0139,-2.9908,-2.9998,-3.0279,-3.0457,-3.0698,-3.1061,-3.1211,-3.1373,-3.1569,-3.1509,-3.1362,-3.1414,-3.1043,-3.0764,-3.074,-3.0432,-3.0256,-3.0362,-2.9986,-2.9771,-2.9817,-2.9539,-2.9289,-2.9289,-2.9401,-2.9261,-2.883,-2.8753,-2.8944,-2.9373,-2.9685,-2.9979,-3.0343,-3.0539,-3.0497,-3.047,-3.0866,-3.1599,-3.2216,-3.2042,-3.181,-3.2266,-3.2547,-3.2765,-3.2819,-3.2934,-3.2918,-3.2689,-3.2531,-3.2078,-3.1099,-3.0589,-3.0114,-3.0296,-3.0263,-3.0124,-3.0044,-3.0199,-3.0326,-3.0485,-3.0551,-3.0658,-3.0757,-3.0895,-3.0935,-3.0975,-3.0975,-3.0958,-2.8717,-2.8824,-2.9248,-2.9411,-2.9249,-2.9663,-2.9824,-2.9674,-2.9944,-3.0246,-3.0424,-3.0449,-3.0472,-3.0624,-3.0763,-3.0868,-3.0987,-3.1337,-3.1076,-3.0207,-2.9981,-3.0014,-3.0123,-3.0209,-3.0491,-3.063,-3.0555,-3.0404,-3.0308,-3.0398,-3.0331,-3.0262,-3.0487,-3.0758,-3.1015,-3.0873,-3.091,-3.1027,-3.1124,-3.1129,-3.1128,-3.1128,-3.109,-3.1188,-3.1164,-3.112,-3.1114,-3.0924,-3.0836,-3.0911,-3.1061,-3.136,-3.1716,-3.1863,-3.2009,-3.2228,-3.23,-3.2359,-3.2519,-3.2203,-3.2067,-3.1957,-3.164,-3.1511,-3.1601,-3.127,-3.1055,-3.0842,-3.0606,-3.0278,-3.0125,-3.0129,-3.0054,-2.9946,-2.9699,-2.9761,-3.0176,-3.0553,-3.0911,-3.1204,-3.1379,-3.1302,-3.1354,-3.1656,-3.2354,-3.2918,-3.2648,-3.2446,-3.3008,-3.3298,-3.3575,-3.3781,-3.3903,-3.386,-3.3859,-3.3853,-3.3879,-3.3126,-3.2315,-3.1785,-3.154,-3.1221,-3.1014,-3.0726,-3.0716,-3.0821,-3.0975,-3.1038,-3.11,-3.1252,-3.1329,-3.1368,-3.1406,-3.1406,-3.1406,-2.9333,-2.9659,-2.9994,-3.0183,-3.0359,-3.0681,-3.0949,-3.1176,-3.1257,-3.1531,-3.1849,-3.1617,-3.1561,-3.1746,-3.1757,-3.1791,-3.1723,-3.2328,-3.2512,-3.2168,-3.1768,-3.1308,-3.1319,-3.1319,-3.1427,-3.1661,-3.1536,-3.1441,-3.132,-3.1356,-3.1192,-3.0898,-3.1163,-3.1484,-3.1737,-3.1889,-3.1982,-3.198,-3.2206,-3.2193,-3.2021,-3.2272,-3.2358,-3.2032,-3.2156,-3.2093,-3.2031,-3.193,-3.173,-3.1495,-3.173,-3.2082,-3.2345,-3.2417,-3.2632,-3.2931,-3.3058,-3.3129,-3.3269,-3.3283,-3.3255,-3.3199,-3.2982,-3.2887,-3.2935,-3.263,-3.2275,-3.2013,-3.1707,-3.1419,-3.1086,-3.0925,-3.1029,-3.1204,-3.0777,-3.0673,-3.1029,-3.1364,-3.1652,-3.1894,-3.212,-3.2195,-3.1989,-3.2455,-3.3036,-3.3477,-3.3346,-3.3395,-3.3614,-3.3949,-3.425,-3.4448,-3.4643,-3.4783,-3.4751,-3.4856,-3.4875,-3.4667,-3.3929,-3.3428,-3.2652,-3.2193,-3.1648,-3.1365,-3.1173,-3.1329,-3.1445,-3.1504,-3.1579,-3.1728,-3.1783,-3.1837,-3.1837,-3.1837,-3.1871,-2.9879,-3.0183,-3.0713,-3.092,-3.1013,-3.1424,-3.1732,-3.1823,-3.224,-3.2443,-3.26,-3.2921,-3.3017,-3.3116,-3.3308,-3.3359,-3.3348,-3.3562,-3.3656,-3.3644,-3.3441,-3.3163,-3.2955,-3.2932,-3.3019,-3.3266,-3.2916,-3.2875,-3.2972,-3.2459,-3.2201,-3.2202,-3.2095,-3.2201,-3.245,-3.2711,-3.292,-3.3025,-3.3411,-3.3598,-3.3641,-3.3509,-3.3582,-3.3752,-3.3181,-3.2922,-3.2913,-3.2808,-3.2489,-3.22,-3.2503,-3.2704,-3.2846,-3.2988,-3.3199,-3.3437,-3.3563,-3.3701,-3.3908,-3.4045,-3.4128,-3.4113,-3.4114,-3.4161,-3.4324,-3.3936,-3.3716,-3.352,-3.3019,-3.2392,-3.2197,-3.198,-3.1996,-3.216,-3.1823,-3.1625,-3.1838,-3.2089,-3.2336,-3.2353,-3.2594,-3.2632,-3.2604,-3.3008,-3.367,-3.4105,-3.4163,-3.4054,-3.4366,-3.4708,-3.503,-3.5088,-3.5258,-3.547,-3.5661,-3.5776,-3.5873,-3.5908,-3.5463,-3.501,-3.4067,-3.3093,-3.2395,-3.1747,-3.1631,-3.1691,-3.1802,-3.1912,-3.2055,-3.2126,-3.2161,-3.2197,-3.2179,-3.2196,-3.2336,-3.0703,-3.1105,-3.1424,-3.1629,-3.1936,-3.2229,-3.2454,-3.2679,-3.2958,-3.3235,-3.3434,-3.3744,-3.3941,-3.3941,-3.4335,-3.4555,-3.4555,-3.4652,-3.4738,-3.475,-3.4714,-3.4409,-3.4017,-3.404,-3.4237,-3.4519,-3.4221,-3.415,-3.4016,-3.3465,-3.3174,-3.2987,-3.2822,-3.2822,-3.297,-3.3313,-3.3569,-3.3797,-3.4147,-3.4481,-3.4772,-3.4753,-3.466,-3.4654,-3.4093,-3.3776,-3.3601,-3.3466,-3.3283,-3.3072,-3.3213,-3.3339,-3.3479,-3.3632,-3.3839,-3.4142,-3.4249,-3.4385,-3.4572,-3.4773,-3.4839,-3.4971,-3.5088,-3.5299,-3.537,-3.5247,-3.5211,-3.4896,-3.4044,-3.3521,-3.3249,-3.2965,-3.2897,-3.2996,-3.2888,-3.2726,-3.2578,-3.2819,-3.2986,-3.3045,-3.3203,-3.3364,-3.3016,-3.359,-3.4266,-3.4743,-3.479,-3.4818,-3.4991,-3.5467,-3.5746,-3.5718,-3.5827,-3.6045,-3.6156,-3.6266,-3.6392,-3.6498,-3.6464,-3.6115,-3.5232,-3.4083,-3.3356,-3.2693,-3.2314,-3.209,-3.2284,-3.2389,-3.237,-3.2438,-3.2488,-3.2749,-3.2908,-3.305,-3.3103,-3.1629,-3.2128,-3.2117,-3.2432,-3.2846,-3.2958,-3.3204,-3.3561,-3.379,-3.393,-3.4213,-3.4421,-3.4531,-3.4531,-3.503,-3.5223,-3.532,-3.5404,-3.5608,-3.5608,-3.5608,-3.5416,-3.4908,-3.4823,-3.4932,-3.5114,-3.5223,-3.5147,-3.492,-3.4459,-3.4074,-3.387,-3.3483,-3.3401,-3.3594,-3.3894,-3.423,-3.4481,-3.4716,-3.5046,-3.5467,-3.5628,-3.565,-3.5448,-3.5072,-3.4522,-3.417,-3.4045,-3.4059,-3.3799,-3.3839,-3.3977,-3.4196,-3.4399,-3.4668,-3.492,-3.4986,-3.5118,-3.5415,-3.5479,-3.5608,-3.5737,-3.5958,-3.6163,-3.6243,-3.6353,-3.6276,-3.6069,-3.5214,-3.4529,-3.4038,-3.3752,-3.3654,-3.3729,-3.3882,-3.3729,-3.3471,-3.3591,-3.3813,-3.3797,-3.4034,-3.4022,-3.4121,-3.4332,-3.4822,-3.5352,-3.5341,-3.5379,-3.5588,-3.5878,-3.6131,-3.6191,-3.6326,-3.655,-3.6655,-3.6759,-3.6821,-3.6939,-3.7013,-3.6724,-3.6103,-3.5133,-3.4456,-3.3845,-3.3301,-3.2966,-3.2875,-3.2871,-3.2847,-3.3069,-3.3294,-3.3698,-3.4035,-3.4196,-3.4303,-3.2331,-3.2645,-3.3147,-3.3335,-3.3446,-3.3843,-3.4111,-3.4228,-3.4688,-3.4847,-3.4993,-3.5247,-3.532,-3.532,-3.5512,-3.5608,-3.5787,-3.5966,-3.5966,-3.6263,-3.6452,-3.6439,-3.6061,-3.5787,-3.5512,-3.5608,-3.5787,-3.5904,-3.5856,-3.5646,-3.5337,-3.4946,-3.4597,-3.4418,-3.4282,-3.4481,-3.4812,-3.5141,-3.5386,-3.5696,-3.6084,-3.6336,-3.654,-3.6543,-3.6031,-3.5395,-3.4811,-3.4721,-3.4839,-3.489,-3.4839,-3.4773,-3.4787,-3.5037,-3.5285,-3.5494,-3.5703,-3.5831,-3.6022,-3.6196,-3.6336,-3.6507,-3.6616,-3.6799,-3.6982,-3.7118,-3.7235,-3.699,-3.6204,-3.5202,-3.4433,-3.423,-3.425,-3.4431,-3.4561,-3.4642,-3.4626,-3.4431,-3.4382,-3.4464,-3.4675,-3.4947,-3.5088,-3.5081,-3.548,-3.5853,-3.5963,-3.5932,-3.6131,-3.6419,-3.6527,-3.6615,-3.6816,-3.6992,-3.7091,-3.717,-3.7248,-3.7323,-3.7358,-3.7395,-3.6753,-3.6361,-3.5741,-3.4977,-3.4264,-3.3993,-3.3794,-3.3516,-3.3503,-3.3831,-3.4199,-3.4713,-3.5105,-3.5286,-3.563,-3.3224,-3.3545,-3.3831,-3.4139,-3.4347,-3.4676,-3.4822,-3.5029,-3.5235,-3.5426,-3.5593,-3.5833,-3.5991,-3.6156,-3.6263,-3.637,-3.6452,-3.6534,-3.664,-3.6734,-3.6828,-3.6922,-3.7015,-3.6734,-3.6465,-3.637,-3.6452,-3.664,-3.6781,-3.6453,-3.6135,-3.5859,-3.5461,-3.5102,-3.4891,-3.5059,-3.5372,-3.5763,-3.6017,-3.6336,-3.673,-3.6964,-3.7016,-3.7006,-3.6591,-3.604,-3.5463,-3.5394,-3.5574,-3.5816,-3.5864,-3.5672,-3.5509,-3.5752,-3.6006,-3.6243,-3.6368,-3.6554,-3.6754,-3.6876,-3.6997,-3.7238,-3.7342,-3.7535,-3.7711,-3.7886,-3.8059,-3.7899,-3.7048,-3.5847,-3.4873,-3.4771,-3.4913,-3.4991,-3.5178,-3.5316,-3.5379,-3.5148,-3.4961,-3.5038,-3.5241,-3.5492,-3.5707,-3.5773,-3.6044,-3.6423,-3.6362,-3.6367,-3.6615,-3.6851,-3.697,-3.7108,-3.7261,-3.7411,-3.7522,-3.7596,-3.7613,-3.7667,-3.772,-3.7755,-3.7521,-3.7288,-3.7088,-3.635,-3.5598,-3.5109,-3.4853,-3.4514,-3.4425,-3.4933,-3.5393,-3.5836,-3.6194,-3.648,-3.6869,-3.404,-3.4531,-3.4531,-3.4823,-3.5332,-3.5332,-3.555,-3.579,-3.5775,-3.6031,-3.615,-3.6458,-3.664,-3.6815,-3.7095,-3.7188,-3.7294,-3.7307,-3.74,-3.74,-3.7492,-3.7585,-3.7677,-3.7664,-3.7572,-3.7374,-3.7281,-3.7387,-3.7455,-3.7286,-3.7125,-3.673,-3.6292,-3.6026,-3.5859,-3.5817,-3.6017,-3.6401,-3.673,-3.6978,-3.7443,-3.7644,-3.7533,-3.7134,-3.705,-3.6731,-3.6246,-3.6133,-3.6274,-3.66,-3.6937,-3.6738,-3.6507,-3.6476,-3.6769,-3.7027,-3.7087,-3.7222,-3.746,-3.7535,-3.7711,-3.8001,-3.8059,-3.8173,-3.8472,-3.8623,-3.8788,-3.8508,-3.7793,-3.6538,-3.5445,-3.5379,-3.5498,-3.5588,-3.5827,-3.5958,-3.6045,-3.581,-3.5722,-3.5605,-3.581,-3.6019,-3.6165,-3.6259,-3.6631,-3.6847,-3.6766,-3.6816,-3.7108,-3.7317,-3.7392,-3.7485,-3.7631,-3.772,-3.7807,-3.8,-3.8029,-3.8096,-3.8114,-3.8165,-3.8212,-3.8099,-3.7917,-3.7638,-3.7057,-3.644,-3.5975,-3.5702,-3.5791,-3.6168,-3.6512,-3.6857,-3.7253,-3.7658,-3.8026,-3.4835,-3.5126,-3.532,-3.5608,-3.5895,-3.614,-3.636,-3.6518,-3.6672,-3.6841,-3.6951,-3.7188,-3.7307,-3.7387,-3.7546,-3.7821,-3.8018,-3.8122,-3.8317,-3.8317,-3.8317,-3.8317,-3.8408,-3.8562,-3.8549,-3.8459,-3.8277,-3.8109,-3.8187,-3.8339,-3.818,-3.7873,-3.7497,-3.7221,-3.6892,-3.6719,-3.6744,-3.712,-3.7366,-3.7672,-3.8052,-3.8339,-3.8366,-3.782,-3.779,-3.738,-3.6971,-3.6799,-3.6906,-3.7222,-3.7578,-3.7637,-3.7519,-3.7401,-3.746,-3.7637,-3.7754,-3.7886,-3.8132,-3.8262,-3.8375,-3.8583,-3.8678,-3.8843,-3.9115,-3.9242,-3.9401,-3.931,-3.8537,-3.7305,-3.6068,-3.6002,-3.6131,-3.6259,-3.6385,-3.6492,-3.6615,-3.6615,-3.6533,-3.6426,-3.6451,-3.6474,-3.6615,-3.6759,-3.697,-3.7217,-3.7241,-3.7264,-3.7504,-3.7667,-3.7792,-3.788,-3.7966,-3.8011,-3.8034,-3.8277,-3.841,-3.8473,-3.8541,-3.8664,-3.8707,-3.878,-3.8651,-3.8322,-3.7967,-3.7418,-3.7055,-3.6867,-3.7016,-3.7312,-3.76,-3.7877,-3.8192,-3.8507,-3.8637,-3.5596,-3.5883,-3.6073,-3.6345,-3.6559,-3.6887,-3.6975,-3.7189,-3.7387,-3.756,-3.7691,-3.7821,-3.7952,-3.8044,-3.8291,-3.8549,-3.8756,-3.8859,-3.8948,-3.8948,-3.8948,-3.9024,-3.9114,-3.9264,-3.9428,-3.9516,-3.9428,-3.9162,-3.8997,-3.9264,-3.9229,-3.8814,-3.8463,-3.8184,-3.776,-3.738,-3.7423,-3.7763,-3.8052,-3.8352,-3.8723,-3.9162,-3.9134,-3.9014,-3.8666,-3.8259,-3.8023,-3.7571,-3.7637,-3.7985,-3.823,-3.8383,-3.8439,-3.8495,-3.8423,-3.8383,-3.8399,-3.8511,-3.8733,-3.886,-3.9023,-3.9239,-3.9292,-3.9504,-3.9714,-3.9817,-4.0018,-4.0055,-3.9272,-3.8112,-3.7195,-3.6793,-3.6667,-3.6794,-3.6913,-3.6992,-3.7129,-3.7243,-3.7261,-3.7164,-3.7069,-3.7052,-3.7055,-3.7208,-3.7358,-3.7523,-3.7632,-3.7756,-3.7897,-3.8052,-3.8171,-3.8252,-3.8314,-3.835,-3.837,-3.8554,-3.8803,-3.8881,-3.891,-3.9032,-3.9079,-3.9138,-3.9082,-3.8906,-3.8563,-3.8257,-3.8266,-3.8164,-3.8312,-3.8393,-3.8585,-3.8794,-3.9055,-3.9279,-3.9298,-3.6358,-3.6653,-3.6803,-3.7095,-3.7307,-3.7555,-3.7673,-3.7755,-3.7898,-3.8166,-3.8349,-3.8496,-3.8666,-3.8845,-3.91,-3.9264,-3.9469,-3.9557,-3.9659,-3.9659,-3.9659,-3.9733,-3.9793,-3.9954,-4.0128,-4.0402,-4.056,-4.0301,-3.9954,-4.0055,-4.0065,-3.983,-3.9422,-3.9031,-3.8731,-3.838,-3.8326,-3.8366,-3.8782,-3.9147,-3.9508,-3.9905,-4.0155,-4.0141,-3.9532,-3.9171,-3.9028,-3.8396,-3.8375,-3.8623,-3.8914,-3.904,-3.9185,-3.9435,-3.9435,-3.9169,-3.9061,-3.9152,-3.9312,-3.954,-3.9661,-3.9816,-4.0037,-4.0221,-4.0434,-4.0525,-4.0642,-4.0874,-3.9948,-3.8811,-3.8076,-3.7527,-3.7253,-3.7261,-3.7374,-3.7449,-3.7595,-3.7703,-3.7845,-3.7739,-3.7649,-3.7595,-3.7614,-3.7596,-3.7718,-3.7859,-3.7962,-3.8135,-3.8285,-3.8396,-3.851,-3.8585,-3.8658,-3.8674,-3.8755,-3.8849,-3.9064,-3.924,-3.9239,-3.9266,-3.9339,-3.9391,-3.9362,-3.9331,-3.932,-3.9088,-3.9242,-3.9272,-3.9126,-3.9127,-3.9432,-3.9575,-3.9575,-3.9575,-3.9575,-3.7121,-3.7413,-3.7546,-3.7821,-3.8057,-3.8148,-3.8227,-3.8512,-3.8714,-3.879,-3.8945,-3.9203,-3.9441,-3.9604,-3.9954,-4.0128,-4.0229,-4.0416,-4.0516,-4.0516,-4.0516,-4.0516,-4.0588,-4.0745,-4.1001,-4.1283,-4.1451,-4.1114,-4.083,-4.0916,-4.1001,-4.0983,-4.0689,-4.04,-4.0095,-3.966,-3.9401,-3.915,-3.9538,-4.0076,-4.0699,-4.0919,-4.0946,-4.0801,-4.032,-3.9891,-3.9756,-3.9168,-3.8914,-3.9259,-3.9504,-3.9677,-3.9833,-4.0037,-4.0221,-4.0171,-4.0037,-3.9833,-4.0003,-4.0121,-4.0271,-4.0402,-4.0597,-4.0819,-4.1001,-4.1321,-4.1499,-4.1605,-4.0494,-3.9465,-3.8854,-3.8112,-3.7828,-3.7757,-3.7845,-3.7897,-3.8,-3.8153,-3.8252,-3.8318,-3.8201,-3.8135,-3.8117,-3.8056,-3.8031,-3.8186,-3.8355,-3.8491,-3.8621,-3.8725,-3.8855,-3.8923,-3.898,-3.9008,-3.9026,-3.9163,-3.9354,-3.9563,-3.9514,-3.9489,-3.9577,-3.9626,-3.9661,-3.9647,-3.967,-3.9693,-3.9604,-3.958,-3.9647,-3.9693,-3.9781,-3.9804,-3.9848,-3.9848,-3.9829,-3.8277,-3.7939,-3.8277,-3.8459,-3.8602,-3.8831,-3.9093,-3.9177,-3.9387,-3.955,-3.9712,-3.9889,-4.0128,-4.0388,-4.0645,-4.0816,-4.1085,-4.1184,-4.1353,-4.1423,-4.1423,-4.1423,-4.1408,-4.159,-4.1771,-4.2102,-4.2199,-4.2348,-4.2087,-4.1937,-4.1868,-4.2015,-4.1763,-4.1533,-4.1359,-4.0801,-4.0484,-4.0353,-4.0475,-4.0935,-4.1456,-4.1688,-4.1821,-4.2161,-4.1107,-4.0778,-4.0651,-3.9839,-3.9606,-3.9918,-4.0121,-4.0238,-4.0485,-4.0662,-4.0836,-4.0901,-4.0901,-4.0789,-4.0628,-4.0741,-4.0836,-4.1024,-4.1174,-4.1331,-4.1481,-4.1835,-4.2264,-4.2575,-4.1504,-4.0558,-3.9805,-3.9138,-3.8629,-3.837,-3.8307,-3.83,-3.8396,-3.8541,-3.8652,-3.8695,-3.8755,-3.8762,-3.8664,-3.8481,-3.8437,-3.8511,-3.873,-3.8929,-3.8997,-3.9027,-3.9146,-3.9279,-3.9305,-3.9313,-3.9327,-3.9396,-3.9602,-3.9768,-3.9741,-3.9727,-3.9815,-3.986,-3.987,-3.9914,-3.9956,-3.9935,-3.9895,-3.9873,-3.9851,-3.9914,-3.9996,-4.0038,-4.0059,-4.006,-4.006,-3.9441,-3.8832,-3.9087,-3.9176,-3.9278,-3.9666,-3.9815,-3.9891,-4.0166,-4.032,-4.0449,-4.0604,-4.0901,-4.117,-4.1339,-4.1604,-4.1868,-4.1937,-4.2087,-4.2237,-4.2319,-4.2319,-4.2319,-4.2333,-4.2578,-4.2996,-4.2996,-4.3155,-4.3314,-4.325,-4.301,-4.2981,-4.2768,-4.2599,-4.2455,-4.201,-4.152,-4.1256,-4.131,-4.167,-4.2222,-4.2349,-4.2726,-4.2638,-4.2113,-4.1375,-4.1728,-4.0641,-4.0222,-4.0534,-4.0662,-4.0758,-4.0948,-4.1226,-4.1346,-4.1436,-4.1542,-4.1631,-4.1463,-4.1418,-4.1463,-4.1596,-4.1796,-4.1937,-4.1925,-4.2311,-4.2778,-4.3222,-4.234,-4.1524,-4.0942,-4.0172,-3.9469,-3.9017,-3.875,-3.8719,-3.8792,-3.905,-3.91,-3.8998,-3.9157,-3.9452,-3.9314,-3.8952,-3.885,-3.8897,-3.9082,-3.9397,-3.9421,-3.9418,-3.9446,-3.957,-3.958,-3.958,-3.9604,-3.9693,-3.9894,-3.9981,-3.9927,-3.9933,-3.9994,-4.0057,-4.0078,-4.0138,-4.0196,-4.0196,-4.0139,-4.01,-4.0078,-4.0118,-4.0177,-4.0215,-4.0233,-4.0252,-4.0269,-4.0616,-4.0516,-4.0097,-4.0069,-4.0229,-4.0281,-4.0419,-4.0677,-4.0845,-4.0943,-4.1083,-4.1365,-4.1757,-4.1922,-4.2102,-4.2295,-4.2377,-4.2754,-4.29,-4.2981,-4.3076,-4.3235,-4.3235,-4.3235,-4.3394,-4.3771,-4.3849,-4.4097,-4.4404,-4.4404,-4.4097,-4.3819,-4.3745,-4.367,-4.3466,-4.3077,-4.2485,-4.2145,-4.2012,-4.2381,-4.2867,-4.3096,-4.3339,-4.3515,-4.2668,-4.1984,-4.2517,-4.1221,-4.0631,-4.1047,-4.1134,-4.1209,-4.1408,-4.1675,-4.1831,-4.1917,-4.2061,-4.2228,-4.2251,-4.2044,-4.1959,-4.2086,-4.2315,-4.2501,-4.2515,-4.2886,-4.3306,-4.3597,-4.29,-4.2381,-4.175,-4.1075,-4.0437,-4.0018,-3.9811,-3.9694,-3.9705,-3.9685,-3.9682,-3.941,-3.9657,-4.0272,-4.0421,-4.0203,-3.9338,-3.9287,-4.0057,-4.0403,-3.9983,-3.9924,-3.9802,-3.9838,-3.9845,-3.9848,-3.9889,-3.997,-4.0034,-4.0095,-4.0098,-4.0119,-4.0177,-4.0215,-4.0252,-4.0307,-4.036,-4.0375,-4.0389,-4.0339,-4.0306,-4.0288,-4.0325,-4.0377,-4.0392,-4.0386,-4.0422,-4.1521,-4.1506,-4.1324,-4.1085,-4.0759,-4.1057,-4.1227,-4.1298,-4.1558,-4.1749,-4.1893,-4.2319,-4.2578,-4.2659,-4.2835,-4.3025,-4.317,-4.3394,-4.363,-4.3801,-4.3957,-4.4112,-4.4112,-4.4189,-4.4343,-4.4632,-4.4708,-4.4933,-4.5321,-4.5321,-4.5437,-4.5274,-4.4977,-4.4899,-4.4679,-4.411,-4.3387,-4.2927,-4.2726,-4.3052,-4.3552,-4.373,-4.3964,-4.4345,-4.3135,-4.2635,-4.2688,-4.1612,-4.1296,-4.1318,-4.1542,-4.1675,-4.1849,-4.2086,-4.221,-4.2333,-4.2512,-4.267,-4.2804,-4.2609,-4.2472,-4.2729,-4.2882,-4.2977,-4.3013,-4.33,-4.3695,-4.3744,-4.3623,-4.3167,-4.2514,-4.2173,-4.1827,-4.1334,-4.0961,-4.0772,-4.072,-4.0666,-4.0741,-4.0672,-4.1071,-4.1623,-4.1632,-4.1582,-4.0533,-3.9731,-4.0637,-4.1297,-4.0886,-4.0552,-4.0504,-4.0281,-4.0286,-4.0118,-4.0099,-4.0138,-4.0139,-4.0196,-4.0271,-4.0306,-4.0321,-4.0372,-4.0425,-4.0476,-4.0508,-4.0539,-4.0534,-4.0534,-4.0539,-4.0492,-4.0492,-4.0508,-4.0519,-4.0526,-4.0559,-4.2319,-4.2319,-4.2415,-4.199,-4.1549,-4.175,-4.1947,-4.2136,-4.2262,-4.2488,-4.2769,-4.3155,-4.3299,-4.3394,-4.3645,-4.3723,-4.3942,-4.4174,-4.4404,-4.4556,-4.4799,-4.4949,-4.4949,-4.5024,-4.5157,-4.5452,-4.5526,-4.5744,-4.612,-4.612,-4.6301,-4.6285,-4.6143,-4.6072,-4.5754,-4.503,-4.4155,-4.358,-4.3416,-4.3713,-4.4212,-4.4384,-4.4536,-4.477,-4.3889,-4.3355,-4.3187,-4.2434,-4.1876,-4.1807,-4.1917,-4.2086,-4.2269,-4.2432,-4.2613,-4.2747,-4.29,-4.3013,-4.3105,-4.3031,-4.2957,-4.3214,-4.3321,-4.3353,-4.3435,-4.3656,-4.3957,-4.4294,-4.4216,-4.3886,-4.3263,-4.3091,-4.2819,-4.2283,-4.1882,-4.1682,-4.1769,-4.1784,-4.1949,-4.2052,-4.2389,-4.2514,-4.3073,-4.3096,-4.2921,-4.1974,-4.2069,-4.2417,-4.1884,-4.1584,-4.1358,-4.1093,-4.0807,-4.0558,-4.0326,-4.0363,-4.0362,-4.03,-4.037,-4.0476,-4.0508,-4.0534,-4.0564,-4.0593,-4.0621,-4.0654,-4.0681,-4.0675,-4.0668,-4.0626,-4.064,-4.064,-4.0648,-4.0655,-4.0668,-4.2981,-4.2996,-4.3155,-4.293,-4.2421,-4.2357,-4.2607,-4.2931,-4.303,-4.3235,-4.3536,-4.3771,-4.402,-4.4266,-4.4419,-4.4556,-4.4708,-4.4933,-4.5157,-4.5305,-4.5526,-4.5687,-4.576,-4.5817,-4.5961,-4.623,-4.6301,-4.6512,-4.6892,-4.6892,-4.7082,-4.7272,-4.7139,-4.689,-4.675,-4.5767,-4.4834,-4.4181,-4.4056,-4.4367,-4.4703,-4.4906,-4.5123,-4.5165,-4.4765,-4.4265,-4.3915,-4.3243,-4.2642,-4.2423,-4.2364,-4.2472,-4.2591,-4.2786,-4.2957,-4.316,-4.325,-4.3373,-4.3545,-4.3373,-4.3442,-4.3579,-4.3646,-4.3726,-4.3804,-4.4017,-4.4263,-4.4565,-4.4485,-4.443,-4.4158,-4.3928,-4.363,-4.3404,-4.301,-4.289,-4.3012,-4.308,-4.3278,-4.3418,-4.3175,-4.3158,-4.402,-4.4672,-4.5017,-4.4672,-4.4097,-4.3579,-4.2967,-4.2661,-4.2431,-4.1989,-4.162,-4.1327,-4.1091,-4.0723,-4.06,-4.05,-4.0492,-4.0579,-4.064,-4.0668,-4.0675,-4.072,-4.0725,-4.0757,-4.0781,-4.0784,-4.0773,-4.0781,-4.0776,-4.0788,-4.0781,-4.0773,-4.0784,-4.3723,-4.3879,-4.3957,-4.3957,-4.3769,-4.3382,-4.3368,-4.3653,-4.3959,-4.4159,-4.4297,-4.448,-4.4708,-4.4874,-4.5098,-4.5231,-4.5452,-4.5599,-4.5832,-4.5945,-4.623,-4.6388,-4.6458,-4.6598,-4.6738,-4.6945,-4.7066,-4.7218,-4.7654,-4.7638,-4.782,-4.8032,-4.7758,-4.7178,-4.6573,-4.5934,-4.5503,-4.4863,-4.4759,-4.4906,-4.5266,-4.5477,-4.5632,-4.5751,-4.54,-4.5082,-4.4799,-4.4005,-4.34,-4.3077,-4.299,-4.2824,-4.2957,-4.3142,-4.3267,-4.3408,-4.3545,-4.366,-4.3855,-4.3886,-4.3886,-4.3949,-4.398,-4.4079,-4.4255,-4.4383,-4.459,-4.4748,-4.4726,-4.4685,-4.4619,-4.4687,-4.455,-4.4592,-4.4395,-4.4505,-4.4588,-4.4572,-4.4671,-4.4787,-4.4671,-4.4456,-4.4949,-4.5194,-4.5539,-4.5673,-4.5043,-4.4532,-4.3939,-4.3747,-4.3534,-4.3008,-4.2576,-4.2256,-4.1938,-4.1663,-4.1001,-4.0629,-4.0636,-4.07,-4.0745,-4.1059,-4.1044,-4.1214,-4.1031,-4.0867,-4.0878,-4.0878,-4.0917,-4.0927,-4.0908,-4.0877,-4.0858,-4.0849,-4.0859,-4.4358,-4.4511,-4.4663,-4.4799,-4.477,-4.4213,-4.4116,-4.4357,-4.4716,-4.4923,-4.5052,-4.5247,-4.5379,-4.5599,-4.5817,-4.5961,-4.6175,-4.6404,-4.6528,-4.6705,-4.686,-4.7082,-4.7235,-4.7302,-4.7488,-4.7688,-4.782,-4.7968,-4.8308,-4.8325,-4.8316,-4.8276,-4.8192,-4.7563,-4.6818,-4.6242,-4.5835,-4.5397,-4.5283,-4.5424,-4.5717,-4.597,-4.6087,-4.6161,-4.6065,-4.5952,-4.5454,-4.4832,-4.4111,-4.3927,-4.3538,-4.3178,-4.3286,-4.3408,-4.3545,-4.3679,-4.3873,-4.403,-4.4199,-4.4288,-4.4298,-4.4374,-4.4374,-4.444,-4.4533,-4.4624,-4.4787,-4.4928,-4.4927,-4.4938,-4.4991,-4.5129,-4.5194,-4.5216,-4.5241,-4.5303,-4.5323,-4.5284,-4.532,-4.549,-4.558,-4.5549,-4.5534,-4.5679,-4.5824,-4.5863,-4.5824,-4.5341,-4.4893,-4.4704,-4.4488,-4.3979,-4.3636,-4.3394,-4.3047,-4.2705,-4.1911,-4.0885,-4.1044,-4.1446,-4.1798,-4.2257,-4.1975,-4.1694,-4.1694,-4.1528,-4.1077,-4.0957,-4.1023,-4.1042,-4.1003,-4.098,-4.0935,-4.0935,-4.0924,-4.4949,-4.5024,-4.5321,-4.5541,-4.5442,-4.497,-4.4918,-4.5255,-4.5492,-4.5643,-4.5832,-4.6048,-4.6191,-4.6301,-4.6512,-4.6738,-4.6876,-4.7098,-4.7218,-4.7404,-4.7538,-4.777,-4.7902,-4.7984,-4.8227,-4.8403,-4.853,-4.8673,-4.9018,-4.9107,-4.8889,-4.8548,-4.8547,-4.7893,-4.7099,-4.6441,-4.6132,-4.5857,-4.5854,-4.5988,-4.6186,-4.6429,-4.6572,-4.666,-4.6801,-4.6703,-4.6302,-4.5735,-4.5101,-4.4545,-4.387,-4.3628,-4.3563,-4.3679,-4.3828,-4.4036,-4.4266,-4.4383,-4.4477,-4.456,-4.464,-4.4693,-4.4667,-4.4667,-4.4712,-4.4815,-4.4952,-4.5086,-4.5137,-4.5167,-4.5213,-4.5298,-4.54,-4.5419,-4.5476,-4.5512,-4.5547,-4.558,-4.561,-4.5696,-4.5761,-4.5761,-4.5738,-4.5854,-4.5963,-4.5987,-4.5987,-4.5879,-4.5519,-4.5524,-4.5247,-4.4873,-4.4589,-4.4543,-4.4211,-4.3788,-4.3538,-4.2742,-4.2577,-4.2869,-4.3209,-4.3305,-4.2905,-4.2622,-4.2533,-4.2237,-4.1694,-4.1338,-4.1169,-4.1169,-4.111,-4.1046,-4.0999,-4.1011,-4.0999,-4.5614,-4.576,-4.592,-4.6048,-4.6246,-4.6239,-4.6189,-4.6062,-4.6221,-4.6383,-4.6598,-4.6668,-4.6823,-4.6961,-4.7066,-4.7286,-4.7504,-4.7638,-4.7836,-4.8033,-4.8211,-4.8339,-4.8467,-4.8673,-4.8923,-4.9107,-4.9212,-4.9333,-4.9649,-4.9808,-4.9585,-4.9097,-4.8762,-4.8172,-4.7467,-4.68,-4.6467,-4.6305,-4.635,-4.6495,-4.6637,-4.687,-4.7007,-4.7187,-4.7381,-4.7343,-4.7243,-4.6731,-4.6138,-4.548,-4.4851,-4.4435,-4.386,-4.3936,-4.4079,-4.4325,-4.4468,-4.4578,-4.4693,-4.477,-4.4846,-4.4962,-4.4967,-4.4967,-4.4986,-4.5033,-4.5144,-4.5211,-4.5295,-4.5338,-4.54,-4.5477,-4.5531,-4.5565,-4.5616,-4.5684,-4.575,-4.5761,-4.5786,-4.5827,-4.5906,-4.5937,-4.5906,-4.5966,-4.6035,-4.6066,-4.6066,-4.6037,-4.5998,-4.5956,-4.5875,-4.5479,-4.5393,-4.5278,-4.5191,-4.4832,-4.486,-4.4733,-4.4392,-4.4225,-4.4612,-4.453,-4.3895,-4.3532,-4.339,-4.2877,-4.2212,-4.1983,-4.191,-4.132,-4.1178,-4.1114,-4.1089,-4.1142,-4.1214,-4.6262,-4.6404,-4.6474,-4.6754,-4.7014,-4.7218,-4.7221,-4.709,-4.6945,-4.7059,-4.7202,-4.7286,-4.7437,-4.7555,-4.7688,-4.7886,-4.8146,-4.8227,-4.842,-4.8593,-4.8798,-4.8984,-4.9107,-4.9273,-4.953,-4.9767,-4.9884,-4.9982,-5.0268,-5.0425,-5.0239,-4.9083,-4.8798,-4.8271,-4.7648,-4.7091,-4.6987,-4.6898,-4.6898,-4.6962,-4.7116,-4.7294,-4.745,-4.7578,-4.7806,-4.797,-4.8078,-4.7553,-4.6893,-4.6205,-4.5531,-4.4846,-4.4326,-4.4229,-4.4374,-4.4578,-4.4685,-4.4789,-4.4846,-4.4967,-4.5038,-4.5106,-4.5213,-4.5235,-4.5216,-4.5237,-4.53,-4.536,-4.5419,-4.5515,-4.5568,-4.5637,-4.5648,-4.5677,-4.5761,-4.5858,-4.588,-4.5919,-4.5944,-4.598,-4.6014,-4.6037,-4.6066,-4.6104,-4.6122,-4.6127,-4.6135,-4.6123,-4.6088,-4.6054,-4.6065,-4.589,-4.5918,-4.5946,-4.5819,-4.5652,-4.5582,-4.5499,-4.5377,-4.5384,-4.5878,-4.5644,-4.4929,-4.4512,-4.4211,-4.3651,-4.3071,-4.2924,-4.2772,-4.2182,-4.1909,-4.2186,-4.1987,-4.1447,-4.152,-4.6807,-4.6945,-4.7183,-4.7437,-4.777,-4.7984,-4.8099,-4.8231,-4.7769,-4.7654,-4.7787,-4.7968,-4.8098,-4.8227,-4.8275,-4.845,-4.8656,-4.8781,-4.8968,-4.9273,-4.9411,-4.959,-4.9691,-4.9924,-5.0114,-5.0359,-5.0509,-5.0602,-5.0822,-5.084,-5.0287,-4.9047,-4.9061,-4.8565,-4.7599,-4.7453,-4.745,-4.7536,-4.7536,-4.7518,-4.756,-4.7728,-4.7893,-4.8032,-4.8169,-4.8306,-4.831,-4.7904,-4.7233,-4.6624,-4.5953,-4.5312,-4.4711,-4.4532,-4.4667,-4.477,-4.487,-4.4943,-4.5057,-4.5148,-4.5235,-4.5317,-4.5379,-4.5419,-4.5419,-4.5419,-4.5458,-4.5495,-4.5549,-4.5601,-4.5668,-4.5731,-4.5776,-4.5814,-4.5874,-4.5944,-4.598,-4.6014,-4.6026,-4.6056,-4.6084,-4.6138,-4.6154,-4.6162,-4.615,-4.6177,-4.6183,-4.6189,-4.6183,-4.6144,-4.6157,-4.6176,-4.6157,-4.6176,-4.6118,-4.5988,-4.606,-4.6033,-4.5961,-4.5986,-4.6078,-4.6025,-4.5933,-4.5494,-4.5055,-4.4567,-4.4103,-4.3918,-4.3671,-4.3277,-4.316,-4.3479,-4.3105,-4.2334,-4.2174,-4.7421,-4.7555,-4.7836,-4.8115,-4.8292,-4.8467,-4.8631,-4.8811,-4.8798,-4.8664,-4.8476,-4.8543,-4.861,-4.8798,-4.8906,-4.9073,-4.9273,-4.9394,-4.9573,-4.975,-4.9942,-5.0114,-5.0211,-5.038,-5.062,-5.0855,-5.0999,-5.114,-5.1239,-5.0976,-5.051,-4.9507,-4.9271,-4.8511,-4.7777,-4.777,-4.7929,-4.8068,-4.813,-4.8032,-4.7974,-4.8032,-4.8169,-4.8324,-4.8476,-4.8605,-4.8657,-4.8704,-4.8226,-4.7735,-4.7023,-4.6026,-4.4844,-4.4846,-4.4865,-4.4943,-4.5061,-4.5129,-4.5213,-4.5317,-4.538,-4.5458,-4.5514,-4.553,-4.5547,-4.555,-4.5568,-4.5618,-4.5648,-4.5731,-4.5776,-4.5833,-4.5893,-4.5925,-4.5972,-4.6025,-4.6056,-4.6095,-4.6111,-4.6154,-4.6176,-4.619,-4.6203,-4.6209,-4.6176,-4.6181,-4.6201,-4.6206,-4.6255,-4.6245,-4.622,-4.6215,-4.6195,-4.6195,-4.622,-4.622,-4.6206,-4.6206,-4.6133,-4.6172,-4.6275,-4.6186,-4.6097,-4.6144,-4.5854,-4.533,-4.4943,-4.4794,-4.4523,-4.4251,-4.4112,-4.431,-4.4132,-4.3481,-4.3347,-4.8033,-4.8211,-4.8467,-4.8736,-4.8861,-4.8968,-4.9175,-4.9338,-4.9402,-4.9402,-4.9359,-4.9205,-4.9212,-4.935,-4.9453,-4.9632,-4.9825,-4.9942,-5.0097,-5.0211,-5.0453,-5.0675,-5.0766,-5.0928,-5.1158,-5.1384,-5.1586,-5.1679,-5.1515,-5.1207,-5.066,-4.9665,-4.9077,-4.8735,-4.8163,-4.819,-4.8286,-4.8475,-4.8587,-4.855,-4.8402,-4.8458,-4.855,-4.8678,-4.8785,-4.8906,-4.9008,-4.9123,-4.8752,-4.8213,-4.7466,-4.6682,-4.5818,-4.5613,-4.5441,-4.5262,-4.5213,-4.5317,-4.5399,-4.5438,-4.5514,-4.5566,-4.5654,-4.5684,-4.5712,-4.5715,-4.5715,-4.5761,-4.5776,-4.5838,-4.5887,-4.5937,-4.5991,-4.6025,-4.6056,-4.6066,-4.613,-4.6162,-4.6164,-4.6177,-4.6189,-4.6215,-4.6226,-4.625,-4.6236,-4.6245,-4.6245,-4.6245,-4.6269,-4.6292,-4.6269,-4.6264,-4.624,-4.624,-4.6264,-4.6264,-4.6245,-4.6245,-4.6245,-4.6253,-4.6284,-4.6287,-4.6273,-4.6254,-4.62,-4.603,-4.572,-4.5488,-4.5488,-4.5332,-4.5156,-4.5039,-4.4803,-4.4646,-4.4665,-4.853,-4.8827,-4.9107,-4.929,-4.929,-4.9471,-4.9675,-4.9761,-4.9835,-4.9953,-5.015,-4.9913,-4.9866,-4.9825,-4.9924,-5.0114,-5.0285,-5.0415,-5.0547,-5.0766,-5.0963,-5.1105,-5.1315,-5.147,-5.1722,-5.1969,-5.2191,-5.1827,-5.142,-5.1137,-5.0575,-4.9533,-4.9179,-4.904,-4.8715,-4.8569,-4.8642,-4.8751,-4.8857,-4.8925,-4.8925,-4.8943,-4.8943,-4.8993,-4.9094,-4.916,-4.9321,-4.9283,-4.9036,-4.8655,-4.8056,-4.7334,-4.6673,-4.6329,-4.6018,-4.5776,-4.5456,-4.5496,-4.5495,-4.5586,-4.5618,-4.5668,-4.5765,-4.5829,-4.5833,-4.588,-4.588,-4.5951,-4.5977,-4.6002,-4.603,-4.6094,-4.6134,-4.6173,-4.618,-4.6205,-4.6242,-4.6287,-4.6279,-4.6289,-4.6294,-4.6314,-4.626,-4.6284,-4.6312,-4.6319,-4.63,-4.6303,-4.6303,-4.6306,-4.6287,-4.628,-4.6277,-4.628,-4.6303,-4.6287,-4.6267,-4.6284,-4.6267,-4.6295,-4.6301,-4.6307,-4.6287,-4.6301,-4.6246,-4.6191,-4.6189,-4.6026,-4.6102,-4.6067,-4.5893,-4.5642,-4.5699,-4.5623,-4.5918,-4.9152,-4.935,-4.9513,-4.9649,-4.9767,-4.9959,-5.0138,-5.0276,-5.0258,-5.0407,-5.0486,-5.0589,-5.0474,-5.0302,-5.0436,-5.0547,-5.0729,-5.0855,-5.1123,-5.135,-5.1436,-5.1589,-5.1772,-5.1969,-5.2191,-5.2408,-5.2481,-5.2233,-5.1451,-5.1069,-5.0548,-4.9595,-4.903,-4.8882,-4.8881,-4.8857,-4.8925,-4.9046,-4.9146,-4.9225,-4.9257,-4.9244,-4.9179,-4.9276,-4.9402,-4.9514,-4.9634,-4.9673,-4.9693,-4.9489,-4.903,-4.8314,-4.7621,-4.7019,-4.6624,-4.6225,-4.5898,-4.5605,-4.5616,-4.5684,-4.5731,-4.5757,-4.5852,-4.5951,-4.6002,-4.6096,-4.6166,-4.6294,-4.6316,-4.6268,-4.6299,-4.6377,-4.6424,-4.6466,-4.6495,-4.6489,-4.6513,-4.6562,-4.6592,-4.6577,-4.6561,-4.6468,-4.6273,-4.6335,-4.6397,-4.6381,-4.6303,-4.6303,-4.6293,-4.6295,-4.6358,-4.6337,-4.6334,-4.6293,-4.6297,-4.6303,-4.6284,-4.6301,-4.6301,-4.6306,-4.6289,-4.6301,-4.6303,-4.6289,-4.6289,-4.6267,-4.6295,-4.6306,-4.6267,-4.6212,-4.6228,-4.6189,-4.6287,-4.6293,-4.6301]}]]